<?xml version="1.0" encoding="UTF-8" standalone="no" ?>
<gpx xmlns="http://www.topografix.com/GPX/1/1" xmlns:xsi="http://www.w3.org/2001/XMLSchema-instance" xsi:schemaLocation="http://www.topografix.com/GPX/1/1 http://www.topografix.com/GPX/1/1/gpx.xsd" version="1.1" creator="VisuGPX - https://www.visugpx.com">
  <metadata>
    <name>Paris à Chartres. Etape 4 d'Epernon à Chartres</name>
    <desc><![CDATA[Compostelle 2000. Paris à Chartres. Etape 4 d'Epernon à Chartres]]></desc>
  </metadata>
  <trk>
    <name><![CDATA[20180210161321-FSS4A]]></name>
    <trkseg>
      <trkpt lat="48.60553" lon="1.68168">
        <ele>121</ele>
        <time>2010-01-01T00:00:00Z</time>
      </trkpt>
      <trkpt lat="48.60536" lon="1.68232">
        <ele>123</ele>
        <time>2010-01-01T00:00:00Z</time>
      </trkpt>
      <trkpt lat="48.60536" lon="1.68232">
        <ele>123</ele>
        <time>2010-01-01T00:00:00Z</time>
      </trkpt>
      <trkpt lat="48.60443" lon="1.68142">
        <ele>123.6</ele>
        <time>2010-01-01T00:00:00Z</time>
      </trkpt>
      <trkpt lat="48.60443" lon="1.68142">
        <ele>123.6</ele>
        <time>2010-01-01T00:00:00Z</time>
      </trkpt>
      <trkpt lat="48.60198" lon="1.67782">
        <ele>123.5</ele>
        <time>2010-01-01T00:00:00Z</time>
      </trkpt>
      <trkpt lat="48.60198" lon="1.67782">
        <ele>123.5</ele>
        <time>2010-01-01T00:00:00Z</time>
      </trkpt>
      <trkpt lat="48.60122" lon="1.67722">
        <ele>126.8</ele>
        <time>2010-01-01T00:00:00Z</time>
      </trkpt>
      <trkpt lat="48.60122" lon="1.67722">
        <ele>126.8</ele>
        <time>2010-01-01T00:00:00Z</time>
      </trkpt>
      <trkpt lat="48.59986" lon="1.6761">
        <ele>131</ele>
        <time>2010-01-01T00:00:00Z</time>
      </trkpt>
      <trkpt lat="48.59986" lon="1.6761">
        <ele>131</ele>
        <time>2010-01-01T00:00:00Z</time>
      </trkpt>
      <trkpt lat="48.60082" lon="1.67537">
        <ele>123.1</ele>
        <time>2010-01-01T00:00:00Z</time>
      </trkpt>
      <trkpt lat="48.60082" lon="1.67537">
        <ele>123.1</ele>
        <time>2010-01-01T00:00:00Z</time>
      </trkpt>
      <trkpt lat="48.6008" lon="1.67531">
        <ele>123</ele>
        <time>2010-01-01T00:00:00Z</time>
      </trkpt>
      <trkpt lat="48.60076" lon="1.67534">
        <ele>123.2</ele>
        <time>2010-01-01T00:00:00Z</time>
      </trkpt>
      <trkpt lat="48.6007" lon="1.67539">
        <ele>123.4</ele>
        <time>2010-01-01T00:00:00Z</time>
      </trkpt>
      <trkpt lat="48.60067" lon="1.67534">
        <ele>123.4</ele>
        <time>2010-01-01T00:00:00Z</time>
      </trkpt>
      <trkpt lat="48.60057" lon="1.67517">
        <ele>123.3</ele>
        <time>2010-01-01T00:00:00Z</time>
      </trkpt>
      <trkpt lat="48.60006" lon="1.67439">
        <ele>121.6</ele>
        <time>2010-01-01T00:00:00Z</time>
      </trkpt>
      <trkpt lat="48.59993" lon="1.67422">
        <ele>122.6</ele>
        <time>2010-01-01T00:00:00Z</time>
      </trkpt>
      <trkpt lat="48.59958" lon="1.67367">
        <ele>121.8</ele>
        <time>2010-01-01T00:00:00Z</time>
      </trkpt>
      <trkpt lat="48.59904" lon="1.67291">
        <ele>122.4</ele>
        <time>2010-01-01T00:00:00Z</time>
      </trkpt>
      <trkpt lat="48.59904" lon="1.67291">
        <ele>122.4</ele>
        <time>2010-01-01T00:00:00Z</time>
      </trkpt>
      <trkpt lat="48.59791" lon="1.67131">
        <ele>117.5</ele>
        <time>2010-01-01T00:00:00Z</time>
      </trkpt>
      <trkpt lat="48.59771" lon="1.67101">
        <ele>117.6</ele>
        <time>2010-01-01T00:00:00Z</time>
      </trkpt>
      <trkpt lat="48.59744" lon="1.67062">
        <ele>117</ele>
        <time>2010-01-01T00:00:00Z</time>
      </trkpt>
      <trkpt lat="48.59721" lon="1.67025">
        <ele>116.5</ele>
        <time>2010-01-01T00:00:00Z</time>
      </trkpt>
      <trkpt lat="48.59711" lon="1.67007">
        <ele>116.5</ele>
        <time>2010-01-01T00:00:00Z</time>
      </trkpt>
      <trkpt lat="48.59711" lon="1.67007">
        <ele>116.5</ele>
        <time>2010-01-01T00:00:00Z</time>
      </trkpt>
      <trkpt lat="48.59708" lon="1.66995">
        <ele>116</ele>
        <time>2010-01-01T00:00:00Z</time>
      </trkpt>
      <trkpt lat="48.59706" lon="1.6698">
        <ele>115.9</ele>
        <time>2010-01-01T00:00:00Z</time>
      </trkpt>
      <trkpt lat="48.597" lon="1.66922">
        <ele>115.5</ele>
        <time>2010-01-01T00:00:00Z</time>
      </trkpt>
      <trkpt lat="48.59698" lon="1.66909">
        <ele>114.7</ele>
        <time>2010-01-01T00:00:00Z</time>
      </trkpt>
      <trkpt lat="48.59697" lon="1.66906">
        <ele>114.7</ele>
        <time>2010-01-01T00:00:00Z</time>
      </trkpt>
      <trkpt lat="48.59697" lon="1.66906">
        <ele>114.7</ele>
        <time>2010-01-01T00:00:00Z</time>
      </trkpt>
      <trkpt lat="48.59682" lon="1.66866">
        <ele>114.4</ele>
        <time>2010-01-01T00:00:00Z</time>
      </trkpt>
      <trkpt lat="48.59657" lon="1.66804">
        <ele>114.9</ele>
        <time>2010-01-01T00:00:00Z</time>
      </trkpt>
      <trkpt lat="48.5965" lon="1.66785">
        <ele>114.9</ele>
        <time>2010-01-01T00:00:00Z</time>
      </trkpt>
      <trkpt lat="48.59643" lon="1.6676">
        <ele>114.7</ele>
        <time>2010-01-01T00:00:00Z</time>
      </trkpt>
      <trkpt lat="48.59636" lon="1.66738">
        <ele>114.7</ele>
        <time>2010-01-01T00:00:00Z</time>
      </trkpt>
      <trkpt lat="48.59636" lon="1.66738">
        <ele>114.7</ele>
        <time>2010-01-01T00:00:00Z</time>
      </trkpt>
      <trkpt lat="48.59625" lon="1.66702">
        <ele>115</ele>
        <time>2010-01-01T00:00:00Z</time>
      </trkpt>
      <trkpt lat="48.59612" lon="1.66665">
        <ele>115.2</ele>
        <time>2010-01-01T00:00:00Z</time>
      </trkpt>
      <trkpt lat="48.59592" lon="1.66612">
        <ele>115.1</ele>
        <time>2010-01-01T00:00:00Z</time>
      </trkpt>
      <trkpt lat="48.59592" lon="1.66612">
        <ele>115.1</ele>
        <time>2010-01-01T00:00:00Z</time>
      </trkpt>
      <trkpt lat="48.59589" lon="1.66605">
        <ele>115.1</ele>
        <time>2010-01-01T00:00:00Z</time>
      </trkpt>
      <trkpt lat="48.59579" lon="1.66579">
        <ele>115.4</ele>
        <time>2010-01-01T00:00:00Z</time>
      </trkpt>
      <trkpt lat="48.59564" lon="1.66546">
        <ele>116.2</ele>
        <time>2010-01-01T00:00:00Z</time>
      </trkpt>
      <trkpt lat="48.59555" lon="1.66525">
        <ele>116.3</ele>
        <time>2010-01-01T00:00:00Z</time>
      </trkpt>
      <trkpt lat="48.59553" lon="1.66521">
        <ele>116.3</ele>
        <time>2010-01-01T00:00:00Z</time>
      </trkpt>
      <trkpt lat="48.59551" lon="1.66522">
        <ele>116.4</ele>
        <time>2010-01-01T00:00:00Z</time>
      </trkpt>
      <trkpt lat="48.59551" lon="1.66522">
        <ele>116.4</ele>
        <time>2010-01-01T00:00:00Z</time>
      </trkpt>
      <trkpt lat="48.59553" lon="1.66521">
        <ele>116.3</ele>
        <time>2010-01-01T00:00:00Z</time>
      </trkpt>
      <trkpt lat="48.59547" lon="1.66502">
        <ele>116.4</ele>
        <time>2010-01-01T00:00:00Z</time>
      </trkpt>
      <trkpt lat="48.59538" lon="1.66469">
        <ele>116.2</ele>
        <time>2010-01-01T00:00:00Z</time>
      </trkpt>
      <trkpt lat="48.59531" lon="1.66443">
        <ele>116.3</ele>
        <time>2010-01-01T00:00:00Z</time>
      </trkpt>
      <trkpt lat="48.59513" lon="1.66373">
        <ele>115.6</ele>
        <time>2010-01-01T00:00:00Z</time>
      </trkpt>
      <trkpt lat="48.59506" lon="1.66346">
        <ele>115.6</ele>
        <time>2010-01-01T00:00:00Z</time>
      </trkpt>
      <trkpt lat="48.59503" lon="1.66336">
        <ele>115.9</ele>
        <time>2010-01-01T00:00:00Z</time>
      </trkpt>
      <trkpt lat="48.59503" lon="1.66336">
        <ele>115.9</ele>
        <time>2010-01-01T00:00:00Z</time>
      </trkpt>
      <trkpt lat="48.59499" lon="1.66318">
        <ele>116.7</ele>
        <time>2010-01-01T00:00:00Z</time>
      </trkpt>
      <trkpt lat="48.59498" lon="1.66313">
        <ele>116.8</ele>
        <time>2010-01-01T00:00:00Z</time>
      </trkpt>
      <trkpt lat="48.59496" lon="1.66301">
        <ele>117</ele>
        <time>2010-01-01T00:00:00Z</time>
      </trkpt>
      <trkpt lat="48.59493" lon="1.66267">
        <ele>116.4</ele>
        <time>2010-01-01T00:00:00Z</time>
      </trkpt>
      <trkpt lat="48.59493" lon="1.66255">
        <ele>115.8</ele>
        <time>2010-01-01T00:00:00Z</time>
      </trkpt>
      <trkpt lat="48.59496" lon="1.66232">
        <ele>116.2</ele>
        <time>2010-01-01T00:00:00Z</time>
      </trkpt>
      <trkpt lat="48.59494" lon="1.66219">
        <ele>116.5</ele>
        <time>2010-01-01T00:00:00Z</time>
      </trkpt>
      <trkpt lat="48.59494" lon="1.66219">
        <ele>116.5</ele>
        <time>2010-01-01T00:00:00Z</time>
      </trkpt>
      <trkpt lat="48.59496" lon="1.66232">
        <ele>116.2</ele>
        <time>2010-01-01T00:00:00Z</time>
      </trkpt>
      <trkpt lat="48.59481" lon="1.66211">
        <ele>116.8</ele>
        <time>2010-01-01T00:00:00Z</time>
      </trkpt>
      <trkpt lat="48.59469" lon="1.66196">
        <ele>117</ele>
        <time>2010-01-01T00:00:00Z</time>
      </trkpt>
      <trkpt lat="48.5943" lon="1.66133">
        <ele>116.6</ele>
        <time>2010-01-01T00:00:00Z</time>
      </trkpt>
      <trkpt lat="48.59358" lon="1.66015">
        <ele>118.7</ele>
        <time>2010-01-01T00:00:00Z</time>
      </trkpt>
      <trkpt lat="48.59351" lon="1.65999">
        <ele>118.9</ele>
        <time>2010-01-01T00:00:00Z</time>
      </trkpt>
      <trkpt lat="48.59354" lon="1.65995">
        <ele>118.8</ele>
        <time>2010-01-01T00:00:00Z</time>
      </trkpt>
      <trkpt lat="48.59354" lon="1.65995">
        <ele>118.8</ele>
        <time>2010-01-01T00:00:00Z</time>
      </trkpt>
      <trkpt lat="48.59351" lon="1.65999">
        <ele>118.9</ele>
        <time>2010-01-01T00:00:00Z</time>
      </trkpt>
      <trkpt lat="48.59345" lon="1.6598">
        <ele>118.8</ele>
        <time>2010-01-01T00:00:00Z</time>
      </trkpt>
      <trkpt lat="48.59343" lon="1.65972">
        <ele>118.7</ele>
        <time>2010-01-01T00:00:00Z</time>
      </trkpt>
      <trkpt lat="48.59343" lon="1.65955">
        <ele>118.5</ele>
        <time>2010-01-01T00:00:00Z</time>
      </trkpt>
      <trkpt lat="48.59343" lon="1.6593">
        <ele>118.6</ele>
        <time>2010-01-01T00:00:00Z</time>
      </trkpt>
      <trkpt lat="48.59343" lon="1.65918">
        <ele>118.7</ele>
        <time>2010-01-01T00:00:00Z</time>
      </trkpt>
      <trkpt lat="48.59342" lon="1.65916">
        <ele>119</ele>
        <time>2010-01-01T00:00:00Z</time>
      </trkpt>
      <trkpt lat="48.59342" lon="1.65912">
        <ele>119</ele>
        <time>2010-01-01T00:00:00Z</time>
      </trkpt>
      <trkpt lat="48.59339" lon="1.65908">
        <ele>119</ele>
        <time>2010-01-01T00:00:00Z</time>
      </trkpt>
      <trkpt lat="48.59339" lon="1.65907">
        <ele>119</ele>
        <time>2010-01-01T00:00:00Z</time>
      </trkpt>
      <trkpt lat="48.59339" lon="1.65907">
        <ele>119</ele>
        <time>2010-01-01T00:00:00Z</time>
      </trkpt>
      <trkpt lat="48.59336" lon="1.65903">
        <ele>119</ele>
        <time>2010-01-01T00:00:00Z</time>
      </trkpt>
      <trkpt lat="48.59325" lon="1.65902">
        <ele>119.5</ele>
        <time>2010-01-01T00:00:00Z</time>
      </trkpt>
      <trkpt lat="48.59307" lon="1.65901">
        <ele>119.8</ele>
        <time>2010-01-01T00:00:00Z</time>
      </trkpt>
      <trkpt lat="48.5929" lon="1.65902">
        <ele>120</ele>
        <time>2010-01-01T00:00:00Z</time>
      </trkpt>
      <trkpt lat="48.59276" lon="1.65901">
        <ele>120.2</ele>
        <time>2010-01-01T00:00:00Z</time>
      </trkpt>
      <trkpt lat="48.59273" lon="1.65898">
        <ele>120.2</ele>
        <time>2010-01-01T00:00:00Z</time>
      </trkpt>
      <trkpt lat="48.59273" lon="1.65898">
        <ele>120.2</ele>
        <time>2010-01-01T00:00:00Z</time>
      </trkpt>
      <trkpt lat="48.59244" lon="1.65854">
        <ele>120.8</ele>
        <time>2010-01-01T00:00:00Z</time>
      </trkpt>
      <trkpt lat="48.59236" lon="1.65841">
        <ele>120.7</ele>
        <time>2010-01-01T00:00:00Z</time>
      </trkpt>
      <trkpt lat="48.59231" lon="1.65833">
        <ele>121</ele>
        <time>2010-01-01T00:00:00Z</time>
      </trkpt>
      <trkpt lat="48.59231" lon="1.65833">
        <ele>121</ele>
        <time>2010-01-01T00:00:00Z</time>
      </trkpt>
      <trkpt lat="48.59221" lon="1.65815">
        <ele>121.5</ele>
        <time>2010-01-01T00:00:00Z</time>
      </trkpt>
      <trkpt lat="48.59178" lon="1.65735">
        <ele>124</ele>
        <time>2010-01-01T00:00:00Z</time>
      </trkpt>
      <trkpt lat="48.59171" lon="1.65724">
        <ele>124.1</ele>
        <time>2010-01-01T00:00:00Z</time>
      </trkpt>
      <trkpt lat="48.59169" lon="1.65717">
        <ele>124.2</ele>
        <time>2010-01-01T00:00:00Z</time>
      </trkpt>
      <trkpt lat="48.59169" lon="1.65717">
        <ele>124.2</ele>
        <time>2010-01-01T00:00:00Z</time>
      </trkpt>
      <trkpt lat="48.59168" lon="1.65713">
        <ele>124.3</ele>
        <time>2010-01-01T00:00:00Z</time>
      </trkpt>
      <trkpt lat="48.59165" lon="1.65697">
        <ele>125.2</ele>
        <time>2010-01-01T00:00:00Z</time>
      </trkpt>
      <trkpt lat="48.5916" lon="1.65664">
        <ele>125.9</ele>
        <time>2010-01-01T00:00:00Z</time>
      </trkpt>
      <trkpt lat="48.59154" lon="1.65634">
        <ele>125.7</ele>
        <time>2010-01-01T00:00:00Z</time>
      </trkpt>
      <trkpt lat="48.59144" lon="1.65607">
        <ele>125.6</ele>
        <time>2010-01-01T00:00:00Z</time>
      </trkpt>
      <trkpt lat="48.59144" lon="1.65607">
        <ele>125.6</ele>
        <time>2010-01-01T00:00:00Z</time>
      </trkpt>
      <trkpt lat="48.59129" lon="1.65567">
        <ele>126.1</ele>
        <time>2010-01-01T00:00:00Z</time>
      </trkpt>
      <trkpt lat="48.59114" lon="1.65531">
        <ele>126.3</ele>
        <time>2010-01-01T00:00:00Z</time>
      </trkpt>
      <trkpt lat="48.59103" lon="1.65508">
        <ele>126.2</ele>
        <time>2010-01-01T00:00:00Z</time>
      </trkpt>
      <trkpt lat="48.5909" lon="1.65487">
        <ele>126.4</ele>
        <time>2010-01-01T00:00:00Z</time>
      </trkpt>
      <trkpt lat="48.59088" lon="1.65483">
        <ele>126.5</ele>
        <time>2010-01-01T00:00:00Z</time>
      </trkpt>
      <trkpt lat="48.59088" lon="1.65483">
        <ele>126.5</ele>
        <time>2010-01-01T00:00:00Z</time>
      </trkpt>
      <trkpt lat="48.59059" lon="1.65433">
        <ele>126.8</ele>
        <time>2010-01-01T00:00:00Z</time>
      </trkpt>
      <trkpt lat="48.59013" lon="1.65339">
        <ele>128.5</ele>
        <time>2010-01-01T00:00:00Z</time>
      </trkpt>
      <trkpt lat="48.59008" lon="1.65328">
        <ele>128.9</ele>
        <time>2010-01-01T00:00:00Z</time>
      </trkpt>
      <trkpt lat="48.59008" lon="1.65328">
        <ele>128.9</ele>
        <time>2010-01-01T00:00:00Z</time>
      </trkpt>
      <trkpt lat="48.58973" lon="1.65258">
        <ele>129.3</ele>
        <time>2010-01-01T00:00:00Z</time>
      </trkpt>
      <trkpt lat="48.58942" lon="1.65191">
        <ele>130</ele>
        <time>2010-01-01T00:00:00Z</time>
      </trkpt>
      <trkpt lat="48.58932" lon="1.65169">
        <ele>130</ele>
        <time>2010-01-01T00:00:00Z</time>
      </trkpt>
      <trkpt lat="48.58932" lon="1.65169">
        <ele>130</ele>
        <time>2010-01-01T00:00:00Z</time>
      </trkpt>
      <trkpt lat="48.58929" lon="1.65164">
        <ele>130.4</ele>
        <time>2010-01-01T00:00:00Z</time>
      </trkpt>
      <trkpt lat="48.58906" lon="1.65123">
        <ele>131.5</ele>
        <time>2010-01-01T00:00:00Z</time>
      </trkpt>
      <trkpt lat="48.58889" lon="1.65096">
        <ele>131.9</ele>
        <time>2010-01-01T00:00:00Z</time>
      </trkpt>
      <trkpt lat="48.58849" lon="1.65039">
        <ele>133.7</ele>
        <time>2010-01-01T00:00:00Z</time>
      </trkpt>
      <trkpt lat="48.5884" lon="1.65025">
        <ele>134.2</ele>
        <time>2010-01-01T00:00:00Z</time>
      </trkpt>
      <trkpt lat="48.5884" lon="1.65025">
        <ele>134.2</ele>
        <time>2010-01-01T00:00:00Z</time>
      </trkpt>
      <trkpt lat="48.58811" lon="1.64977">
        <ele>138.7</ele>
        <time>2010-01-01T00:00:00Z</time>
      </trkpt>
      <trkpt lat="48.58775" lon="1.64929">
        <ele>141.4</ele>
        <time>2010-01-01T00:00:00Z</time>
      </trkpt>
      <trkpt lat="48.58766" lon="1.64918">
        <ele>142.5</ele>
        <time>2010-01-01T00:00:00Z</time>
      </trkpt>
      <trkpt lat="48.58766" lon="1.64918">
        <ele>142.5</ele>
        <time>2010-01-01T00:00:00Z</time>
      </trkpt>
      <trkpt lat="48.58765" lon="1.64917">
        <ele>142.7</ele>
        <time>2010-01-01T00:00:00Z</time>
      </trkpt>
      <trkpt lat="48.58752" lon="1.64908">
        <ele>145.1</ele>
        <time>2010-01-01T00:00:00Z</time>
      </trkpt>
      <trkpt lat="48.58731" lon="1.64894">
        <ele>147.1</ele>
        <time>2010-01-01T00:00:00Z</time>
      </trkpt>
      <trkpt lat="48.58714" lon="1.64877">
        <ele>147.9</ele>
        <time>2010-01-01T00:00:00Z</time>
      </trkpt>
      <trkpt lat="48.58712" lon="1.64875">
        <ele>148</ele>
        <time>2010-01-01T00:00:00Z</time>
      </trkpt>
      <trkpt lat="48.58712" lon="1.64875">
        <ele>148</ele>
        <time>2010-01-01T00:00:00Z</time>
      </trkpt>
      <trkpt lat="48.58708" lon="1.64868">
        <ele>148.3</ele>
        <time>2010-01-01T00:00:00Z</time>
      </trkpt>
      <trkpt lat="48.58701" lon="1.64855">
        <ele>148.7</ele>
        <time>2010-01-01T00:00:00Z</time>
      </trkpt>
      <trkpt lat="48.58696" lon="1.64839">
        <ele>149.2</ele>
        <time>2010-01-01T00:00:00Z</time>
      </trkpt>
      <trkpt lat="48.58684" lon="1.64787">
        <ele>152.4</ele>
        <time>2010-01-01T00:00:00Z</time>
      </trkpt>
      <trkpt lat="48.58682" lon="1.64779">
        <ele>152.6</ele>
        <time>2010-01-01T00:00:00Z</time>
      </trkpt>
      <trkpt lat="48.58677" lon="1.64769">
        <ele>152.9</ele>
        <time>2010-01-01T00:00:00Z</time>
      </trkpt>
      <trkpt lat="48.58669" lon="1.64754">
        <ele>153.7</ele>
        <time>2010-01-01T00:00:00Z</time>
      </trkpt>
      <trkpt lat="48.58667" lon="1.64751">
        <ele>153.9</ele>
        <time>2010-01-01T00:00:00Z</time>
      </trkpt>
      <trkpt lat="48.58667" lon="1.64751">
        <ele>153.9</ele>
        <time>2010-01-01T00:00:00Z</time>
      </trkpt>
      <trkpt lat="48.58662" lon="1.64744">
        <ele>154.2</ele>
        <time>2010-01-01T00:00:00Z</time>
      </trkpt>
      <trkpt lat="48.58657" lon="1.64738">
        <ele>154.3</ele>
        <time>2010-01-01T00:00:00Z</time>
      </trkpt>
      <trkpt lat="48.58646" lon="1.64729">
        <ele>154.5</ele>
        <time>2010-01-01T00:00:00Z</time>
      </trkpt>
      <trkpt lat="48.58638" lon="1.64725">
        <ele>154.6</ele>
        <time>2010-01-01T00:00:00Z</time>
      </trkpt>
      <trkpt lat="48.58607" lon="1.64713">
        <ele>154.9</ele>
        <time>2010-01-01T00:00:00Z</time>
      </trkpt>
      <trkpt lat="48.5858" lon="1.64697">
        <ele>157.2</ele>
        <time>2010-01-01T00:00:00Z</time>
      </trkpt>
      <trkpt lat="48.58565" lon="1.64687">
        <ele>157.5</ele>
        <time>2010-01-01T00:00:00Z</time>
      </trkpt>
      <trkpt lat="48.58552" lon="1.64677">
        <ele>157.9</ele>
        <time>2010-01-01T00:00:00Z</time>
      </trkpt>
      <trkpt lat="48.5854" lon="1.64668">
        <ele>158.4</ele>
        <time>2010-01-01T00:00:00Z</time>
      </trkpt>
      <trkpt lat="48.58535" lon="1.64663">
        <ele>158.5</ele>
        <time>2010-01-01T00:00:00Z</time>
      </trkpt>
      <trkpt lat="48.58535" lon="1.64663">
        <ele>158.5</ele>
        <time>2010-01-01T00:00:00Z</time>
      </trkpt>
      <trkpt lat="48.58535" lon="1.64664">
        <ele>158.5</ele>
        <time>2010-01-01T00:00:00Z</time>
      </trkpt>
      <trkpt lat="48.58514" lon="1.64649">
        <ele>159.2</ele>
        <time>2010-01-01T00:00:00Z</time>
      </trkpt>
      <trkpt lat="48.58502" lon="1.64643">
        <ele>159.2</ele>
        <time>2010-01-01T00:00:00Z</time>
      </trkpt>
      <trkpt lat="48.58482" lon="1.64636">
        <ele>159.5</ele>
        <time>2010-01-01T00:00:00Z</time>
      </trkpt>
      <trkpt lat="48.58469" lon="1.64631">
        <ele>159.2</ele>
        <time>2010-01-01T00:00:00Z</time>
      </trkpt>
      <trkpt lat="48.58449" lon="1.64618">
        <ele>158.8</ele>
        <time>2010-01-01T00:00:00Z</time>
      </trkpt>
      <trkpt lat="48.5844" lon="1.64614">
        <ele>158.6</ele>
        <time>2010-01-01T00:00:00Z</time>
      </trkpt>
      <trkpt lat="48.58432" lon="1.64609">
        <ele>158.4</ele>
        <time>2010-01-01T00:00:00Z</time>
      </trkpt>
      <trkpt lat="48.58399" lon="1.64587">
        <ele>157.1</ele>
        <time>2010-01-01T00:00:00Z</time>
      </trkpt>
      <trkpt lat="48.5838" lon="1.64574">
        <ele>155.5</ele>
        <time>2010-01-01T00:00:00Z</time>
      </trkpt>
      <trkpt lat="48.5838" lon="1.64574">
        <ele>155.5</ele>
        <time>2010-01-01T00:00:00Z</time>
      </trkpt>
      <trkpt lat="48.58378" lon="1.64573">
        <ele>155.5</ele>
        <time>2010-01-01T00:00:00Z</time>
      </trkpt>
      <trkpt lat="48.58363" lon="1.64567">
        <ele>155.4</ele>
        <time>2010-01-01T00:00:00Z</time>
      </trkpt>
      <trkpt lat="48.5834" lon="1.64559">
        <ele>155.3</ele>
        <time>2010-01-01T00:00:00Z</time>
      </trkpt>
      <trkpt lat="48.58322" lon="1.64555">
        <ele>155</ele>
        <time>2010-01-01T00:00:00Z</time>
      </trkpt>
      <trkpt lat="48.58321" lon="1.64555">
        <ele>155</ele>
        <time>2010-01-01T00:00:00Z</time>
      </trkpt>
      <trkpt lat="48.58296" lon="1.64549">
        <ele>154.9</ele>
        <time>2010-01-01T00:00:00Z</time>
      </trkpt>
      <trkpt lat="48.58276" lon="1.64543">
        <ele>154.8</ele>
        <time>2010-01-01T00:00:00Z</time>
      </trkpt>
      <trkpt lat="48.58242" lon="1.64531">
        <ele>153.4</ele>
        <time>2010-01-01T00:00:00Z</time>
      </trkpt>
      <trkpt lat="48.58209" lon="1.64517">
        <ele>152.5</ele>
        <time>2010-01-01T00:00:00Z</time>
      </trkpt>
      <trkpt lat="48.58203" lon="1.64515">
        <ele>152.2</ele>
        <time>2010-01-01T00:00:00Z</time>
      </trkpt>
      <trkpt lat="48.58203" lon="1.64515">
        <ele>152.2</ele>
        <time>2010-01-01T00:00:00Z</time>
      </trkpt>
      <trkpt lat="48.58151" lon="1.64498">
        <ele>148.3</ele>
        <time>2010-01-01T00:00:00Z</time>
      </trkpt>
      <trkpt lat="48.58069" lon="1.64462">
        <ele>146.5</ele>
        <time>2010-01-01T00:00:00Z</time>
      </trkpt>
      <trkpt lat="48.58069" lon="1.64461">
        <ele>146.5</ele>
        <time>2010-01-01T00:00:00Z</time>
      </trkpt>
      <trkpt lat="48.58053" lon="1.64456">
        <ele>146.5</ele>
        <time>2010-01-01T00:00:00Z</time>
      </trkpt>
      <trkpt lat="48.58053" lon="1.64456">
        <ele>146.5</ele>
        <time>2010-01-01T00:00:00Z</time>
      </trkpt>
      <trkpt lat="48.58036" lon="1.6445">
        <ele>146.4</ele>
        <time>2010-01-01T00:00:00Z</time>
      </trkpt>
      <trkpt lat="48.58001" lon="1.64438">
        <ele>145.9</ele>
        <time>2010-01-01T00:00:00Z</time>
      </trkpt>
      <trkpt lat="48.57976" lon="1.64431">
        <ele>145.4</ele>
        <time>2010-01-01T00:00:00Z</time>
      </trkpt>
      <trkpt lat="48.57956" lon="1.64427">
        <ele>145.1</ele>
        <time>2010-01-01T00:00:00Z</time>
      </trkpt>
      <trkpt lat="48.57927" lon="1.64424">
        <ele>144.1</ele>
        <time>2010-01-01T00:00:00Z</time>
      </trkpt>
      <trkpt lat="48.57916" lon="1.64424">
        <ele>143.2</ele>
        <time>2010-01-01T00:00:00Z</time>
      </trkpt>
      <trkpt lat="48.57897" lon="1.6442">
        <ele>143.3</ele>
        <time>2010-01-01T00:00:00Z</time>
      </trkpt>
      <trkpt lat="48.57897" lon="1.6442">
        <ele>143.3</ele>
        <time>2010-01-01T00:00:00Z</time>
      </trkpt>
      <trkpt lat="48.57897" lon="1.6442">
        <ele>143.3</ele>
        <time>2010-01-01T00:00:00Z</time>
      </trkpt>
      <trkpt lat="48.57894" lon="1.6442">
        <ele>143.3</ele>
        <time>2010-01-01T00:00:00Z</time>
      </trkpt>
      <trkpt lat="48.57885" lon="1.64416">
        <ele>141.1</ele>
        <time>2010-01-01T00:00:00Z</time>
      </trkpt>
      <trkpt lat="48.57872" lon="1.64408">
        <ele>140.8</ele>
        <time>2010-01-01T00:00:00Z</time>
      </trkpt>
      <trkpt lat="48.57859" lon="1.64398">
        <ele>140.6</ele>
        <time>2010-01-01T00:00:00Z</time>
      </trkpt>
      <trkpt lat="48.57852" lon="1.6439">
        <ele>140.4</ele>
        <time>2010-01-01T00:00:00Z</time>
      </trkpt>
      <trkpt lat="48.57852" lon="1.6439">
        <ele>140.4</ele>
        <time>2010-01-01T00:00:00Z</time>
      </trkpt>
      <trkpt lat="48.57848" lon="1.64386">
        <ele>140.3</ele>
        <time>2010-01-01T00:00:00Z</time>
      </trkpt>
      <trkpt lat="48.57845" lon="1.64382">
        <ele>140.2</ele>
        <time>2010-01-01T00:00:00Z</time>
      </trkpt>
      <trkpt lat="48.5782" lon="1.64347">
        <ele>138</ele>
        <time>2010-01-01T00:00:00Z</time>
      </trkpt>
      <trkpt lat="48.57812" lon="1.64335">
        <ele>137.9</ele>
        <time>2010-01-01T00:00:00Z</time>
      </trkpt>
      <trkpt lat="48.57812" lon="1.64335">
        <ele>137.9</ele>
        <time>2010-01-01T00:00:00Z</time>
      </trkpt>
      <trkpt lat="48.57806" lon="1.64325">
        <ele>136.9</ele>
        <time>2010-01-01T00:00:00Z</time>
      </trkpt>
      <trkpt lat="48.57798" lon="1.64315">
        <ele>136.7</ele>
        <time>2010-01-01T00:00:00Z</time>
      </trkpt>
      <trkpt lat="48.5779" lon="1.64307">
        <ele>136.6</ele>
        <time>2010-01-01T00:00:00Z</time>
      </trkpt>
      <trkpt lat="48.57786" lon="1.64304">
        <ele>136.5</ele>
        <time>2010-01-01T00:00:00Z</time>
      </trkpt>
      <trkpt lat="48.57786" lon="1.64304">
        <ele>136.5</ele>
        <time>2010-01-01T00:00:00Z</time>
      </trkpt>
      <trkpt lat="48.5778" lon="1.643">
        <ele>136.4</ele>
        <time>2010-01-01T00:00:00Z</time>
      </trkpt>
      <trkpt lat="48.57762" lon="1.64289">
        <ele>136.2</ele>
        <time>2010-01-01T00:00:00Z</time>
      </trkpt>
      <trkpt lat="48.57755" lon="1.64283">
        <ele>136</ele>
        <time>2010-01-01T00:00:00Z</time>
      </trkpt>
      <trkpt lat="48.57732" lon="1.64266">
        <ele>134.9</ele>
        <time>2010-01-01T00:00:00Z</time>
      </trkpt>
      <trkpt lat="48.57664" lon="1.64224">
        <ele>133.5</ele>
        <time>2010-01-01T00:00:00Z</time>
      </trkpt>
      <trkpt lat="48.57656" lon="1.64217">
        <ele>133.4</ele>
        <time>2010-01-01T00:00:00Z</time>
      </trkpt>
      <trkpt lat="48.57655" lon="1.6422">
        <ele>133.4</ele>
        <time>2010-01-01T00:00:00Z</time>
      </trkpt>
      <trkpt lat="48.57655" lon="1.6422">
        <ele>133.4</ele>
        <time>2010-01-01T00:00:00Z</time>
      </trkpt>
      <trkpt lat="48.57656" lon="1.64217">
        <ele>133.4</ele>
        <time>2010-01-01T00:00:00Z</time>
      </trkpt>
      <trkpt lat="48.57646" lon="1.64211">
        <ele>133.3</ele>
        <time>2010-01-01T00:00:00Z</time>
      </trkpt>
      <trkpt lat="48.57632" lon="1.64202">
        <ele>133.2</ele>
        <time>2010-01-01T00:00:00Z</time>
      </trkpt>
      <trkpt lat="48.57615" lon="1.64186">
        <ele>133.2</ele>
        <time>2010-01-01T00:00:00Z</time>
      </trkpt>
      <trkpt lat="48.57582" lon="1.64151">
        <ele>132.9</ele>
        <time>2010-01-01T00:00:00Z</time>
      </trkpt>
      <trkpt lat="48.57542" lon="1.64113">
        <ele>132.7</ele>
        <time>2010-01-01T00:00:00Z</time>
      </trkpt>
      <trkpt lat="48.57491" lon="1.64062">
        <ele>131.6</ele>
        <time>2010-01-01T00:00:00Z</time>
      </trkpt>
      <trkpt lat="48.57386" lon="1.63956">
        <ele>130.3</ele>
        <time>2010-01-01T00:00:00Z</time>
      </trkpt>
      <trkpt lat="48.57383" lon="1.63953">
        <ele>130.3</ele>
        <time>2010-01-01T00:00:00Z</time>
      </trkpt>
      <trkpt lat="48.57383" lon="1.63953">
        <ele>130.3</ele>
        <time>2010-01-01T00:00:00Z</time>
      </trkpt>
      <trkpt lat="48.57361" lon="1.63929">
        <ele>130.2</ele>
        <time>2010-01-01T00:00:00Z</time>
      </trkpt>
      <trkpt lat="48.57284" lon="1.63856">
        <ele>129.4</ele>
        <time>2010-01-01T00:00:00Z</time>
      </trkpt>
      <trkpt lat="48.57249" lon="1.63819">
        <ele>129.1</ele>
        <time>2010-01-01T00:00:00Z</time>
      </trkpt>
      <trkpt lat="48.57227" lon="1.63792">
        <ele>129.2</ele>
        <time>2010-01-01T00:00:00Z</time>
      </trkpt>
      <trkpt lat="48.57203" lon="1.63763">
        <ele>129.2</ele>
        <time>2010-01-01T00:00:00Z</time>
      </trkpt>
      <trkpt lat="48.57193" lon="1.6375">
        <ele>129.3</ele>
        <time>2010-01-01T00:00:00Z</time>
      </trkpt>
      <trkpt lat="48.57193" lon="1.6375">
        <ele>129.3</ele>
        <time>2010-01-01T00:00:00Z</time>
      </trkpt>
      <trkpt lat="48.57188" lon="1.63743">
        <ele>129.3</ele>
        <time>2010-01-01T00:00:00Z</time>
      </trkpt>
      <trkpt lat="48.57172" lon="1.63711">
        <ele>129.5</ele>
        <time>2010-01-01T00:00:00Z</time>
      </trkpt>
      <trkpt lat="48.57166" lon="1.63694">
        <ele>130.4</ele>
        <time>2010-01-01T00:00:00Z</time>
      </trkpt>
      <trkpt lat="48.57158" lon="1.63673">
        <ele>130.3</ele>
        <time>2010-01-01T00:00:00Z</time>
      </trkpt>
      <trkpt lat="48.57153" lon="1.63653">
        <ele>131.3</ele>
        <time>2010-01-01T00:00:00Z</time>
      </trkpt>
      <trkpt lat="48.57149" lon="1.63635">
        <ele>131.9</ele>
        <time>2010-01-01T00:00:00Z</time>
      </trkpt>
      <trkpt lat="48.57149" lon="1.63635">
        <ele>131.9</ele>
        <time>2010-01-01T00:00:00Z</time>
      </trkpt>
      <trkpt lat="48.57147" lon="1.63621">
        <ele>132</ele>
        <time>2010-01-01T00:00:00Z</time>
      </trkpt>
      <trkpt lat="48.57133" lon="1.63536">
        <ele>132.1</ele>
        <time>2010-01-01T00:00:00Z</time>
      </trkpt>
      <trkpt lat="48.57119" lon="1.63476">
        <ele>130.9</ele>
        <time>2010-01-01T00:00:00Z</time>
      </trkpt>
      <trkpt lat="48.5711" lon="1.63444">
        <ele>130.6</ele>
        <time>2010-01-01T00:00:00Z</time>
      </trkpt>
      <trkpt lat="48.57101" lon="1.63411">
        <ele>129.9</ele>
        <time>2010-01-01T00:00:00Z</time>
      </trkpt>
      <trkpt lat="48.57101" lon="1.63411">
        <ele>129.9</ele>
        <time>2010-01-01T00:00:00Z</time>
      </trkpt>
      <trkpt lat="48.57099" lon="1.63406">
        <ele>129.9</ele>
        <time>2010-01-01T00:00:00Z</time>
      </trkpt>
      <trkpt lat="48.57091" lon="1.63386">
        <ele>129.7</ele>
        <time>2010-01-01T00:00:00Z</time>
      </trkpt>
      <trkpt lat="48.57073" lon="1.63343">
        <ele>129</ele>
        <time>2010-01-01T00:00:00Z</time>
      </trkpt>
      <trkpt lat="48.57063" lon="1.63318">
        <ele>127.9</ele>
        <time>2010-01-01T00:00:00Z</time>
      </trkpt>
      <trkpt lat="48.5706" lon="1.63311">
        <ele>127.7</ele>
        <time>2010-01-01T00:00:00Z</time>
      </trkpt>
      <trkpt lat="48.5706" lon="1.63311">
        <ele>127.7</ele>
        <time>2010-01-01T00:00:00Z</time>
      </trkpt>
      <trkpt lat="48.57059" lon="1.63306">
        <ele>127.7</ele>
        <time>2010-01-01T00:00:00Z</time>
      </trkpt>
      <trkpt lat="48.57055" lon="1.63293">
        <ele>127.5</ele>
        <time>2010-01-01T00:00:00Z</time>
      </trkpt>
      <trkpt lat="48.57045" lon="1.63257">
        <ele>127.1</ele>
        <time>2010-01-01T00:00:00Z</time>
      </trkpt>
      <trkpt lat="48.57035" lon="1.63212">
        <ele>126.9</ele>
        <time>2010-01-01T00:00:00Z</time>
      </trkpt>
      <trkpt lat="48.57023" lon="1.63147">
        <ele>127.8</ele>
        <time>2010-01-01T00:00:00Z</time>
      </trkpt>
      <trkpt lat="48.57015" lon="1.63093">
        <ele>128.7</ele>
        <time>2010-01-01T00:00:00Z</time>
      </trkpt>
      <trkpt lat="48.57005" lon="1.63042">
        <ele>130</ele>
        <time>2010-01-01T00:00:00Z</time>
      </trkpt>
      <trkpt lat="48.56987" lon="1.62937">
        <ele>129.6</ele>
        <time>2010-01-01T00:00:00Z</time>
      </trkpt>
      <trkpt lat="48.56987" lon="1.62937">
        <ele>129.6</ele>
        <time>2010-01-01T00:00:00Z</time>
      </trkpt>
      <trkpt lat="48.56987" lon="1.62936">
        <ele>129.6</ele>
        <time>2010-01-01T00:00:00Z</time>
      </trkpt>
      <trkpt lat="48.56981" lon="1.6291">
        <ele>129.3</ele>
        <time>2010-01-01T00:00:00Z</time>
      </trkpt>
      <trkpt lat="48.56957" lon="1.62817">
        <ele>129</ele>
        <time>2010-01-01T00:00:00Z</time>
      </trkpt>
      <trkpt lat="48.56946" lon="1.6277">
        <ele>129.3</ele>
        <time>2010-01-01T00:00:00Z</time>
      </trkpt>
      <trkpt lat="48.56937" lon="1.62722">
        <ele>130</ele>
        <time>2010-01-01T00:00:00Z</time>
      </trkpt>
      <trkpt lat="48.56935" lon="1.62708">
        <ele>130.1</ele>
        <time>2010-01-01T00:00:00Z</time>
      </trkpt>
      <trkpt lat="48.56935" lon="1.62708">
        <ele>130.1</ele>
        <time>2010-01-01T00:00:00Z</time>
      </trkpt>
      <trkpt lat="48.56934" lon="1.62695">
        <ele>130.1</ele>
        <time>2010-01-01T00:00:00Z</time>
      </trkpt>
      <trkpt lat="48.56927" lon="1.62647">
        <ele>130.4</ele>
        <time>2010-01-01T00:00:00Z</time>
      </trkpt>
      <trkpt lat="48.56919" lon="1.62591">
        <ele>130.2</ele>
        <time>2010-01-01T00:00:00Z</time>
      </trkpt>
      <trkpt lat="48.56914" lon="1.62566">
        <ele>128.9</ele>
        <time>2010-01-01T00:00:00Z</time>
      </trkpt>
      <trkpt lat="48.56907" lon="1.62546">
        <ele>128.5</ele>
        <time>2010-01-01T00:00:00Z</time>
      </trkpt>
      <trkpt lat="48.56909" lon="1.62544">
        <ele>128.5</ele>
        <time>2010-01-01T00:00:00Z</time>
      </trkpt>
      <trkpt lat="48.56909" lon="1.62544">
        <ele>128.5</ele>
        <time>2010-01-01T00:00:00Z</time>
      </trkpt>
      <trkpt lat="48.56907" lon="1.62546">
        <ele>128.5</ele>
        <time>2010-01-01T00:00:00Z</time>
      </trkpt>
      <trkpt lat="48.56904" lon="1.6255">
        <ele>128.4</ele>
        <time>2010-01-01T00:00:00Z</time>
      </trkpt>
      <trkpt lat="48.56905" lon="1.62541">
        <ele>128.4</ele>
        <time>2010-01-01T00:00:00Z</time>
      </trkpt>
      <trkpt lat="48.56905" lon="1.62531">
        <ele>128.6</ele>
        <time>2010-01-01T00:00:00Z</time>
      </trkpt>
      <trkpt lat="48.56904" lon="1.62516">
        <ele>129</ele>
        <time>2010-01-01T00:00:00Z</time>
      </trkpt>
      <trkpt lat="48.56899" lon="1.625">
        <ele>129.5</ele>
        <time>2010-01-01T00:00:00Z</time>
      </trkpt>
      <trkpt lat="48.56881" lon="1.62443">
        <ele>129</ele>
        <time>2010-01-01T00:00:00Z</time>
      </trkpt>
      <trkpt lat="48.56876" lon="1.6243">
        <ele>128.9</ele>
        <time>2010-01-01T00:00:00Z</time>
      </trkpt>
      <trkpt lat="48.56855" lon="1.62394">
        <ele>129.2</ele>
        <time>2010-01-01T00:00:00Z</time>
      </trkpt>
      <trkpt lat="48.56846" lon="1.6238">
        <ele>129.3</ele>
        <time>2010-01-01T00:00:00Z</time>
      </trkpt>
      <trkpt lat="48.56799" lon="1.62319">
        <ele>125.5</ele>
        <time>2010-01-01T00:00:00Z</time>
      </trkpt>
      <trkpt lat="48.56788" lon="1.62303">
        <ele>124.9</ele>
        <time>2010-01-01T00:00:00Z</time>
      </trkpt>
      <trkpt lat="48.5677" lon="1.62278">
        <ele>124.3</ele>
        <time>2010-01-01T00:00:00Z</time>
      </trkpt>
      <trkpt lat="48.56709" lon="1.62198">
        <ele>120.8</ele>
        <time>2010-01-01T00:00:00Z</time>
      </trkpt>
      <trkpt lat="48.567" lon="1.62185">
        <ele>120.4</ele>
        <time>2010-01-01T00:00:00Z</time>
      </trkpt>
      <trkpt lat="48.56696" lon="1.62178">
        <ele>120.1</ele>
        <time>2010-01-01T00:00:00Z</time>
      </trkpt>
      <trkpt lat="48.56692" lon="1.62168">
        <ele>119.7</ele>
        <time>2010-01-01T00:00:00Z</time>
      </trkpt>
      <trkpt lat="48.56688" lon="1.62159">
        <ele>118.7</ele>
        <time>2010-01-01T00:00:00Z</time>
      </trkpt>
      <trkpt lat="48.56685" lon="1.62148">
        <ele>118.6</ele>
        <time>2010-01-01T00:00:00Z</time>
      </trkpt>
      <trkpt lat="48.56682" lon="1.62136">
        <ele>118.5</ele>
        <time>2010-01-01T00:00:00Z</time>
      </trkpt>
      <trkpt lat="48.5668" lon="1.62119">
        <ele>118.1</ele>
        <time>2010-01-01T00:00:00Z</time>
      </trkpt>
      <trkpt lat="48.56676" lon="1.62123">
        <ele>118.1</ele>
        <time>2010-01-01T00:00:00Z</time>
      </trkpt>
      <trkpt lat="48.56676" lon="1.62123">
        <ele>118.1</ele>
        <time>2010-01-01T00:00:00Z</time>
      </trkpt>
      <trkpt lat="48.5668" lon="1.62119">
        <ele>118.1</ele>
        <time>2010-01-01T00:00:00Z</time>
      </trkpt>
      <trkpt lat="48.5668" lon="1.62104">
        <ele>117.4</ele>
        <time>2010-01-01T00:00:00Z</time>
      </trkpt>
      <trkpt lat="48.56682" lon="1.62055">
        <ele>115.5</ele>
        <time>2010-01-01T00:00:00Z</time>
      </trkpt>
      <trkpt lat="48.56685" lon="1.62011">
        <ele>114.4</ele>
        <time>2010-01-01T00:00:00Z</time>
      </trkpt>
      <trkpt lat="48.5669" lon="1.61993">
        <ele>113.3</ele>
        <time>2010-01-01T00:00:00Z</time>
      </trkpt>
      <trkpt lat="48.56683" lon="1.61985">
        <ele>113.1</ele>
        <time>2010-01-01T00:00:00Z</time>
      </trkpt>
      <trkpt lat="48.56683" lon="1.61985">
        <ele>113.1</ele>
        <time>2010-01-01T00:00:00Z</time>
      </trkpt>
      <trkpt lat="48.56659" lon="1.61951">
        <ele>110.5</ele>
        <time>2010-01-01T00:00:00Z</time>
      </trkpt>
      <trkpt lat="48.5662" lon="1.61903">
        <ele>109.9</ele>
        <time>2010-01-01T00:00:00Z</time>
      </trkpt>
      <trkpt lat="48.56565" lon="1.61842">
        <ele>109.2</ele>
        <time>2010-01-01T00:00:00Z</time>
      </trkpt>
      <trkpt lat="48.56565" lon="1.61842">
        <ele>109.2</ele>
        <time>2010-01-01T00:00:00Z</time>
      </trkpt>
      <trkpt lat="48.56561" lon="1.61838">
        <ele>109.2</ele>
        <time>2010-01-01T00:00:00Z</time>
      </trkpt>
      <trkpt lat="48.56585" lon="1.61738">
        <ele>107</ele>
        <time>2010-01-01T00:00:00Z</time>
      </trkpt>
      <trkpt lat="48.56589" lon="1.61725">
        <ele>107</ele>
        <time>2010-01-01T00:00:00Z</time>
      </trkpt>
      <trkpt lat="48.56584" lon="1.61719">
        <ele>106.9</ele>
        <time>2010-01-01T00:00:00Z</time>
      </trkpt>
      <trkpt lat="48.56583" lon="1.61718">
        <ele>107.4</ele>
        <time>2010-01-01T00:00:00Z</time>
      </trkpt>
      <trkpt lat="48.56583" lon="1.61718">
        <ele>107.4</ele>
        <time>2010-01-01T00:00:00Z</time>
      </trkpt>
      <trkpt lat="48.56558" lon="1.6169">
        <ele>107.3</ele>
        <time>2010-01-01T00:00:00Z</time>
      </trkpt>
      <trkpt lat="48.56555" lon="1.61687">
        <ele>107.3</ele>
        <time>2010-01-01T00:00:00Z</time>
      </trkpt>
      <trkpt lat="48.56554" lon="1.61686">
        <ele>107.4</ele>
        <time>2010-01-01T00:00:00Z</time>
      </trkpt>
      <trkpt lat="48.56553" lon="1.61684">
        <ele>107.4</ele>
        <time>2010-01-01T00:00:00Z</time>
      </trkpt>
      <trkpt lat="48.56551" lon="1.61682">
        <ele>107.4</ele>
        <time>2010-01-01T00:00:00Z</time>
      </trkpt>
      <trkpt lat="48.56548" lon="1.61678">
        <ele>107.5</ele>
        <time>2010-01-01T00:00:00Z</time>
      </trkpt>
      <trkpt lat="48.5654" lon="1.61692">
        <ele>107.9</ele>
        <time>2010-01-01T00:00:00Z</time>
      </trkpt>
      <trkpt lat="48.56528" lon="1.61713">
        <ele>108.4</ele>
        <time>2010-01-01T00:00:00Z</time>
      </trkpt>
      <trkpt lat="48.56515" lon="1.61732">
        <ele>109.2</ele>
        <time>2010-01-01T00:00:00Z</time>
      </trkpt>
      <trkpt lat="48.56509" lon="1.61745">
        <ele>110</ele>
        <time>2010-01-01T00:00:00Z</time>
      </trkpt>
      <trkpt lat="48.56503" lon="1.61761">
        <ele>110.3</ele>
        <time>2010-01-01T00:00:00Z</time>
      </trkpt>
      <trkpt lat="48.56482" lon="1.61836">
        <ele>110.2</ele>
        <time>2010-01-01T00:00:00Z</time>
      </trkpt>
      <trkpt lat="48.56474" lon="1.61862">
        <ele>110.3</ele>
        <time>2010-01-01T00:00:00Z</time>
      </trkpt>
      <trkpt lat="48.56463" lon="1.61889">
        <ele>110.4</ele>
        <time>2010-01-01T00:00:00Z</time>
      </trkpt>
      <trkpt lat="48.56463" lon="1.61889">
        <ele>110.4</ele>
        <time>2010-01-01T00:00:00Z</time>
      </trkpt>
      <trkpt lat="48.56461" lon="1.61895">
        <ele>110.4</ele>
        <time>2010-01-01T00:00:00Z</time>
      </trkpt>
      <trkpt lat="48.56448" lon="1.61915">
        <ele>110.8</ele>
        <time>2010-01-01T00:00:00Z</time>
      </trkpt>
      <trkpt lat="48.5644" lon="1.61923">
        <ele>110.3</ele>
        <time>2010-01-01T00:00:00Z</time>
      </trkpt>
      <trkpt lat="48.56425" lon="1.61931">
        <ele>110.7</ele>
        <time>2010-01-01T00:00:00Z</time>
      </trkpt>
      <trkpt lat="48.56402" lon="1.61938">
        <ele>110.8</ele>
        <time>2010-01-01T00:00:00Z</time>
      </trkpt>
      <trkpt lat="48.56373" lon="1.61949">
        <ele>110.3</ele>
        <time>2010-01-01T00:00:00Z</time>
      </trkpt>
      <trkpt lat="48.56347" lon="1.61961">
        <ele>110.2</ele>
        <time>2010-01-01T00:00:00Z</time>
      </trkpt>
      <trkpt lat="48.56341" lon="1.61963">
        <ele>110.2</ele>
        <time>2010-01-01T00:00:00Z</time>
      </trkpt>
      <trkpt lat="48.56339" lon="1.61964">
        <ele>110.1</ele>
        <time>2010-01-01T00:00:00Z</time>
      </trkpt>
      <trkpt lat="48.56337" lon="1.61965">
        <ele>110.1</ele>
        <time>2010-01-01T00:00:00Z</time>
      </trkpt>
      <trkpt lat="48.56331" lon="1.61968">
        <ele>109.4</ele>
        <time>2010-01-01T00:00:00Z</time>
      </trkpt>
      <trkpt lat="48.56297" lon="1.61982">
        <ele>109.1</ele>
        <time>2010-01-01T00:00:00Z</time>
      </trkpt>
      <trkpt lat="48.5628" lon="1.61991">
        <ele>108.8</ele>
        <time>2010-01-01T00:00:00Z</time>
      </trkpt>
      <trkpt lat="48.56276" lon="1.61993">
        <ele>108.7</ele>
        <time>2010-01-01T00:00:00Z</time>
      </trkpt>
      <trkpt lat="48.56263" lon="1.62002">
        <ele>108.4</ele>
        <time>2010-01-01T00:00:00Z</time>
      </trkpt>
      <trkpt lat="48.56247" lon="1.62015">
        <ele>107.8</ele>
        <time>2010-01-01T00:00:00Z</time>
      </trkpt>
      <trkpt lat="48.56244" lon="1.62017">
        <ele>107.8</ele>
        <time>2010-01-01T00:00:00Z</time>
      </trkpt>
      <trkpt lat="48.56242" lon="1.62019">
        <ele>107.8</ele>
        <time>2010-01-01T00:00:00Z</time>
      </trkpt>
      <trkpt lat="48.56207" lon="1.62045">
        <ele>107.5</ele>
        <time>2010-01-01T00:00:00Z</time>
      </trkpt>
      <trkpt lat="48.56201" lon="1.62051">
        <ele>107.5</ele>
        <time>2010-01-01T00:00:00Z</time>
      </trkpt>
      <trkpt lat="48.56173" lon="1.62083">
        <ele>107.1</ele>
        <time>2010-01-01T00:00:00Z</time>
      </trkpt>
      <trkpt lat="48.5615" lon="1.62112">
        <ele>107.4</ele>
        <time>2010-01-01T00:00:00Z</time>
      </trkpt>
      <trkpt lat="48.56126" lon="1.62145">
        <ele>107.7</ele>
        <time>2010-01-01T00:00:00Z</time>
      </trkpt>
      <trkpt lat="48.56114" lon="1.62165">
        <ele>107.8</ele>
        <time>2010-01-01T00:00:00Z</time>
      </trkpt>
      <trkpt lat="48.56116" lon="1.62167">
        <ele>108.3</ele>
        <time>2010-01-01T00:00:00Z</time>
      </trkpt>
      <trkpt lat="48.56116" lon="1.62167">
        <ele>108.3</ele>
        <time>2010-01-01T00:00:00Z</time>
      </trkpt>
      <trkpt lat="48.56114" lon="1.62165">
        <ele>107.8</ele>
        <time>2010-01-01T00:00:00Z</time>
      </trkpt>
      <trkpt lat="48.56101" lon="1.62159">
        <ele>107.8</ele>
        <time>2010-01-01T00:00:00Z</time>
      </trkpt>
      <trkpt lat="48.56077" lon="1.62148">
        <ele>107.3</ele>
        <time>2010-01-01T00:00:00Z</time>
      </trkpt>
      <trkpt lat="48.56051" lon="1.62133">
        <ele>106.9</ele>
        <time>2010-01-01T00:00:00Z</time>
      </trkpt>
      <trkpt lat="48.56044" lon="1.62128">
        <ele>106.8</ele>
        <time>2010-01-01T00:00:00Z</time>
      </trkpt>
      <trkpt lat="48.5604" lon="1.62126">
        <ele>106.8</ele>
        <time>2010-01-01T00:00:00Z</time>
      </trkpt>
      <trkpt lat="48.56037" lon="1.62122">
        <ele>106.7</ele>
        <time>2010-01-01T00:00:00Z</time>
      </trkpt>
      <trkpt lat="48.56033" lon="1.62119">
        <ele>106.7</ele>
        <time>2010-01-01T00:00:00Z</time>
      </trkpt>
      <trkpt lat="48.56004" lon="1.6209">
        <ele>106.2</ele>
        <time>2010-01-01T00:00:00Z</time>
      </trkpt>
      <trkpt lat="48.55993" lon="1.62082">
        <ele>105.9</ele>
        <time>2010-01-01T00:00:00Z</time>
      </trkpt>
      <trkpt lat="48.55982" lon="1.62075">
        <ele>105.7</ele>
        <time>2010-01-01T00:00:00Z</time>
      </trkpt>
      <trkpt lat="48.55959" lon="1.62066">
        <ele>105.5</ele>
        <time>2010-01-01T00:00:00Z</time>
      </trkpt>
      <trkpt lat="48.55948" lon="1.62063">
        <ele>105.4</ele>
        <time>2010-01-01T00:00:00Z</time>
      </trkpt>
      <trkpt lat="48.55925" lon="1.62063">
        <ele>105.3</ele>
        <time>2010-01-01T00:00:00Z</time>
      </trkpt>
      <trkpt lat="48.55892" lon="1.62069">
        <ele>105.2</ele>
        <time>2010-01-01T00:00:00Z</time>
      </trkpt>
      <trkpt lat="48.5587" lon="1.62077">
        <ele>105.4</ele>
        <time>2010-01-01T00:00:00Z</time>
      </trkpt>
      <trkpt lat="48.55854" lon="1.62084">
        <ele>105.7</ele>
        <time>2010-01-01T00:00:00Z</time>
      </trkpt>
      <trkpt lat="48.55844" lon="1.62091">
        <ele>105.8</ele>
        <time>2010-01-01T00:00:00Z</time>
      </trkpt>
      <trkpt lat="48.55834" lon="1.621">
        <ele>105.8</ele>
        <time>2010-01-01T00:00:00Z</time>
      </trkpt>
      <trkpt lat="48.55824" lon="1.6211">
        <ele>106.6</ele>
        <time>2010-01-01T00:00:00Z</time>
      </trkpt>
      <trkpt lat="48.55801" lon="1.62136">
        <ele>106.9</ele>
        <time>2010-01-01T00:00:00Z</time>
      </trkpt>
      <trkpt lat="48.55781" lon="1.62158">
        <ele>107.2</ele>
        <time>2010-01-01T00:00:00Z</time>
      </trkpt>
      <trkpt lat="48.55778" lon="1.62161">
        <ele>107.2</ele>
        <time>2010-01-01T00:00:00Z</time>
      </trkpt>
      <trkpt lat="48.55778" lon="1.62161">
        <ele>107.2</ele>
        <time>2010-01-01T00:00:00Z</time>
      </trkpt>
      <trkpt lat="48.55778" lon="1.62161">
        <ele>107.2</ele>
        <time>2010-01-01T00:00:00Z</time>
      </trkpt>
      <trkpt lat="48.55776" lon="1.62164">
        <ele>107.3</ele>
        <time>2010-01-01T00:00:00Z</time>
      </trkpt>
      <trkpt lat="48.55759" lon="1.62128">
        <ele>107.3</ele>
        <time>2010-01-01T00:00:00Z</time>
      </trkpt>
      <trkpt lat="48.55748" lon="1.62103">
        <ele>108.6</ele>
        <time>2010-01-01T00:00:00Z</time>
      </trkpt>
      <trkpt lat="48.5574" lon="1.62087">
        <ele>108.5</ele>
        <time>2010-01-01T00:00:00Z</time>
      </trkpt>
      <trkpt lat="48.55728" lon="1.62068">
        <ele>108.7</ele>
        <time>2010-01-01T00:00:00Z</time>
      </trkpt>
      <trkpt lat="48.55705" lon="1.62032">
        <ele>109</ele>
        <time>2010-01-01T00:00:00Z</time>
      </trkpt>
      <trkpt lat="48.55691" lon="1.62008">
        <ele>109.3</ele>
        <time>2010-01-01T00:00:00Z</time>
      </trkpt>
      <trkpt lat="48.55696" lon="1.62001">
        <ele>109.1</ele>
        <time>2010-01-01T00:00:00Z</time>
      </trkpt>
      <trkpt lat="48.55696" lon="1.62001">
        <ele>109.1</ele>
        <time>2010-01-01T00:00:00Z</time>
      </trkpt>
      <trkpt lat="48.55691" lon="1.62008">
        <ele>109.3</ele>
        <time>2010-01-01T00:00:00Z</time>
      </trkpt>
      <trkpt lat="48.55683" lon="1.62014">
        <ele>109.4</ele>
        <time>2010-01-01T00:00:00Z</time>
      </trkpt>
      <trkpt lat="48.55661" lon="1.61983">
        <ele>109.7</ele>
        <time>2010-01-01T00:00:00Z</time>
      </trkpt>
      <trkpt lat="48.55639" lon="1.6195">
        <ele>109.4</ele>
        <time>2010-01-01T00:00:00Z</time>
      </trkpt>
      <trkpt lat="48.55624" lon="1.61925">
        <ele>109.3</ele>
        <time>2010-01-01T00:00:00Z</time>
      </trkpt>
      <trkpt lat="48.55609" lon="1.619">
        <ele>108.7</ele>
        <time>2010-01-01T00:00:00Z</time>
      </trkpt>
      <trkpt lat="48.55609" lon="1.619">
        <ele>108.7</ele>
        <time>2010-01-01T00:00:00Z</time>
      </trkpt>
      <trkpt lat="48.55609" lon="1.61899">
        <ele>108.7</ele>
        <time>2010-01-01T00:00:00Z</time>
      </trkpt>
      <trkpt lat="48.55606" lon="1.61892">
        <ele>108.6</ele>
        <time>2010-01-01T00:00:00Z</time>
      </trkpt>
      <trkpt lat="48.55604" lon="1.61886">
        <ele>108.6</ele>
        <time>2010-01-01T00:00:00Z</time>
      </trkpt>
      <trkpt lat="48.55604" lon="1.6188">
        <ele>108.5</ele>
        <time>2010-01-01T00:00:00Z</time>
      </trkpt>
      <trkpt lat="48.55605" lon="1.61821">
        <ele>107.8</ele>
        <time>2010-01-01T00:00:00Z</time>
      </trkpt>
      <trkpt lat="48.55607" lon="1.61819">
        <ele>107.8</ele>
        <time>2010-01-01T00:00:00Z</time>
      </trkpt>
      <trkpt lat="48.55607" lon="1.61819">
        <ele>107.8</ele>
        <time>2010-01-01T00:00:00Z</time>
      </trkpt>
      <trkpt lat="48.55605" lon="1.61821">
        <ele>107.8</ele>
        <time>2010-01-01T00:00:00Z</time>
      </trkpt>
      <trkpt lat="48.55597" lon="1.61822">
        <ele>107.9</ele>
        <time>2010-01-01T00:00:00Z</time>
      </trkpt>
      <trkpt lat="48.55592" lon="1.61825">
        <ele>107.9</ele>
        <time>2010-01-01T00:00:00Z</time>
      </trkpt>
      <trkpt lat="48.55577" lon="1.61843">
        <ele>108.3</ele>
        <time>2010-01-01T00:00:00Z</time>
      </trkpt>
      <trkpt lat="48.55576" lon="1.61845">
        <ele>108.3</ele>
        <time>2010-01-01T00:00:00Z</time>
      </trkpt>
      <trkpt lat="48.55564" lon="1.61861">
        <ele>108.6</ele>
        <time>2010-01-01T00:00:00Z</time>
      </trkpt>
      <trkpt lat="48.55548" lon="1.61877">
        <ele>108.7</ele>
        <time>2010-01-01T00:00:00Z</time>
      </trkpt>
      <trkpt lat="48.5549" lon="1.61927">
        <ele>110.6</ele>
        <time>2010-01-01T00:00:00Z</time>
      </trkpt>
      <trkpt lat="48.5536" lon="1.62045">
        <ele>111.8</ele>
        <time>2010-01-01T00:00:00Z</time>
      </trkpt>
      <trkpt lat="48.55286" lon="1.62086">
        <ele>112.4</ele>
        <time>2010-01-01T00:00:00Z</time>
      </trkpt>
      <trkpt lat="48.55286" lon="1.62087">
        <ele>112.4</ele>
        <time>2010-01-01T00:00:00Z</time>
      </trkpt>
      <trkpt lat="48.55286" lon="1.62087">
        <ele>112.4</ele>
        <time>2010-01-01T00:00:00Z</time>
      </trkpt>
      <trkpt lat="48.55286" lon="1.62086">
        <ele>112.4</ele>
        <time>2010-01-01T00:00:00Z</time>
      </trkpt>
      <trkpt lat="48.5525" lon="1.62019">
        <ele>112.2</ele>
        <time>2010-01-01T00:00:00Z</time>
      </trkpt>
      <trkpt lat="48.55207" lon="1.61934">
        <ele>113.3</ele>
        <time>2010-01-01T00:00:00Z</time>
      </trkpt>
      <trkpt lat="48.55189" lon="1.61898">
        <ele>114.8</ele>
        <time>2010-01-01T00:00:00Z</time>
      </trkpt>
      <trkpt lat="48.55161" lon="1.61839">
        <ele>118.2</ele>
        <time>2010-01-01T00:00:00Z</time>
      </trkpt>
      <trkpt lat="48.55107" lon="1.61742">
        <ele>124.1</ele>
        <time>2010-01-01T00:00:00Z</time>
      </trkpt>
      <trkpt lat="48.55074" lon="1.61677">
        <ele>128.4</ele>
        <time>2010-01-01T00:00:00Z</time>
      </trkpt>
      <trkpt lat="48.55039" lon="1.61613">
        <ele>132.3</ele>
        <time>2010-01-01T00:00:00Z</time>
      </trkpt>
      <trkpt lat="48.55" lon="1.61547">
        <ele>137.6</ele>
        <time>2010-01-01T00:00:00Z</time>
      </trkpt>
      <trkpt lat="48.54977" lon="1.61511">
        <ele>138.7</ele>
        <time>2010-01-01T00:00:00Z</time>
      </trkpt>
      <trkpt lat="48.54969" lon="1.61494">
        <ele>141.6</ele>
        <time>2010-01-01T00:00:00Z</time>
      </trkpt>
      <trkpt lat="48.54965" lon="1.61485">
        <ele>141.9</ele>
        <time>2010-01-01T00:00:00Z</time>
      </trkpt>
      <trkpt lat="48.54944" lon="1.6143">
        <ele>143.8</ele>
        <time>2010-01-01T00:00:00Z</time>
      </trkpt>
      <trkpt lat="48.54928" lon="1.61386">
        <ele>146.2</ele>
        <time>2010-01-01T00:00:00Z</time>
      </trkpt>
      <trkpt lat="48.54927" lon="1.61382">
        <ele>146.2</ele>
        <time>2010-01-01T00:00:00Z</time>
      </trkpt>
      <trkpt lat="48.54902" lon="1.61309">
        <ele>147.9</ele>
        <time>2010-01-01T00:00:00Z</time>
      </trkpt>
      <trkpt lat="48.54859" lon="1.61171">
        <ele>146.1</ele>
        <time>2010-01-01T00:00:00Z</time>
      </trkpt>
      <trkpt lat="48.54817" lon="1.61042">
        <ele>141.6</ele>
        <time>2010-01-01T00:00:00Z</time>
      </trkpt>
      <trkpt lat="48.54772" lon="1.60901">
        <ele>138.4</ele>
        <time>2010-01-01T00:00:00Z</time>
      </trkpt>
      <trkpt lat="48.5476" lon="1.60864">
        <ele>137.5</ele>
        <time>2010-01-01T00:00:00Z</time>
      </trkpt>
      <trkpt lat="48.54723" lon="1.6076">
        <ele>135.1</ele>
        <time>2010-01-01T00:00:00Z</time>
      </trkpt>
      <trkpt lat="48.54713" lon="1.60728">
        <ele>133.4</ele>
        <time>2010-01-01T00:00:00Z</time>
      </trkpt>
      <trkpt lat="48.54699" lon="1.60686">
        <ele>132.5</ele>
        <time>2010-01-01T00:00:00Z</time>
      </trkpt>
      <trkpt lat="48.54678" lon="1.60631">
        <ele>130.3</ele>
        <time>2010-01-01T00:00:00Z</time>
      </trkpt>
      <trkpt lat="48.54668" lon="1.60603">
        <ele>129.7</ele>
        <time>2010-01-01T00:00:00Z</time>
      </trkpt>
      <trkpt lat="48.54635" lon="1.60507">
        <ele>129.7</ele>
        <time>2010-01-01T00:00:00Z</time>
      </trkpt>
      <trkpt lat="48.5461" lon="1.60438">
        <ele>131.3</ele>
        <time>2010-01-01T00:00:00Z</time>
      </trkpt>
      <trkpt lat="48.54564" lon="1.60304">
        <ele>133</ele>
        <time>2010-01-01T00:00:00Z</time>
      </trkpt>
      <trkpt lat="48.54557" lon="1.60285">
        <ele>133.3</ele>
        <time>2010-01-01T00:00:00Z</time>
      </trkpt>
      <trkpt lat="48.54537" lon="1.6023">
        <ele>134.7</ele>
        <time>2010-01-01T00:00:00Z</time>
      </trkpt>
      <trkpt lat="48.54519" lon="1.60172">
        <ele>134.9</ele>
        <time>2010-01-01T00:00:00Z</time>
      </trkpt>
      <trkpt lat="48.54509" lon="1.6015">
        <ele>135.2</ele>
        <time>2010-01-01T00:00:00Z</time>
      </trkpt>
      <trkpt lat="48.54489" lon="1.60099">
        <ele>136</ele>
        <time>2010-01-01T00:00:00Z</time>
      </trkpt>
      <trkpt lat="48.54458" lon="1.60026">
        <ele>137.1</ele>
        <time>2010-01-01T00:00:00Z</time>
      </trkpt>
      <trkpt lat="48.54434" lon="1.59969">
        <ele>138.5</ele>
        <time>2010-01-01T00:00:00Z</time>
      </trkpt>
      <trkpt lat="48.54424" lon="1.59948">
        <ele>138.9</ele>
        <time>2010-01-01T00:00:00Z</time>
      </trkpt>
      <trkpt lat="48.54371" lon="1.59834">
        <ele>141.5</ele>
        <time>2010-01-01T00:00:00Z</time>
      </trkpt>
      <trkpt lat="48.54345" lon="1.59783">
        <ele>143.7</ele>
        <time>2010-01-01T00:00:00Z</time>
      </trkpt>
      <trkpt lat="48.54345" lon="1.59783">
        <ele>143.7</ele>
        <time>2010-01-01T00:00:00Z</time>
      </trkpt>
      <trkpt lat="48.54296" lon="1.59686">
        <ele>148.3</ele>
        <time>2010-01-01T00:00:00Z</time>
      </trkpt>
      <trkpt lat="48.54281" lon="1.59656">
        <ele>150.9</ele>
        <time>2010-01-01T00:00:00Z</time>
      </trkpt>
      <trkpt lat="48.54272" lon="1.59642">
        <ele>151.1</ele>
        <time>2010-01-01T00:00:00Z</time>
      </trkpt>
      <trkpt lat="48.54269" lon="1.59639">
        <ele>151.2</ele>
        <time>2010-01-01T00:00:00Z</time>
      </trkpt>
      <trkpt lat="48.54269" lon="1.59639">
        <ele>151.2</ele>
        <time>2010-01-01T00:00:00Z</time>
      </trkpt>
      <trkpt lat="48.54266" lon="1.59635">
        <ele>151.3</ele>
        <time>2010-01-01T00:00:00Z</time>
      </trkpt>
      <trkpt lat="48.54246" lon="1.59615">
        <ele>152.2</ele>
        <time>2010-01-01T00:00:00Z</time>
      </trkpt>
      <trkpt lat="48.54179" lon="1.59543">
        <ele>153.8</ele>
        <time>2010-01-01T00:00:00Z</time>
      </trkpt>
      <trkpt lat="48.54156" lon="1.59519">
        <ele>153</ele>
        <time>2010-01-01T00:00:00Z</time>
      </trkpt>
      <trkpt lat="48.54107" lon="1.59473">
        <ele>152.4</ele>
        <time>2010-01-01T00:00:00Z</time>
      </trkpt>
      <trkpt lat="48.54091" lon="1.59461">
        <ele>152.3</ele>
        <time>2010-01-01T00:00:00Z</time>
      </trkpt>
      <trkpt lat="48.54087" lon="1.59459">
        <ele>152.3</ele>
        <time>2010-01-01T00:00:00Z</time>
      </trkpt>
      <trkpt lat="48.54088" lon="1.59453">
        <ele>152.3</ele>
        <time>2010-01-01T00:00:00Z</time>
      </trkpt>
      <trkpt lat="48.54088" lon="1.59453">
        <ele>152.3</ele>
        <time>2010-01-01T00:00:00Z</time>
      </trkpt>
      <trkpt lat="48.54101" lon="1.59386">
        <ele>150.2</ele>
        <time>2010-01-01T00:00:00Z</time>
      </trkpt>
      <trkpt lat="48.54095" lon="1.59384">
        <ele>150.1</ele>
        <time>2010-01-01T00:00:00Z</time>
      </trkpt>
      <trkpt lat="48.54095" lon="1.59384">
        <ele>150.1</ele>
        <time>2010-01-01T00:00:00Z</time>
      </trkpt>
      <trkpt lat="48.54049" lon="1.59368">
        <ele>149.8</ele>
        <time>2010-01-01T00:00:00Z</time>
      </trkpt>
      <trkpt lat="48.54041" lon="1.59365">
        <ele>149.8</ele>
        <time>2010-01-01T00:00:00Z</time>
      </trkpt>
      <trkpt lat="48.54029" lon="1.59361">
        <ele>149.6</ele>
        <time>2010-01-01T00:00:00Z</time>
      </trkpt>
      <trkpt lat="48.54015" lon="1.59356">
        <ele>149.4</ele>
        <time>2010-01-01T00:00:00Z</time>
      </trkpt>
      <trkpt lat="48.54008" lon="1.59352">
        <ele>149.2</ele>
        <time>2010-01-01T00:00:00Z</time>
      </trkpt>
      <trkpt lat="48.53964" lon="1.5932">
        <ele>147.7</ele>
        <time>2010-01-01T00:00:00Z</time>
      </trkpt>
      <trkpt lat="48.53941" lon="1.59303">
        <ele>147.7</ele>
        <time>2010-01-01T00:00:00Z</time>
      </trkpt>
      <trkpt lat="48.53892" lon="1.59267">
        <ele>147.9</ele>
        <time>2010-01-01T00:00:00Z</time>
      </trkpt>
      <trkpt lat="48.53875" lon="1.59254">
        <ele>148.1</ele>
        <time>2010-01-01T00:00:00Z</time>
      </trkpt>
      <trkpt lat="48.53851" lon="1.59236">
        <ele>146.4</ele>
        <time>2010-01-01T00:00:00Z</time>
      </trkpt>
      <trkpt lat="48.53833" lon="1.59225">
        <ele>147</ele>
        <time>2010-01-01T00:00:00Z</time>
      </trkpt>
      <trkpt lat="48.53828" lon="1.59223">
        <ele>147</ele>
        <time>2010-01-01T00:00:00Z</time>
      </trkpt>
      <trkpt lat="48.53818" lon="1.59216">
        <ele>146.8</ele>
        <time>2010-01-01T00:00:00Z</time>
      </trkpt>
      <trkpt lat="48.53804" lon="1.59203">
        <ele>146.5</ele>
        <time>2010-01-01T00:00:00Z</time>
      </trkpt>
      <trkpt lat="48.53785" lon="1.59184">
        <ele>146.4</ele>
        <time>2010-01-01T00:00:00Z</time>
      </trkpt>
      <trkpt lat="48.53774" lon="1.59175">
        <ele>146.3</ele>
        <time>2010-01-01T00:00:00Z</time>
      </trkpt>
      <trkpt lat="48.53756" lon="1.59158">
        <ele>145.1</ele>
        <time>2010-01-01T00:00:00Z</time>
      </trkpt>
      <trkpt lat="48.53756" lon="1.59158">
        <ele>145.1</ele>
        <time>2010-01-01T00:00:00Z</time>
      </trkpt>
      <trkpt lat="48.53733" lon="1.59138">
        <ele>145.6</ele>
        <time>2010-01-01T00:00:00Z</time>
      </trkpt>
      <trkpt lat="48.53692" lon="1.59104">
        <ele>145.1</ele>
        <time>2010-01-01T00:00:00Z</time>
      </trkpt>
      <trkpt lat="48.53678" lon="1.5909">
        <ele>144.6</ele>
        <time>2010-01-01T00:00:00Z</time>
      </trkpt>
      <trkpt lat="48.53668" lon="1.59076">
        <ele>142.9</ele>
        <time>2010-01-01T00:00:00Z</time>
      </trkpt>
      <trkpt lat="48.53627" lon="1.59032">
        <ele>142.1</ele>
        <time>2010-01-01T00:00:00Z</time>
      </trkpt>
      <trkpt lat="48.53602" lon="1.59003">
        <ele>142</ele>
        <time>2010-01-01T00:00:00Z</time>
      </trkpt>
      <trkpt lat="48.53573" lon="1.58967">
        <ele>138.3</ele>
        <time>2010-01-01T00:00:00Z</time>
      </trkpt>
      <trkpt lat="48.5356" lon="1.58955">
        <ele>137.5</ele>
        <time>2010-01-01T00:00:00Z</time>
      </trkpt>
      <trkpt lat="48.53527" lon="1.58931">
        <ele>136.7</ele>
        <time>2010-01-01T00:00:00Z</time>
      </trkpt>
      <trkpt lat="48.53515" lon="1.58919">
        <ele>136.1</ele>
        <time>2010-01-01T00:00:00Z</time>
      </trkpt>
      <trkpt lat="48.53493" lon="1.58901">
        <ele>133.8</ele>
        <time>2010-01-01T00:00:00Z</time>
      </trkpt>
      <trkpt lat="48.53477" lon="1.58884">
        <ele>133</ele>
        <time>2010-01-01T00:00:00Z</time>
      </trkpt>
      <trkpt lat="48.53463" lon="1.58863">
        <ele>132.3</ele>
        <time>2010-01-01T00:00:00Z</time>
      </trkpt>
      <trkpt lat="48.5346" lon="1.58853">
        <ele>132.1</ele>
        <time>2010-01-01T00:00:00Z</time>
      </trkpt>
      <trkpt lat="48.53455" lon="1.58847">
        <ele>132</ele>
        <time>2010-01-01T00:00:00Z</time>
      </trkpt>
      <trkpt lat="48.53459" lon="1.58842">
        <ele>131.8</ele>
        <time>2010-01-01T00:00:00Z</time>
      </trkpt>
      <trkpt lat="48.53459" lon="1.5884">
        <ele>131.8</ele>
        <time>2010-01-01T00:00:00Z</time>
      </trkpt>
      <trkpt lat="48.53459" lon="1.5884">
        <ele>131.8</ele>
        <time>2010-01-01T00:00:00Z</time>
      </trkpt>
      <trkpt lat="48.53459" lon="1.58842">
        <ele>131.8</ele>
        <time>2010-01-01T00:00:00Z</time>
      </trkpt>
      <trkpt lat="48.53455" lon="1.58847">
        <ele>132</ele>
        <time>2010-01-01T00:00:00Z</time>
      </trkpt>
      <trkpt lat="48.53441" lon="1.58812">
        <ele>127.5</ele>
        <time>2010-01-01T00:00:00Z</time>
      </trkpt>
      <trkpt lat="48.53423" lon="1.58775">
        <ele>125.4</ele>
        <time>2010-01-01T00:00:00Z</time>
      </trkpt>
      <trkpt lat="48.53416" lon="1.58759">
        <ele>124.6</ele>
        <time>2010-01-01T00:00:00Z</time>
      </trkpt>
      <trkpt lat="48.53413" lon="1.58751">
        <ele>123.8</ele>
        <time>2010-01-01T00:00:00Z</time>
      </trkpt>
      <trkpt lat="48.53407" lon="1.58741">
        <ele>121.2</ele>
        <time>2010-01-01T00:00:00Z</time>
      </trkpt>
      <trkpt lat="48.53397" lon="1.58733">
        <ele>120.1</ele>
        <time>2010-01-01T00:00:00Z</time>
      </trkpt>
      <trkpt lat="48.5339" lon="1.58726">
        <ele>119.6</ele>
        <time>2010-01-01T00:00:00Z</time>
      </trkpt>
      <trkpt lat="48.5338" lon="1.58718">
        <ele>119</ele>
        <time>2010-01-01T00:00:00Z</time>
      </trkpt>
      <trkpt lat="48.53356" lon="1.58711">
        <ele>118.8</ele>
        <time>2010-01-01T00:00:00Z</time>
      </trkpt>
      <trkpt lat="48.5335" lon="1.58708">
        <ele>118.6</ele>
        <time>2010-01-01T00:00:00Z</time>
      </trkpt>
      <trkpt lat="48.5335" lon="1.58708">
        <ele>118.6</ele>
        <time>2010-01-01T00:00:00Z</time>
      </trkpt>
      <trkpt lat="48.53343" lon="1.58705">
        <ele>118.4</ele>
        <time>2010-01-01T00:00:00Z</time>
      </trkpt>
      <trkpt lat="48.53339" lon="1.587">
        <ele>117.9</ele>
        <time>2010-01-01T00:00:00Z</time>
      </trkpt>
      <trkpt lat="48.53327" lon="1.58705">
        <ele>117.9</ele>
        <time>2010-01-01T00:00:00Z</time>
      </trkpt>
      <trkpt lat="48.53311" lon="1.58711">
        <ele>118.2</ele>
        <time>2010-01-01T00:00:00Z</time>
      </trkpt>
      <trkpt lat="48.53297" lon="1.58712">
        <ele>118.1</ele>
        <time>2010-01-01T00:00:00Z</time>
      </trkpt>
      <trkpt lat="48.53284" lon="1.58713">
        <ele>117.9</ele>
        <time>2010-01-01T00:00:00Z</time>
      </trkpt>
      <trkpt lat="48.53266" lon="1.5871">
        <ele>117.5</ele>
        <time>2010-01-01T00:00:00Z</time>
      </trkpt>
      <trkpt lat="48.53246" lon="1.58705">
        <ele>116.3</ele>
        <time>2010-01-01T00:00:00Z</time>
      </trkpt>
      <trkpt lat="48.53223" lon="1.58701">
        <ele>116.2</ele>
        <time>2010-01-01T00:00:00Z</time>
      </trkpt>
      <trkpt lat="48.53186" lon="1.58697">
        <ele>116.1</ele>
        <time>2010-01-01T00:00:00Z</time>
      </trkpt>
      <trkpt lat="48.53174" lon="1.58698">
        <ele>116.1</ele>
        <time>2010-01-01T00:00:00Z</time>
      </trkpt>
      <trkpt lat="48.53164" lon="1.587">
        <ele>115.2</ele>
        <time>2010-01-01T00:00:00Z</time>
      </trkpt>
      <trkpt lat="48.53151" lon="1.58705">
        <ele>115.4</ele>
        <time>2010-01-01T00:00:00Z</time>
      </trkpt>
      <trkpt lat="48.53134" lon="1.58715">
        <ele>115.4</ele>
        <time>2010-01-01T00:00:00Z</time>
      </trkpt>
      <trkpt lat="48.5313" lon="1.58717">
        <ele>115.4</ele>
        <time>2010-01-01T00:00:00Z</time>
      </trkpt>
      <trkpt lat="48.53128" lon="1.58719">
        <ele>115.4</ele>
        <time>2010-01-01T00:00:00Z</time>
      </trkpt>
      <trkpt lat="48.53123" lon="1.58721">
        <ele>115.2</ele>
        <time>2010-01-01T00:00:00Z</time>
      </trkpt>
      <trkpt lat="48.53112" lon="1.5873">
        <ele>114.9</ele>
        <time>2010-01-01T00:00:00Z</time>
      </trkpt>
      <trkpt lat="48.53099" lon="1.58742">
        <ele>114.2</ele>
        <time>2010-01-01T00:00:00Z</time>
      </trkpt>
      <trkpt lat="48.53088" lon="1.58753">
        <ele>114.5</ele>
        <time>2010-01-01T00:00:00Z</time>
      </trkpt>
      <trkpt lat="48.53079" lon="1.58766">
        <ele>114.1</ele>
        <time>2010-01-01T00:00:00Z</time>
      </trkpt>
      <trkpt lat="48.53069" lon="1.5878">
        <ele>114.7</ele>
        <time>2010-01-01T00:00:00Z</time>
      </trkpt>
      <trkpt lat="48.53044" lon="1.58825">
        <ele>115.6</ele>
        <time>2010-01-01T00:00:00Z</time>
      </trkpt>
      <trkpt lat="48.53034" lon="1.58839">
        <ele>118.1</ele>
        <time>2010-01-01T00:00:00Z</time>
      </trkpt>
      <trkpt lat="48.53026" lon="1.58849">
        <ele>118</ele>
        <time>2010-01-01T00:00:00Z</time>
      </trkpt>
      <trkpt lat="48.53018" lon="1.58857">
        <ele>118.1</ele>
        <time>2010-01-01T00:00:00Z</time>
      </trkpt>
      <trkpt lat="48.5301" lon="1.58863">
        <ele>118.3</ele>
        <time>2010-01-01T00:00:00Z</time>
      </trkpt>
      <trkpt lat="48.53006" lon="1.58865">
        <ele>118.4</ele>
        <time>2010-01-01T00:00:00Z</time>
      </trkpt>
      <trkpt lat="48.52999" lon="1.58871">
        <ele>119.9</ele>
        <time>2010-01-01T00:00:00Z</time>
      </trkpt>
      <trkpt lat="48.52999" lon="1.58871">
        <ele>119.9</ele>
        <time>2010-01-01T00:00:00Z</time>
      </trkpt>
      <trkpt lat="48.52992" lon="1.58874">
        <ele>120.2</ele>
        <time>2010-01-01T00:00:00Z</time>
      </trkpt>
      <trkpt lat="48.52979" lon="1.58875">
        <ele>120.6</ele>
        <time>2010-01-01T00:00:00Z</time>
      </trkpt>
      <trkpt lat="48.52961" lon="1.58878">
        <ele>121.3</ele>
        <time>2010-01-01T00:00:00Z</time>
      </trkpt>
      <trkpt lat="48.52942" lon="1.58884">
        <ele>122.5</ele>
        <time>2010-01-01T00:00:00Z</time>
      </trkpt>
      <trkpt lat="48.52919" lon="1.589">
        <ele>125.6</ele>
        <time>2010-01-01T00:00:00Z</time>
      </trkpt>
      <trkpt lat="48.529" lon="1.58929">
        <ele>130</ele>
        <time>2010-01-01T00:00:00Z</time>
      </trkpt>
      <trkpt lat="48.52883" lon="1.58947">
        <ele>130.1</ele>
        <time>2010-01-01T00:00:00Z</time>
      </trkpt>
      <trkpt lat="48.52876" lon="1.58958">
        <ele>130.3</ele>
        <time>2010-01-01T00:00:00Z</time>
      </trkpt>
      <trkpt lat="48.52873" lon="1.58968">
        <ele>130.6</ele>
        <time>2010-01-01T00:00:00Z</time>
      </trkpt>
      <trkpt lat="48.52867" lon="1.58999">
        <ele>131.3</ele>
        <time>2010-01-01T00:00:00Z</time>
      </trkpt>
      <trkpt lat="48.52859" lon="1.59026">
        <ele>132.7</ele>
        <time>2010-01-01T00:00:00Z</time>
      </trkpt>
      <trkpt lat="48.52851" lon="1.59049">
        <ele>133</ele>
        <time>2010-01-01T00:00:00Z</time>
      </trkpt>
      <trkpt lat="48.52822" lon="1.59095">
        <ele>134.7</ele>
        <time>2010-01-01T00:00:00Z</time>
      </trkpt>
      <trkpt lat="48.52813" lon="1.59107">
        <ele>134.1</ele>
        <time>2010-01-01T00:00:00Z</time>
      </trkpt>
      <trkpt lat="48.52788" lon="1.59137">
        <ele>134</ele>
        <time>2010-01-01T00:00:00Z</time>
      </trkpt>
      <trkpt lat="48.52783" lon="1.59142">
        <ele>134.1</ele>
        <time>2010-01-01T00:00:00Z</time>
      </trkpt>
      <trkpt lat="48.52774" lon="1.59149">
        <ele>134.5</ele>
        <time>2010-01-01T00:00:00Z</time>
      </trkpt>
      <trkpt lat="48.52761" lon="1.59164">
        <ele>135.7</ele>
        <time>2010-01-01T00:00:00Z</time>
      </trkpt>
      <trkpt lat="48.52747" lon="1.5918">
        <ele>136.8</ele>
        <time>2010-01-01T00:00:00Z</time>
      </trkpt>
      <trkpt lat="48.5273" lon="1.59201">
        <ele>136.8</ele>
        <time>2010-01-01T00:00:00Z</time>
      </trkpt>
      <trkpt lat="48.52714" lon="1.59217">
        <ele>137</ele>
        <time>2010-01-01T00:00:00Z</time>
      </trkpt>
      <trkpt lat="48.52707" lon="1.59221">
        <ele>137.1</ele>
        <time>2010-01-01T00:00:00Z</time>
      </trkpt>
      <trkpt lat="48.52684" lon="1.59235">
        <ele>137.9</ele>
        <time>2010-01-01T00:00:00Z</time>
      </trkpt>
      <trkpt lat="48.52665" lon="1.59243">
        <ele>139.7</ele>
        <time>2010-01-01T00:00:00Z</time>
      </trkpt>
      <trkpt lat="48.52628" lon="1.59254">
        <ele>140.9</ele>
        <time>2010-01-01T00:00:00Z</time>
      </trkpt>
      <trkpt lat="48.52617" lon="1.59258">
        <ele>141.5</ele>
        <time>2010-01-01T00:00:00Z</time>
      </trkpt>
      <trkpt lat="48.52588" lon="1.59265">
        <ele>143.3</ele>
        <time>2010-01-01T00:00:00Z</time>
      </trkpt>
      <trkpt lat="48.52547" lon="1.59279">
        <ele>146.5</ele>
        <time>2010-01-01T00:00:00Z</time>
      </trkpt>
      <trkpt lat="48.52528" lon="1.59289">
        <ele>146.9</ele>
        <time>2010-01-01T00:00:00Z</time>
      </trkpt>
      <trkpt lat="48.52518" lon="1.59291">
        <ele>147.2</ele>
        <time>2010-01-01T00:00:00Z</time>
      </trkpt>
      <trkpt lat="48.52505" lon="1.59291">
        <ele>147.4</ele>
        <time>2010-01-01T00:00:00Z</time>
      </trkpt>
      <trkpt lat="48.52481" lon="1.59289">
        <ele>148.4</ele>
        <time>2010-01-01T00:00:00Z</time>
      </trkpt>
      <trkpt lat="48.52468" lon="1.59291">
        <ele>148.3</ele>
        <time>2010-01-01T00:00:00Z</time>
      </trkpt>
      <trkpt lat="48.52427" lon="1.59297">
        <ele>148</ele>
        <time>2010-01-01T00:00:00Z</time>
      </trkpt>
      <trkpt lat="48.52397" lon="1.59297">
        <ele>148.4</ele>
        <time>2010-01-01T00:00:00Z</time>
      </trkpt>
      <trkpt lat="48.52388" lon="1.59295">
        <ele>148.5</ele>
        <time>2010-01-01T00:00:00Z</time>
      </trkpt>
      <trkpt lat="48.52358" lon="1.59279">
        <ele>149.2</ele>
        <time>2010-01-01T00:00:00Z</time>
      </trkpt>
      <trkpt lat="48.5235" lon="1.59275">
        <ele>149.4</ele>
        <time>2010-01-01T00:00:00Z</time>
      </trkpt>
      <trkpt lat="48.52328" lon="1.59262">
        <ele>151.1</ele>
        <time>2010-01-01T00:00:00Z</time>
      </trkpt>
      <trkpt lat="48.52316" lon="1.59256">
        <ele>151.3</ele>
        <time>2010-01-01T00:00:00Z</time>
      </trkpt>
      <trkpt lat="48.52283" lon="1.59242">
        <ele>151.2</ele>
        <time>2010-01-01T00:00:00Z</time>
      </trkpt>
      <trkpt lat="48.52261" lon="1.59229">
        <ele>151.3</ele>
        <time>2010-01-01T00:00:00Z</time>
      </trkpt>
      <trkpt lat="48.52252" lon="1.59225">
        <ele>151.2</ele>
        <time>2010-01-01T00:00:00Z</time>
      </trkpt>
      <trkpt lat="48.52222" lon="1.59216">
        <ele>150.8</ele>
        <time>2010-01-01T00:00:00Z</time>
      </trkpt>
      <trkpt lat="48.52196" lon="1.59206">
        <ele>150.4</ele>
        <time>2010-01-01T00:00:00Z</time>
      </trkpt>
      <trkpt lat="48.52179" lon="1.59195">
        <ele>149.9</ele>
        <time>2010-01-01T00:00:00Z</time>
      </trkpt>
      <trkpt lat="48.52151" lon="1.5918">
        <ele>149.3</ele>
        <time>2010-01-01T00:00:00Z</time>
      </trkpt>
      <trkpt lat="48.52124" lon="1.59169">
        <ele>149.6</ele>
        <time>2010-01-01T00:00:00Z</time>
      </trkpt>
      <trkpt lat="48.52107" lon="1.59164">
        <ele>146.6</ele>
        <time>2010-01-01T00:00:00Z</time>
      </trkpt>
      <trkpt lat="48.52096" lon="1.59159">
        <ele>147.1</ele>
        <time>2010-01-01T00:00:00Z</time>
      </trkpt>
      <trkpt lat="48.52073" lon="1.59145">
        <ele>146.3</ele>
        <time>2010-01-01T00:00:00Z</time>
      </trkpt>
      <trkpt lat="48.52062" lon="1.59137">
        <ele>145.6</ele>
        <time>2010-01-01T00:00:00Z</time>
      </trkpt>
      <trkpt lat="48.52042" lon="1.59121">
        <ele>144.8</ele>
        <time>2010-01-01T00:00:00Z</time>
      </trkpt>
      <trkpt lat="48.52029" lon="1.59111">
        <ele>144.4</ele>
        <time>2010-01-01T00:00:00Z</time>
      </trkpt>
      <trkpt lat="48.52011" lon="1.59099">
        <ele>143.6</ele>
        <time>2010-01-01T00:00:00Z</time>
      </trkpt>
      <trkpt lat="48.51994" lon="1.59085">
        <ele>142.6</ele>
        <time>2010-01-01T00:00:00Z</time>
      </trkpt>
      <trkpt lat="48.5198" lon="1.59071">
        <ele>140.1</ele>
        <time>2010-01-01T00:00:00Z</time>
      </trkpt>
      <trkpt lat="48.51958" lon="1.59046">
        <ele>138.9</ele>
        <time>2010-01-01T00:00:00Z</time>
      </trkpt>
      <trkpt lat="48.51931" lon="1.59011">
        <ele>137.4</ele>
        <time>2010-01-01T00:00:00Z</time>
      </trkpt>
      <trkpt lat="48.51921" lon="1.58999">
        <ele>135.8</ele>
        <time>2010-01-01T00:00:00Z</time>
      </trkpt>
      <trkpt lat="48.51903" lon="1.58981">
        <ele>135.6</ele>
        <time>2010-01-01T00:00:00Z</time>
      </trkpt>
      <trkpt lat="48.51902" lon="1.58981">
        <ele>135.6</ele>
        <time>2010-01-01T00:00:00Z</time>
      </trkpt>
      <trkpt lat="48.51902" lon="1.58981">
        <ele>135.6</ele>
        <time>2010-01-01T00:00:00Z</time>
      </trkpt>
      <trkpt lat="48.51895" lon="1.58974">
        <ele>135.6</ele>
        <time>2010-01-01T00:00:00Z</time>
      </trkpt>
      <trkpt lat="48.51888" lon="1.58967">
        <ele>135.5</ele>
        <time>2010-01-01T00:00:00Z</time>
      </trkpt>
      <trkpt lat="48.51879" lon="1.58954">
        <ele>135.4</ele>
        <time>2010-01-01T00:00:00Z</time>
      </trkpt>
      <trkpt lat="48.51874" lon="1.58946">
        <ele>135.4</ele>
        <time>2010-01-01T00:00:00Z</time>
      </trkpt>
      <trkpt lat="48.5187" lon="1.58942">
        <ele>135.5</ele>
        <time>2010-01-01T00:00:00Z</time>
      </trkpt>
      <trkpt lat="48.51864" lon="1.58938">
        <ele>135.5</ele>
        <time>2010-01-01T00:00:00Z</time>
      </trkpt>
      <trkpt lat="48.51864" lon="1.58934">
        <ele>135.5</ele>
        <time>2010-01-01T00:00:00Z</time>
      </trkpt>
      <trkpt lat="48.51863" lon="1.58925">
        <ele>135.5</ele>
        <time>2010-01-01T00:00:00Z</time>
      </trkpt>
      <trkpt lat="48.51862" lon="1.58921">
        <ele>135.5</ele>
        <time>2010-01-01T00:00:00Z</time>
      </trkpt>
      <trkpt lat="48.51861" lon="1.58917">
        <ele>135.5</ele>
        <time>2010-01-01T00:00:00Z</time>
      </trkpt>
      <trkpt lat="48.51855" lon="1.58907">
        <ele>136.2</ele>
        <time>2010-01-01T00:00:00Z</time>
      </trkpt>
      <trkpt lat="48.51851" lon="1.58901">
        <ele>136.2</ele>
        <time>2010-01-01T00:00:00Z</time>
      </trkpt>
      <trkpt lat="48.51845" lon="1.58896">
        <ele>136.3</ele>
        <time>2010-01-01T00:00:00Z</time>
      </trkpt>
      <trkpt lat="48.51836" lon="1.58891">
        <ele>136.4</ele>
        <time>2010-01-01T00:00:00Z</time>
      </trkpt>
      <trkpt lat="48.51818" lon="1.58879">
        <ele>137.3</ele>
        <time>2010-01-01T00:00:00Z</time>
      </trkpt>
      <trkpt lat="48.51815" lon="1.58877">
        <ele>137.3</ele>
        <time>2010-01-01T00:00:00Z</time>
      </trkpt>
      <trkpt lat="48.51815" lon="1.58877">
        <ele>137.3</ele>
        <time>2010-01-01T00:00:00Z</time>
      </trkpt>
      <trkpt lat="48.518" lon="1.58869">
        <ele>137.5</ele>
        <time>2010-01-01T00:00:00Z</time>
      </trkpt>
      <trkpt lat="48.51772" lon="1.5885">
        <ele>138</ele>
        <time>2010-01-01T00:00:00Z</time>
      </trkpt>
      <trkpt lat="48.51742" lon="1.58828">
        <ele>139</ele>
        <time>2010-01-01T00:00:00Z</time>
      </trkpt>
      <trkpt lat="48.51728" lon="1.58813">
        <ele>139</ele>
        <time>2010-01-01T00:00:00Z</time>
      </trkpt>
      <trkpt lat="48.51718" lon="1.58804">
        <ele>139</ele>
        <time>2010-01-01T00:00:00Z</time>
      </trkpt>
      <trkpt lat="48.51706" lon="1.58796">
        <ele>139</ele>
        <time>2010-01-01T00:00:00Z</time>
      </trkpt>
      <trkpt lat="48.51693" lon="1.58789">
        <ele>138.9</ele>
        <time>2010-01-01T00:00:00Z</time>
      </trkpt>
      <trkpt lat="48.51685" lon="1.58786">
        <ele>138.9</ele>
        <time>2010-01-01T00:00:00Z</time>
      </trkpt>
      <trkpt lat="48.51684" lon="1.58785">
        <ele>138.9</ele>
        <time>2010-01-01T00:00:00Z</time>
      </trkpt>
      <trkpt lat="48.51684" lon="1.58785">
        <ele>138.9</ele>
        <time>2010-01-01T00:00:00Z</time>
      </trkpt>
      <trkpt lat="48.51679" lon="1.58784">
        <ele>138.9</ele>
        <time>2010-01-01T00:00:00Z</time>
      </trkpt>
      <trkpt lat="48.5168" lon="1.58754">
        <ele>139</ele>
        <time>2010-01-01T00:00:00Z</time>
      </trkpt>
      <trkpt lat="48.51679" lon="1.58741">
        <ele>139.7</ele>
        <time>2010-01-01T00:00:00Z</time>
      </trkpt>
      <trkpt lat="48.51668" lon="1.58684">
        <ele>140.7</ele>
        <time>2010-01-01T00:00:00Z</time>
      </trkpt>
      <trkpt lat="48.51653" lon="1.58609">
        <ele>142.7</ele>
        <time>2010-01-01T00:00:00Z</time>
      </trkpt>
      <trkpt lat="48.5165" lon="1.58597">
        <ele>142.8</ele>
        <time>2010-01-01T00:00:00Z</time>
      </trkpt>
      <trkpt lat="48.51641" lon="1.58558">
        <ele>143.8</ele>
        <time>2010-01-01T00:00:00Z</time>
      </trkpt>
      <trkpt lat="48.51624" lon="1.58494">
        <ele>144.5</ele>
        <time>2010-01-01T00:00:00Z</time>
      </trkpt>
      <trkpt lat="48.51594" lon="1.584">
        <ele>145.1</ele>
        <time>2010-01-01T00:00:00Z</time>
      </trkpt>
      <trkpt lat="48.51582" lon="1.58344">
        <ele>146</ele>
        <time>2010-01-01T00:00:00Z</time>
      </trkpt>
      <trkpt lat="48.51572" lon="1.58287">
        <ele>146.7</ele>
        <time>2010-01-01T00:00:00Z</time>
      </trkpt>
      <trkpt lat="48.51572" lon="1.58287">
        <ele>146.7</ele>
        <time>2010-01-01T00:00:00Z</time>
      </trkpt>
      <trkpt lat="48.51571" lon="1.58279">
        <ele>146.8</ele>
        <time>2010-01-01T00:00:00Z</time>
      </trkpt>
      <trkpt lat="48.51565" lon="1.58279">
        <ele>146.8</ele>
        <time>2010-01-01T00:00:00Z</time>
      </trkpt>
      <trkpt lat="48.51558" lon="1.58275">
        <ele>146.8</ele>
        <time>2010-01-01T00:00:00Z</time>
      </trkpt>
      <trkpt lat="48.51547" lon="1.58267">
        <ele>146.8</ele>
        <time>2010-01-01T00:00:00Z</time>
      </trkpt>
      <trkpt lat="48.51522" lon="1.58247">
        <ele>147.3</ele>
        <time>2010-01-01T00:00:00Z</time>
      </trkpt>
      <trkpt lat="48.51489" lon="1.58223">
        <ele>147.2</ele>
        <time>2010-01-01T00:00:00Z</time>
      </trkpt>
      <trkpt lat="48.51477" lon="1.58212">
        <ele>147.3</ele>
        <time>2010-01-01T00:00:00Z</time>
      </trkpt>
      <trkpt lat="48.51469" lon="1.58201">
        <ele>147.3</ele>
        <time>2010-01-01T00:00:00Z</time>
      </trkpt>
      <trkpt lat="48.51461" lon="1.58187">
        <ele>147.3</ele>
        <time>2010-01-01T00:00:00Z</time>
      </trkpt>
      <trkpt lat="48.51454" lon="1.58173">
        <ele>147.3</ele>
        <time>2010-01-01T00:00:00Z</time>
      </trkpt>
      <trkpt lat="48.51446" lon="1.58154">
        <ele>147.4</ele>
        <time>2010-01-01T00:00:00Z</time>
      </trkpt>
      <trkpt lat="48.51439" lon="1.5813">
        <ele>147.5</ele>
        <time>2010-01-01T00:00:00Z</time>
      </trkpt>
      <trkpt lat="48.51431" lon="1.58101">
        <ele>147.7</ele>
        <time>2010-01-01T00:00:00Z</time>
      </trkpt>
      <trkpt lat="48.5142" lon="1.58051">
        <ele>148.5</ele>
        <time>2010-01-01T00:00:00Z</time>
      </trkpt>
      <trkpt lat="48.51409" lon="1.57989">
        <ele>150.6</ele>
        <time>2010-01-01T00:00:00Z</time>
      </trkpt>
      <trkpt lat="48.51399" lon="1.57941">
        <ele>151.3</ele>
        <time>2010-01-01T00:00:00Z</time>
      </trkpt>
      <trkpt lat="48.51379" lon="1.57859">
        <ele>152.3</ele>
        <time>2010-01-01T00:00:00Z</time>
      </trkpt>
      <trkpt lat="48.51352" lon="1.57773">
        <ele>153.3</ele>
        <time>2010-01-01T00:00:00Z</time>
      </trkpt>
      <trkpt lat="48.51339" lon="1.57733">
        <ele>153.9</ele>
        <time>2010-01-01T00:00:00Z</time>
      </trkpt>
      <trkpt lat="48.51335" lon="1.57726">
        <ele>153.9</ele>
        <time>2010-01-01T00:00:00Z</time>
      </trkpt>
      <trkpt lat="48.51332" lon="1.57706">
        <ele>154.5</ele>
        <time>2010-01-01T00:00:00Z</time>
      </trkpt>
      <trkpt lat="48.51323" lon="1.57649">
        <ele>154.3</ele>
        <time>2010-01-01T00:00:00Z</time>
      </trkpt>
      <trkpt lat="48.51317" lon="1.57587">
        <ele>153.4</ele>
        <time>2010-01-01T00:00:00Z</time>
      </trkpt>
      <trkpt lat="48.51315" lon="1.57524">
        <ele>152.8</ele>
        <time>2010-01-01T00:00:00Z</time>
      </trkpt>
      <trkpt lat="48.51316" lon="1.57439">
        <ele>152.2</ele>
        <time>2010-01-01T00:00:00Z</time>
      </trkpt>
      <trkpt lat="48.51324" lon="1.57314">
        <ele>150.7</ele>
        <time>2010-01-01T00:00:00Z</time>
      </trkpt>
      <trkpt lat="48.51328" lon="1.57279">
        <ele>150.4</ele>
        <time>2010-01-01T00:00:00Z</time>
      </trkpt>
      <trkpt lat="48.51331" lon="1.57264">
        <ele>150.2</ele>
        <time>2010-01-01T00:00:00Z</time>
      </trkpt>
      <trkpt lat="48.51338" lon="1.57245">
        <ele>150</ele>
        <time>2010-01-01T00:00:00Z</time>
      </trkpt>
      <trkpt lat="48.51342" lon="1.57236">
        <ele>150</ele>
        <time>2010-01-01T00:00:00Z</time>
      </trkpt>
      <trkpt lat="48.51351" lon="1.57215">
        <ele>150</ele>
        <time>2010-01-01T00:00:00Z</time>
      </trkpt>
      <trkpt lat="48.51361" lon="1.57194">
        <ele>150</ele>
        <time>2010-01-01T00:00:00Z</time>
      </trkpt>
      <trkpt lat="48.51384" lon="1.57141">
        <ele>150.6</ele>
        <time>2010-01-01T00:00:00Z</time>
      </trkpt>
      <trkpt lat="48.51406" lon="1.57086">
        <ele>152.2</ele>
        <time>2010-01-01T00:00:00Z</time>
      </trkpt>
      <trkpt lat="48.51407" lon="1.57077">
        <ele>152.8</ele>
        <time>2010-01-01T00:00:00Z</time>
      </trkpt>
      <trkpt lat="48.51406" lon="1.57068">
        <ele>152.8</ele>
        <time>2010-01-01T00:00:00Z</time>
      </trkpt>
      <trkpt lat="48.51416" lon="1.57077">
        <ele>152.9</ele>
        <time>2010-01-01T00:00:00Z</time>
      </trkpt>
      <trkpt lat="48.51416" lon="1.57077">
        <ele>152.9</ele>
        <time>2010-01-01T00:00:00Z</time>
      </trkpt>
      <trkpt lat="48.51406" lon="1.57068">
        <ele>152.8</ele>
        <time>2010-01-01T00:00:00Z</time>
      </trkpt>
      <trkpt lat="48.51401" lon="1.57063">
        <ele>152.8</ele>
        <time>2010-01-01T00:00:00Z</time>
      </trkpt>
      <trkpt lat="48.51351" lon="1.57012">
        <ele>152</ele>
        <time>2010-01-01T00:00:00Z</time>
      </trkpt>
      <trkpt lat="48.51297" lon="1.56949">
        <ele>149.3</ele>
        <time>2010-01-01T00:00:00Z</time>
      </trkpt>
      <trkpt lat="48.51263" lon="1.5691">
        <ele>147.4</ele>
        <time>2010-01-01T00:00:00Z</time>
      </trkpt>
      <trkpt lat="48.51254" lon="1.56899">
        <ele>147.2</ele>
        <time>2010-01-01T00:00:00Z</time>
      </trkpt>
      <trkpt lat="48.51254" lon="1.56898">
        <ele>147.2</ele>
        <time>2010-01-01T00:00:00Z</time>
      </trkpt>
      <trkpt lat="48.51242" lon="1.56878">
        <ele>145.7</ele>
        <time>2010-01-01T00:00:00Z</time>
      </trkpt>
      <trkpt lat="48.51242" lon="1.56878">
        <ele>145.7</ele>
        <time>2010-01-01T00:00:00Z</time>
      </trkpt>
      <trkpt lat="48.51234" lon="1.56864">
        <ele>145.5</ele>
        <time>2010-01-01T00:00:00Z</time>
      </trkpt>
      <trkpt lat="48.51179" lon="1.56772">
        <ele>144.9</ele>
        <time>2010-01-01T00:00:00Z</time>
      </trkpt>
      <trkpt lat="48.51147" lon="1.56713">
        <ele>147.2</ele>
        <time>2010-01-01T00:00:00Z</time>
      </trkpt>
      <trkpt lat="48.511" lon="1.56614">
        <ele>148.3</ele>
        <time>2010-01-01T00:00:00Z</time>
      </trkpt>
      <trkpt lat="48.51052" lon="1.56507">
        <ele>150.1</ele>
        <time>2010-01-01T00:00:00Z</time>
      </trkpt>
      <trkpt lat="48.51008" lon="1.56404">
        <ele>150.6</ele>
        <time>2010-01-01T00:00:00Z</time>
      </trkpt>
      <trkpt lat="48.50986" lon="1.56337">
        <ele>150.6</ele>
        <time>2010-01-01T00:00:00Z</time>
      </trkpt>
      <trkpt lat="48.50966" lon="1.56265">
        <ele>151.3</ele>
        <time>2010-01-01T00:00:00Z</time>
      </trkpt>
      <trkpt lat="48.50961" lon="1.56221">
        <ele>151.3</ele>
        <time>2010-01-01T00:00:00Z</time>
      </trkpt>
      <trkpt lat="48.50959" lon="1.56204">
        <ele>151.2</ele>
        <time>2010-01-01T00:00:00Z</time>
      </trkpt>
      <trkpt lat="48.50955" lon="1.56196">
        <ele>151.2</ele>
        <time>2010-01-01T00:00:00Z</time>
      </trkpt>
      <trkpt lat="48.50955" lon="1.56196">
        <ele>151.2</ele>
        <time>2010-01-01T00:00:00Z</time>
      </trkpt>
      <trkpt lat="48.50954" lon="1.56196">
        <ele>151.2</ele>
        <time>2010-01-01T00:00:00Z</time>
      </trkpt>
      <trkpt lat="48.50943" lon="1.56179">
        <ele>151.2</ele>
        <time>2010-01-01T00:00:00Z</time>
      </trkpt>
      <trkpt lat="48.50938" lon="1.56173">
        <ele>151.1</ele>
        <time>2010-01-01T00:00:00Z</time>
      </trkpt>
      <trkpt lat="48.50927" lon="1.56151">
        <ele>151</ele>
        <time>2010-01-01T00:00:00Z</time>
      </trkpt>
      <trkpt lat="48.50907" lon="1.56115">
        <ele>150.4</ele>
        <time>2010-01-01T00:00:00Z</time>
      </trkpt>
      <trkpt lat="48.50871" lon="1.56033">
        <ele>149.7</ele>
        <time>2010-01-01T00:00:00Z</time>
      </trkpt>
      <trkpt lat="48.50851" lon="1.55989">
        <ele>149.3</ele>
        <time>2010-01-01T00:00:00Z</time>
      </trkpt>
      <trkpt lat="48.50836" lon="1.55958">
        <ele>149.3</ele>
        <time>2010-01-01T00:00:00Z</time>
      </trkpt>
      <trkpt lat="48.50812" lon="1.55908">
        <ele>149.5</ele>
        <time>2010-01-01T00:00:00Z</time>
      </trkpt>
      <trkpt lat="48.50803" lon="1.55883">
        <ele>149.7</ele>
        <time>2010-01-01T00:00:00Z</time>
      </trkpt>
      <trkpt lat="48.50796" lon="1.55864">
        <ele>149.7</ele>
        <time>2010-01-01T00:00:00Z</time>
      </trkpt>
      <trkpt lat="48.50779" lon="1.5582">
        <ele>149.8</ele>
        <time>2010-01-01T00:00:00Z</time>
      </trkpt>
      <trkpt lat="48.50773" lon="1.55806">
        <ele>149.8</ele>
        <time>2010-01-01T00:00:00Z</time>
      </trkpt>
      <trkpt lat="48.50767" lon="1.55793">
        <ele>150</ele>
        <time>2010-01-01T00:00:00Z</time>
      </trkpt>
      <trkpt lat="48.50755" lon="1.55773">
        <ele>150.3</ele>
        <time>2010-01-01T00:00:00Z</time>
      </trkpt>
      <trkpt lat="48.50752" lon="1.55768">
        <ele>150.4</ele>
        <time>2010-01-01T00:00:00Z</time>
      </trkpt>
      <trkpt lat="48.50739" lon="1.5575">
        <ele>150.7</ele>
        <time>2010-01-01T00:00:00Z</time>
      </trkpt>
      <trkpt lat="48.50733" lon="1.55743">
        <ele>150.7</ele>
        <time>2010-01-01T00:00:00Z</time>
      </trkpt>
      <trkpt lat="48.50695" lon="1.55698">
        <ele>150</ele>
        <time>2010-01-01T00:00:00Z</time>
      </trkpt>
      <trkpt lat="48.50656" lon="1.55649">
        <ele>149</ele>
        <time>2010-01-01T00:00:00Z</time>
      </trkpt>
      <trkpt lat="48.50638" lon="1.55623">
        <ele>149.7</ele>
        <time>2010-01-01T00:00:00Z</time>
      </trkpt>
      <trkpt lat="48.5062" lon="1.55589">
        <ele>150.2</ele>
        <time>2010-01-01T00:00:00Z</time>
      </trkpt>
      <trkpt lat="48.50603" lon="1.55554">
        <ele>151.3</ele>
        <time>2010-01-01T00:00:00Z</time>
      </trkpt>
      <trkpt lat="48.50588" lon="1.55522">
        <ele>151.3</ele>
        <time>2010-01-01T00:00:00Z</time>
      </trkpt>
      <trkpt lat="48.50577" lon="1.55497">
        <ele>150.9</ele>
        <time>2010-01-01T00:00:00Z</time>
      </trkpt>
      <trkpt lat="48.50561" lon="1.55468">
        <ele>150.7</ele>
        <time>2010-01-01T00:00:00Z</time>
      </trkpt>
      <trkpt lat="48.50541" lon="1.55432">
        <ele>150.6</ele>
        <time>2010-01-01T00:00:00Z</time>
      </trkpt>
      <trkpt lat="48.50535" lon="1.5542">
        <ele>150.5</ele>
        <time>2010-01-01T00:00:00Z</time>
      </trkpt>
      <trkpt lat="48.50496" lon="1.55351">
        <ele>147.9</ele>
        <time>2010-01-01T00:00:00Z</time>
      </trkpt>
      <trkpt lat="48.50491" lon="1.55343">
        <ele>147.9</ele>
        <time>2010-01-01T00:00:00Z</time>
      </trkpt>
      <trkpt lat="48.50484" lon="1.55334">
        <ele>147.8</ele>
        <time>2010-01-01T00:00:00Z</time>
      </trkpt>
      <trkpt lat="48.50458" lon="1.55297">
        <ele>145.6</ele>
        <time>2010-01-01T00:00:00Z</time>
      </trkpt>
      <trkpt lat="48.50425" lon="1.55254">
        <ele>143.8</ele>
        <time>2010-01-01T00:00:00Z</time>
      </trkpt>
      <trkpt lat="48.5037" lon="1.55186">
        <ele>142.9</ele>
        <time>2010-01-01T00:00:00Z</time>
      </trkpt>
      <trkpt lat="48.5035" lon="1.55159">
        <ele>142.4</ele>
        <time>2010-01-01T00:00:00Z</time>
      </trkpt>
      <trkpt lat="48.50337" lon="1.55131">
        <ele>142.3</ele>
        <time>2010-01-01T00:00:00Z</time>
      </trkpt>
      <trkpt lat="48.50308" lon="1.55049">
        <ele>141.2</ele>
        <time>2010-01-01T00:00:00Z</time>
      </trkpt>
      <trkpt lat="48.50298" lon="1.55027">
        <ele>141.3</ele>
        <time>2010-01-01T00:00:00Z</time>
      </trkpt>
      <trkpt lat="48.50295" lon="1.55023">
        <ele>141.3</ele>
        <time>2010-01-01T00:00:00Z</time>
      </trkpt>
      <trkpt lat="48.50294" lon="1.55022">
        <ele>141.3</ele>
        <time>2010-01-01T00:00:00Z</time>
      </trkpt>
      <trkpt lat="48.50294" lon="1.55022">
        <ele>141.3</ele>
        <time>2010-01-01T00:00:00Z</time>
      </trkpt>
      <trkpt lat="48.50274" lon="1.54989">
        <ele>141.8</ele>
        <time>2010-01-01T00:00:00Z</time>
      </trkpt>
      <trkpt lat="48.50265" lon="1.54974">
        <ele>141.8</ele>
        <time>2010-01-01T00:00:00Z</time>
      </trkpt>
      <trkpt lat="48.502" lon="1.54908">
        <ele>141.6</ele>
        <time>2010-01-01T00:00:00Z</time>
      </trkpt>
      <trkpt lat="48.50184" lon="1.54889">
        <ele>141.6</ele>
        <time>2010-01-01T00:00:00Z</time>
      </trkpt>
      <trkpt lat="48.5017" lon="1.54869">
        <ele>141.7</ele>
        <time>2010-01-01T00:00:00Z</time>
      </trkpt>
      <trkpt lat="48.50155" lon="1.54846">
        <ele>142.2</ele>
        <time>2010-01-01T00:00:00Z</time>
      </trkpt>
      <trkpt lat="48.5014" lon="1.54817">
        <ele>142.6</ele>
        <time>2010-01-01T00:00:00Z</time>
      </trkpt>
      <trkpt lat="48.50125" lon="1.54792">
        <ele>142.7</ele>
        <time>2010-01-01T00:00:00Z</time>
      </trkpt>
      <trkpt lat="48.50102" lon="1.54755">
        <ele>142.5</ele>
        <time>2010-01-01T00:00:00Z</time>
      </trkpt>
      <trkpt lat="48.50085" lon="1.54729">
        <ele>142.4</ele>
        <time>2010-01-01T00:00:00Z</time>
      </trkpt>
      <trkpt lat="48.50068" lon="1.54704">
        <ele>142.2</ele>
        <time>2010-01-01T00:00:00Z</time>
      </trkpt>
      <trkpt lat="48.50049" lon="1.54678">
        <ele>142.2</ele>
        <time>2010-01-01T00:00:00Z</time>
      </trkpt>
      <trkpt lat="48.5004" lon="1.54661">
        <ele>141.4</ele>
        <time>2010-01-01T00:00:00Z</time>
      </trkpt>
      <trkpt lat="48.50026" lon="1.54646">
        <ele>141.5</ele>
        <time>2010-01-01T00:00:00Z</time>
      </trkpt>
      <trkpt lat="48.49993" lon="1.5463">
        <ele>143.1</ele>
        <time>2010-01-01T00:00:00Z</time>
      </trkpt>
      <trkpt lat="48.49972" lon="1.54614">
        <ele>143.1</ele>
        <time>2010-01-01T00:00:00Z</time>
      </trkpt>
      <trkpt lat="48.49919" lon="1.54572">
        <ele>144.2</ele>
        <time>2010-01-01T00:00:00Z</time>
      </trkpt>
      <trkpt lat="48.49831" lon="1.54509">
        <ele>145.5</ele>
        <time>2010-01-01T00:00:00Z</time>
      </trkpt>
      <trkpt lat="48.49795" lon="1.54482">
        <ele>146.9</ele>
        <time>2010-01-01T00:00:00Z</time>
      </trkpt>
      <trkpt lat="48.49784" lon="1.54476">
        <ele>147.2</ele>
        <time>2010-01-01T00:00:00Z</time>
      </trkpt>
      <trkpt lat="48.49731" lon="1.5447">
        <ele>149.9</ele>
        <time>2010-01-01T00:00:00Z</time>
      </trkpt>
      <trkpt lat="48.49711" lon="1.54464">
        <ele>150.2</ele>
        <time>2010-01-01T00:00:00Z</time>
      </trkpt>
      <trkpt lat="48.49697" lon="1.54458">
        <ele>150.5</ele>
        <time>2010-01-01T00:00:00Z</time>
      </trkpt>
      <trkpt lat="48.49684" lon="1.5445">
        <ele>150.6</ele>
        <time>2010-01-01T00:00:00Z</time>
      </trkpt>
      <trkpt lat="48.4968" lon="1.54445">
        <ele>150.6</ele>
        <time>2010-01-01T00:00:00Z</time>
      </trkpt>
      <trkpt lat="48.49675" lon="1.54438">
        <ele>150.7</ele>
        <time>2010-01-01T00:00:00Z</time>
      </trkpt>
      <trkpt lat="48.49661" lon="1.54421">
        <ele>151.3</ele>
        <time>2010-01-01T00:00:00Z</time>
      </trkpt>
      <trkpt lat="48.49649" lon="1.5441">
        <ele>151.5</ele>
        <time>2010-01-01T00:00:00Z</time>
      </trkpt>
      <trkpt lat="48.49641" lon="1.54405">
        <ele>151.7</ele>
        <time>2010-01-01T00:00:00Z</time>
      </trkpt>
      <trkpt lat="48.49628" lon="1.54399">
        <ele>151.9</ele>
        <time>2010-01-01T00:00:00Z</time>
      </trkpt>
      <trkpt lat="48.49607" lon="1.54392">
        <ele>152.3</ele>
        <time>2010-01-01T00:00:00Z</time>
      </trkpt>
      <trkpt lat="48.49599" lon="1.5439">
        <ele>152.4</ele>
        <time>2010-01-01T00:00:00Z</time>
      </trkpt>
      <trkpt lat="48.49582" lon="1.54383">
        <ele>153.3</ele>
        <time>2010-01-01T00:00:00Z</time>
      </trkpt>
      <trkpt lat="48.49565" lon="1.54373">
        <ele>153.3</ele>
        <time>2010-01-01T00:00:00Z</time>
      </trkpt>
      <trkpt lat="48.49551" lon="1.54367">
        <ele>153.3</ele>
        <time>2010-01-01T00:00:00Z</time>
      </trkpt>
      <trkpt lat="48.4955" lon="1.54369">
        <ele>153.3</ele>
        <time>2010-01-01T00:00:00Z</time>
      </trkpt>
      <trkpt lat="48.4955" lon="1.54369">
        <ele>153.3</ele>
        <time>2010-01-01T00:00:00Z</time>
      </trkpt>
      <trkpt lat="48.49551" lon="1.54367">
        <ele>153.3</ele>
        <time>2010-01-01T00:00:00Z</time>
      </trkpt>
      <trkpt lat="48.49536" lon="1.54364">
        <ele>153.3</ele>
        <time>2010-01-01T00:00:00Z</time>
      </trkpt>
      <trkpt lat="48.49505" lon="1.54346">
        <ele>153.7</ele>
        <time>2010-01-01T00:00:00Z</time>
      </trkpt>
      <trkpt lat="48.49481" lon="1.54328">
        <ele>153.1</ele>
        <time>2010-01-01T00:00:00Z</time>
      </trkpt>
      <trkpt lat="48.49473" lon="1.54321">
        <ele>152.8</ele>
        <time>2010-01-01T00:00:00Z</time>
      </trkpt>
      <trkpt lat="48.49463" lon="1.54312">
        <ele>152.6</ele>
        <time>2010-01-01T00:00:00Z</time>
      </trkpt>
      <trkpt lat="48.49441" lon="1.54289">
        <ele>152.4</ele>
        <time>2010-01-01T00:00:00Z</time>
      </trkpt>
      <trkpt lat="48.49414" lon="1.54263">
        <ele>152.6</ele>
        <time>2010-01-01T00:00:00Z</time>
      </trkpt>
      <trkpt lat="48.49375" lon="1.54232">
        <ele>151.8</ele>
        <time>2010-01-01T00:00:00Z</time>
      </trkpt>
      <trkpt lat="48.49268" lon="1.54153">
        <ele>149</ele>
        <time>2010-01-01T00:00:00Z</time>
      </trkpt>
      <trkpt lat="48.49229" lon="1.54124">
        <ele>148</ele>
        <time>2010-01-01T00:00:00Z</time>
      </trkpt>
      <trkpt lat="48.49215" lon="1.54116">
        <ele>147.8</ele>
        <time>2010-01-01T00:00:00Z</time>
      </trkpt>
      <trkpt lat="48.4922" lon="1.54126">
        <ele>147.9</ele>
        <time>2010-01-01T00:00:00Z</time>
      </trkpt>
      <trkpt lat="48.49225" lon="1.54139">
        <ele>148.2</ele>
        <time>2010-01-01T00:00:00Z</time>
      </trkpt>
      <trkpt lat="48.49225" lon="1.54139">
        <ele>148.2</ele>
        <time>2010-01-01T00:00:00Z</time>
      </trkpt>
      <trkpt lat="48.4922" lon="1.54126">
        <ele>147.9</ele>
        <time>2010-01-01T00:00:00Z</time>
      </trkpt>
      <trkpt lat="48.49215" lon="1.54116">
        <ele>147.8</ele>
        <time>2010-01-01T00:00:00Z</time>
      </trkpt>
      <trkpt lat="48.49207" lon="1.54105">
        <ele>147.6</ele>
        <time>2010-01-01T00:00:00Z</time>
      </trkpt>
      <trkpt lat="48.49194" lon="1.54094">
        <ele>147.2</ele>
        <time>2010-01-01T00:00:00Z</time>
      </trkpt>
      <trkpt lat="48.49188" lon="1.54091">
        <ele>147</ele>
        <time>2010-01-01T00:00:00Z</time>
      </trkpt>
      <trkpt lat="48.49182" lon="1.54087">
        <ele>146.8</ele>
        <time>2010-01-01T00:00:00Z</time>
      </trkpt>
      <trkpt lat="48.49152" lon="1.54062">
        <ele>144.1</ele>
        <time>2010-01-01T00:00:00Z</time>
      </trkpt>
      <trkpt lat="48.49123" lon="1.54031">
        <ele>143.1</ele>
        <time>2010-01-01T00:00:00Z</time>
      </trkpt>
      <trkpt lat="48.49116" lon="1.54024">
        <ele>143</ele>
        <time>2010-01-01T00:00:00Z</time>
      </trkpt>
      <trkpt lat="48.49082" lon="1.53994">
        <ele>142.1</ele>
        <time>2010-01-01T00:00:00Z</time>
      </trkpt>
      <trkpt lat="48.49061" lon="1.53978">
        <ele>140.2</ele>
        <time>2010-01-01T00:00:00Z</time>
      </trkpt>
      <trkpt lat="48.49038" lon="1.53959">
        <ele>139.3</ele>
        <time>2010-01-01T00:00:00Z</time>
      </trkpt>
      <trkpt lat="48.49021" lon="1.53947">
        <ele>139</ele>
        <time>2010-01-01T00:00:00Z</time>
      </trkpt>
      <trkpt lat="48.49003" lon="1.53932">
        <ele>138.5</ele>
        <time>2010-01-01T00:00:00Z</time>
      </trkpt>
      <trkpt lat="48.48986" lon="1.53913">
        <ele>136</ele>
        <time>2010-01-01T00:00:00Z</time>
      </trkpt>
      <trkpt lat="48.4895" lon="1.53865">
        <ele>132.8</ele>
        <time>2010-01-01T00:00:00Z</time>
      </trkpt>
      <trkpt lat="48.48941" lon="1.5385">
        <ele>132.2</ele>
        <time>2010-01-01T00:00:00Z</time>
      </trkpt>
      <trkpt lat="48.48939" lon="1.53842">
        <ele>132</ele>
        <time>2010-01-01T00:00:00Z</time>
      </trkpt>
      <trkpt lat="48.48937" lon="1.53834">
        <ele>131.8</ele>
        <time>2010-01-01T00:00:00Z</time>
      </trkpt>
      <trkpt lat="48.48937" lon="1.53824">
        <ele>126.9</ele>
        <time>2010-01-01T00:00:00Z</time>
      </trkpt>
      <trkpt lat="48.48939" lon="1.53816">
        <ele>126.2</ele>
        <time>2010-01-01T00:00:00Z</time>
      </trkpt>
      <trkpt lat="48.4894" lon="1.5381">
        <ele>125.7</ele>
        <time>2010-01-01T00:00:00Z</time>
      </trkpt>
      <trkpt lat="48.48942" lon="1.53797">
        <ele>124.8</ele>
        <time>2010-01-01T00:00:00Z</time>
      </trkpt>
      <trkpt lat="48.48943" lon="1.53786">
        <ele>124.1</ele>
        <time>2010-01-01T00:00:00Z</time>
      </trkpt>
      <trkpt lat="48.48942" lon="1.53777">
        <ele>123.7</ele>
        <time>2010-01-01T00:00:00Z</time>
      </trkpt>
      <trkpt lat="48.48939" lon="1.53767">
        <ele>123.3</ele>
        <time>2010-01-01T00:00:00Z</time>
      </trkpt>
      <trkpt lat="48.48932" lon="1.53757">
        <ele>122.9</ele>
        <time>2010-01-01T00:00:00Z</time>
      </trkpt>
      <trkpt lat="48.48923" lon="1.53744">
        <ele>120.8</ele>
        <time>2010-01-01T00:00:00Z</time>
      </trkpt>
      <trkpt lat="48.48871" lon="1.5367">
        <ele>120.8</ele>
        <time>2010-01-01T00:00:00Z</time>
      </trkpt>
      <trkpt lat="48.4886" lon="1.53663">
        <ele>118.2</ele>
        <time>2010-01-01T00:00:00Z</time>
      </trkpt>
      <trkpt lat="48.48858" lon="1.53659">
        <ele>118.2</ele>
        <time>2010-01-01T00:00:00Z</time>
      </trkpt>
      <trkpt lat="48.48855" lon="1.53661">
        <ele>118.3</ele>
        <time>2010-01-01T00:00:00Z</time>
      </trkpt>
      <trkpt lat="48.48855" lon="1.53661">
        <ele>118.3</ele>
        <time>2010-01-01T00:00:00Z</time>
      </trkpt>
      <trkpt lat="48.48858" lon="1.53659">
        <ele>118.2</ele>
        <time>2010-01-01T00:00:00Z</time>
      </trkpt>
      <trkpt lat="48.48856" lon="1.53655">
        <ele>118.2</ele>
        <time>2010-01-01T00:00:00Z</time>
      </trkpt>
      <trkpt lat="48.48845" lon="1.5363">
        <ele>117.6</ele>
        <time>2010-01-01T00:00:00Z</time>
      </trkpt>
      <trkpt lat="48.48838" lon="1.53611">
        <ele>117.1</ele>
        <time>2010-01-01T00:00:00Z</time>
      </trkpt>
      <trkpt lat="48.48836" lon="1.53604">
        <ele>116.9</ele>
        <time>2010-01-01T00:00:00Z</time>
      </trkpt>
      <trkpt lat="48.48834" lon="1.53598">
        <ele>116.7</ele>
        <time>2010-01-01T00:00:00Z</time>
      </trkpt>
      <trkpt lat="48.48802" lon="1.53505">
        <ele>116.1</ele>
        <time>2010-01-01T00:00:00Z</time>
      </trkpt>
      <trkpt lat="48.48778" lon="1.53438">
        <ele>117</ele>
        <time>2010-01-01T00:00:00Z</time>
      </trkpt>
      <trkpt lat="48.48768" lon="1.53407">
        <ele>118.2</ele>
        <time>2010-01-01T00:00:00Z</time>
      </trkpt>
      <trkpt lat="48.48765" lon="1.53393">
        <ele>118.2</ele>
        <time>2010-01-01T00:00:00Z</time>
      </trkpt>
      <trkpt lat="48.48764" lon="1.53372">
        <ele>118.3</ele>
        <time>2010-01-01T00:00:00Z</time>
      </trkpt>
      <trkpt lat="48.48764" lon="1.53346">
        <ele>118.8</ele>
        <time>2010-01-01T00:00:00Z</time>
      </trkpt>
      <trkpt lat="48.4876" lon="1.53322">
        <ele>119.2</ele>
        <time>2010-01-01T00:00:00Z</time>
      </trkpt>
      <trkpt lat="48.48744" lon="1.53288">
        <ele>118.4</ele>
        <time>2010-01-01T00:00:00Z</time>
      </trkpt>
      <trkpt lat="48.48723" lon="1.53246">
        <ele>117.7</ele>
        <time>2010-01-01T00:00:00Z</time>
      </trkpt>
      <trkpt lat="48.48708" lon="1.53218">
        <ele>116.8</ele>
        <time>2010-01-01T00:00:00Z</time>
      </trkpt>
      <trkpt lat="48.48706" lon="1.53208">
        <ele>116.7</ele>
        <time>2010-01-01T00:00:00Z</time>
      </trkpt>
      <trkpt lat="48.48705" lon="1.53203">
        <ele>116.7</ele>
        <time>2010-01-01T00:00:00Z</time>
      </trkpt>
      <trkpt lat="48.48701" lon="1.53199">
        <ele>116.6</ele>
        <time>2010-01-01T00:00:00Z</time>
      </trkpt>
      <trkpt lat="48.48701" lon="1.53199">
        <ele>116.6</ele>
        <time>2010-01-01T00:00:00Z</time>
      </trkpt>
      <trkpt lat="48.48705" lon="1.53203">
        <ele>116.7</ele>
        <time>2010-01-01T00:00:00Z</time>
      </trkpt>
      <trkpt lat="48.487" lon="1.53168">
        <ele>116.4</ele>
        <time>2010-01-01T00:00:00Z</time>
      </trkpt>
      <trkpt lat="48.48698" lon="1.5314">
        <ele>116.2</ele>
        <time>2010-01-01T00:00:00Z</time>
      </trkpt>
      <trkpt lat="48.48696" lon="1.53102">
        <ele>116.4</ele>
        <time>2010-01-01T00:00:00Z</time>
      </trkpt>
      <trkpt lat="48.48692" lon="1.53014">
        <ele>116.9</ele>
        <time>2010-01-01T00:00:00Z</time>
      </trkpt>
      <trkpt lat="48.48692" lon="1.53014">
        <ele>116.9</ele>
        <time>2010-01-01T00:00:00Z</time>
      </trkpt>
      <trkpt lat="48.48692" lon="1.53009">
        <ele>116.9</ele>
        <time>2010-01-01T00:00:00Z</time>
      </trkpt>
      <trkpt lat="48.4869" lon="1.52995">
        <ele>117</ele>
        <time>2010-01-01T00:00:00Z</time>
      </trkpt>
      <trkpt lat="48.48683" lon="1.52969">
        <ele>116.9</ele>
        <time>2010-01-01T00:00:00Z</time>
      </trkpt>
      <trkpt lat="48.48669" lon="1.52933">
        <ele>116.5</ele>
        <time>2010-01-01T00:00:00Z</time>
      </trkpt>
      <trkpt lat="48.48657" lon="1.5291">
        <ele>116.5</ele>
        <time>2010-01-01T00:00:00Z</time>
      </trkpt>
      <trkpt lat="48.48605" lon="1.52817">
        <ele>118.5</ele>
        <time>2010-01-01T00:00:00Z</time>
      </trkpt>
      <trkpt lat="48.48584" lon="1.52781">
        <ele>118.7</ele>
        <time>2010-01-01T00:00:00Z</time>
      </trkpt>
      <trkpt lat="48.48554" lon="1.52719">
        <ele>120.1</ele>
        <time>2010-01-01T00:00:00Z</time>
      </trkpt>
      <trkpt lat="48.48554" lon="1.52715">
        <ele>120.1</ele>
        <time>2010-01-01T00:00:00Z</time>
      </trkpt>
      <trkpt lat="48.48554" lon="1.52715">
        <ele>120.1</ele>
        <time>2010-01-01T00:00:00Z</time>
      </trkpt>
      <trkpt lat="48.48551" lon="1.52704">
        <ele>120.2</ele>
        <time>2010-01-01T00:00:00Z</time>
      </trkpt>
      <trkpt lat="48.48549" lon="1.52687">
        <ele>120.2</ele>
        <time>2010-01-01T00:00:00Z</time>
      </trkpt>
      <trkpt lat="48.48539" lon="1.52674">
        <ele>120.2</ele>
        <time>2010-01-01T00:00:00Z</time>
      </trkpt>
      <trkpt lat="48.48532" lon="1.52662">
        <ele>120.1</ele>
        <time>2010-01-01T00:00:00Z</time>
      </trkpt>
      <trkpt lat="48.48524" lon="1.52646">
        <ele>120.2</ele>
        <time>2010-01-01T00:00:00Z</time>
      </trkpt>
      <trkpt lat="48.4851" lon="1.52619">
        <ele>120.2</ele>
        <time>2010-01-01T00:00:00Z</time>
      </trkpt>
      <trkpt lat="48.48473" lon="1.52549">
        <ele>118.5</ele>
        <time>2010-01-01T00:00:00Z</time>
      </trkpt>
      <trkpt lat="48.48467" lon="1.52536">
        <ele>118.3</ele>
        <time>2010-01-01T00:00:00Z</time>
      </trkpt>
      <trkpt lat="48.48453" lon="1.52507">
        <ele>117.9</ele>
        <time>2010-01-01T00:00:00Z</time>
      </trkpt>
      <trkpt lat="48.48429" lon="1.52463">
        <ele>117.6</ele>
        <time>2010-01-01T00:00:00Z</time>
      </trkpt>
      <trkpt lat="48.48418" lon="1.52445">
        <ele>117.8</ele>
        <time>2010-01-01T00:00:00Z</time>
      </trkpt>
      <trkpt lat="48.48406" lon="1.52428">
        <ele>118.4</ele>
        <time>2010-01-01T00:00:00Z</time>
      </trkpt>
      <trkpt lat="48.4839" lon="1.52407">
        <ele>119.6</ele>
        <time>2010-01-01T00:00:00Z</time>
      </trkpt>
      <trkpt lat="48.48375" lon="1.52389">
        <ele>120.1</ele>
        <time>2010-01-01T00:00:00Z</time>
      </trkpt>
      <trkpt lat="48.48373" lon="1.52377">
        <ele>120.3</ele>
        <time>2010-01-01T00:00:00Z</time>
      </trkpt>
      <trkpt lat="48.48373" lon="1.52377">
        <ele>120.3</ele>
        <time>2010-01-01T00:00:00Z</time>
      </trkpt>
      <trkpt lat="48.48369" lon="1.52342">
        <ele>120.5</ele>
        <time>2010-01-01T00:00:00Z</time>
      </trkpt>
      <trkpt lat="48.48367" lon="1.52318">
        <ele>121</ele>
        <time>2010-01-01T00:00:00Z</time>
      </trkpt>
      <trkpt lat="48.48367" lon="1.52299">
        <ele>121</ele>
        <time>2010-01-01T00:00:00Z</time>
      </trkpt>
      <trkpt lat="48.48366" lon="1.52282">
        <ele>121.1</ele>
        <time>2010-01-01T00:00:00Z</time>
      </trkpt>
      <trkpt lat="48.48369" lon="1.52227">
        <ele>120.7</ele>
        <time>2010-01-01T00:00:00Z</time>
      </trkpt>
      <trkpt lat="48.48369" lon="1.52166">
        <ele>120.1</ele>
        <time>2010-01-01T00:00:00Z</time>
      </trkpt>
      <trkpt lat="48.48367" lon="1.52096">
        <ele>120.1</ele>
        <time>2010-01-01T00:00:00Z</time>
      </trkpt>
      <trkpt lat="48.48366" lon="1.52019">
        <ele>120.2</ele>
        <time>2010-01-01T00:00:00Z</time>
      </trkpt>
      <trkpt lat="48.48365" lon="1.51956">
        <ele>120.2</ele>
        <time>2010-01-01T00:00:00Z</time>
      </trkpt>
      <trkpt lat="48.48364" lon="1.51909">
        <ele>120.4</ele>
        <time>2010-01-01T00:00:00Z</time>
      </trkpt>
      <trkpt lat="48.48363" lon="1.51887">
        <ele>120.4</ele>
        <time>2010-01-01T00:00:00Z</time>
      </trkpt>
      <trkpt lat="48.48361" lon="1.5185">
        <ele>120.6</ele>
        <time>2010-01-01T00:00:00Z</time>
      </trkpt>
      <trkpt lat="48.48359" lon="1.51811">
        <ele>121</ele>
        <time>2010-01-01T00:00:00Z</time>
      </trkpt>
      <trkpt lat="48.48359" lon="1.51776">
        <ele>121.1</ele>
        <time>2010-01-01T00:00:00Z</time>
      </trkpt>
      <trkpt lat="48.48359" lon="1.51774">
        <ele>121.1</ele>
        <time>2010-01-01T00:00:00Z</time>
      </trkpt>
      <trkpt lat="48.48359" lon="1.51774">
        <ele>121.1</ele>
        <time>2010-01-01T00:00:00Z</time>
      </trkpt>
      <trkpt lat="48.4836" lon="1.51749">
        <ele>121.4</ele>
        <time>2010-01-01T00:00:00Z</time>
      </trkpt>
      <trkpt lat="48.48366" lon="1.51694">
        <ele>121</ele>
        <time>2010-01-01T00:00:00Z</time>
      </trkpt>
      <trkpt lat="48.4839" lon="1.51472">
        <ele>127</ele>
        <time>2010-01-01T00:00:00Z</time>
      </trkpt>
      <trkpt lat="48.48404" lon="1.5136">
        <ele>126.1</ele>
        <time>2010-01-01T00:00:00Z</time>
      </trkpt>
      <trkpt lat="48.4841" lon="1.51294">
        <ele>125.9</ele>
        <time>2010-01-01T00:00:00Z</time>
      </trkpt>
      <trkpt lat="48.48413" lon="1.51238">
        <ele>125.5</ele>
        <time>2010-01-01T00:00:00Z</time>
      </trkpt>
      <trkpt lat="48.48414" lon="1.51227">
        <ele>125.7</ele>
        <time>2010-01-01T00:00:00Z</time>
      </trkpt>
      <trkpt lat="48.48414" lon="1.51213">
        <ele>125.8</ele>
        <time>2010-01-01T00:00:00Z</time>
      </trkpt>
      <trkpt lat="48.48414" lon="1.51213">
        <ele>125.8</ele>
        <time>2010-01-01T00:00:00Z</time>
      </trkpt>
      <trkpt lat="48.48414" lon="1.51201">
        <ele>125.8</ele>
        <time>2010-01-01T00:00:00Z</time>
      </trkpt>
      <trkpt lat="48.48413" lon="1.51185">
        <ele>125.6</ele>
        <time>2010-01-01T00:00:00Z</time>
      </trkpt>
      <trkpt lat="48.48412" lon="1.51171">
        <ele>125.3</ele>
        <time>2010-01-01T00:00:00Z</time>
      </trkpt>
      <trkpt lat="48.48407" lon="1.51146">
        <ele>125.1</ele>
        <time>2010-01-01T00:00:00Z</time>
      </trkpt>
      <trkpt lat="48.48402" lon="1.51132">
        <ele>125.1</ele>
        <time>2010-01-01T00:00:00Z</time>
      </trkpt>
      <trkpt lat="48.48367" lon="1.51071">
        <ele>125.5</ele>
        <time>2010-01-01T00:00:00Z</time>
      </trkpt>
      <trkpt lat="48.48345" lon="1.51032">
        <ele>126.1</ele>
        <time>2010-01-01T00:00:00Z</time>
      </trkpt>
      <trkpt lat="48.48326" lon="1.50996">
        <ele>128.2</ele>
        <time>2010-01-01T00:00:00Z</time>
      </trkpt>
      <trkpt lat="48.48299" lon="1.50946">
        <ele>128.8</ele>
        <time>2010-01-01T00:00:00Z</time>
      </trkpt>
      <trkpt lat="48.48283" lon="1.50915">
        <ele>129</ele>
        <time>2010-01-01T00:00:00Z</time>
      </trkpt>
      <trkpt lat="48.48269" lon="1.50893">
        <ele>129.1</ele>
        <time>2010-01-01T00:00:00Z</time>
      </trkpt>
      <trkpt lat="48.48257" lon="1.50875">
        <ele>129.2</ele>
        <time>2010-01-01T00:00:00Z</time>
      </trkpt>
      <trkpt lat="48.48242" lon="1.50856">
        <ele>130.1</ele>
        <time>2010-01-01T00:00:00Z</time>
      </trkpt>
      <trkpt lat="48.48191" lon="1.5079">
        <ele>130.8</ele>
        <time>2010-01-01T00:00:00Z</time>
      </trkpt>
      <trkpt lat="48.48175" lon="1.50771">
        <ele>130.9</ele>
        <time>2010-01-01T00:00:00Z</time>
      </trkpt>
      <trkpt lat="48.48143" lon="1.50738">
        <ele>131</ele>
        <time>2010-01-01T00:00:00Z</time>
      </trkpt>
      <trkpt lat="48.48138" lon="1.50733">
        <ele>131</ele>
        <time>2010-01-01T00:00:00Z</time>
      </trkpt>
      <trkpt lat="48.48129" lon="1.50722">
        <ele>131</ele>
        <time>2010-01-01T00:00:00Z</time>
      </trkpt>
      <trkpt lat="48.48121" lon="1.50708">
        <ele>131</ele>
        <time>2010-01-01T00:00:00Z</time>
      </trkpt>
      <trkpt lat="48.48116" lon="1.507">
        <ele>130.9</ele>
        <time>2010-01-01T00:00:00Z</time>
      </trkpt>
      <trkpt lat="48.48115" lon="1.50698">
        <ele>130.9</ele>
        <time>2010-01-01T00:00:00Z</time>
      </trkpt>
      <trkpt lat="48.48066" lon="1.50615">
        <ele>129.6</ele>
        <time>2010-01-01T00:00:00Z</time>
      </trkpt>
      <trkpt lat="48.48029" lon="1.50565">
        <ele>128.4</ele>
        <time>2010-01-01T00:00:00Z</time>
      </trkpt>
      <trkpt lat="48.48006" lon="1.50537">
        <ele>128.3</ele>
        <time>2010-01-01T00:00:00Z</time>
      </trkpt>
      <trkpt lat="48.47944" lon="1.50462">
        <ele>127.3</ele>
        <time>2010-01-01T00:00:00Z</time>
      </trkpt>
      <trkpt lat="48.47934" lon="1.50451">
        <ele>127</ele>
        <time>2010-01-01T00:00:00Z</time>
      </trkpt>
      <trkpt lat="48.47927" lon="1.50444">
        <ele>126.9</ele>
        <time>2010-01-01T00:00:00Z</time>
      </trkpt>
      <trkpt lat="48.47922" lon="1.50441">
        <ele>126.8</ele>
        <time>2010-01-01T00:00:00Z</time>
      </trkpt>
      <trkpt lat="48.4792" lon="1.50436">
        <ele>126.6</ele>
        <time>2010-01-01T00:00:00Z</time>
      </trkpt>
      <trkpt lat="48.47917" lon="1.50432">
        <ele>126.5</ele>
        <time>2010-01-01T00:00:00Z</time>
      </trkpt>
      <trkpt lat="48.47887" lon="1.50407">
        <ele>126.8</ele>
        <time>2010-01-01T00:00:00Z</time>
      </trkpt>
      <trkpt lat="48.47858" lon="1.50375">
        <ele>127.4</ele>
        <time>2010-01-01T00:00:00Z</time>
      </trkpt>
      <trkpt lat="48.47851" lon="1.50366">
        <ele>127.5</ele>
        <time>2010-01-01T00:00:00Z</time>
      </trkpt>
      <trkpt lat="48.47828" lon="1.50341">
        <ele>129.9</ele>
        <time>2010-01-01T00:00:00Z</time>
      </trkpt>
      <trkpt lat="48.47823" lon="1.50335">
        <ele>130</ele>
        <time>2010-01-01T00:00:00Z</time>
      </trkpt>
      <trkpt lat="48.47822" lon="1.50328">
        <ele>128.7</ele>
        <time>2010-01-01T00:00:00Z</time>
      </trkpt>
      <trkpt lat="48.47821" lon="1.50315">
        <ele>128.4</ele>
        <time>2010-01-01T00:00:00Z</time>
      </trkpt>
      <trkpt lat="48.4782" lon="1.50311">
        <ele>128.3</ele>
        <time>2010-01-01T00:00:00Z</time>
      </trkpt>
      <trkpt lat="48.4782" lon="1.50311">
        <ele>128.3</ele>
        <time>2010-01-01T00:00:00Z</time>
      </trkpt>
      <trkpt lat="48.47819" lon="1.50309">
        <ele>128.3</ele>
        <time>2010-01-01T00:00:00Z</time>
      </trkpt>
      <trkpt lat="48.47816" lon="1.50303">
        <ele>128.1</ele>
        <time>2010-01-01T00:00:00Z</time>
      </trkpt>
      <trkpt lat="48.47808" lon="1.50295">
        <ele>128</ele>
        <time>2010-01-01T00:00:00Z</time>
      </trkpt>
      <trkpt lat="48.47781" lon="1.50277">
        <ele>128.1</ele>
        <time>2010-01-01T00:00:00Z</time>
      </trkpt>
      <trkpt lat="48.47741" lon="1.50218">
        <ele>129.1</ele>
        <time>2010-01-01T00:00:00Z</time>
      </trkpt>
      <trkpt lat="48.47735" lon="1.5021">
        <ele>129.1</ele>
        <time>2010-01-01T00:00:00Z</time>
      </trkpt>
      <trkpt lat="48.47729" lon="1.50206">
        <ele>129.2</ele>
        <time>2010-01-01T00:00:00Z</time>
      </trkpt>
      <trkpt lat="48.47705" lon="1.50193">
        <ele>130.1</ele>
        <time>2010-01-01T00:00:00Z</time>
      </trkpt>
      <trkpt lat="48.47681" lon="1.5017">
        <ele>131.6</ele>
        <time>2010-01-01T00:00:00Z</time>
      </trkpt>
      <trkpt lat="48.47675" lon="1.50163">
        <ele>131</ele>
        <time>2010-01-01T00:00:00Z</time>
      </trkpt>
      <trkpt lat="48.47671" lon="1.50155">
        <ele>130.5</ele>
        <time>2010-01-01T00:00:00Z</time>
      </trkpt>
      <trkpt lat="48.47665" lon="1.50131">
        <ele>132.9</ele>
        <time>2010-01-01T00:00:00Z</time>
      </trkpt>
      <trkpt lat="48.47661" lon="1.50118">
        <ele>132.3</ele>
        <time>2010-01-01T00:00:00Z</time>
      </trkpt>
      <trkpt lat="48.47656" lon="1.50107">
        <ele>131.6</ele>
        <time>2010-01-01T00:00:00Z</time>
      </trkpt>
      <trkpt lat="48.47651" lon="1.50097">
        <ele>131.1</ele>
        <time>2010-01-01T00:00:00Z</time>
      </trkpt>
      <trkpt lat="48.47637" lon="1.50074">
        <ele>128.3</ele>
        <time>2010-01-01T00:00:00Z</time>
      </trkpt>
      <trkpt lat="48.47611" lon="1.50034">
        <ele>128</ele>
        <time>2010-01-01T00:00:00Z</time>
      </trkpt>
      <trkpt lat="48.47606" lon="1.50026">
        <ele>127.8</ele>
        <time>2010-01-01T00:00:00Z</time>
      </trkpt>
      <trkpt lat="48.47602" lon="1.50021">
        <ele>127.6</ele>
        <time>2010-01-01T00:00:00Z</time>
      </trkpt>
      <trkpt lat="48.476" lon="1.50018">
        <ele>127.4</ele>
        <time>2010-01-01T00:00:00Z</time>
      </trkpt>
      <trkpt lat="48.47567" lon="1.4999">
        <ele>127.1</ele>
        <time>2010-01-01T00:00:00Z</time>
      </trkpt>
      <trkpt lat="48.47554" lon="1.49976">
        <ele>127.7</ele>
        <time>2010-01-01T00:00:00Z</time>
      </trkpt>
      <trkpt lat="48.47542" lon="1.49961">
        <ele>127.8</ele>
        <time>2010-01-01T00:00:00Z</time>
      </trkpt>
      <trkpt lat="48.47513" lon="1.49921">
        <ele>127.8</ele>
        <time>2010-01-01T00:00:00Z</time>
      </trkpt>
      <trkpt lat="48.47504" lon="1.49907">
        <ele>126.4</ele>
        <time>2010-01-01T00:00:00Z</time>
      </trkpt>
      <trkpt lat="48.47486" lon="1.49879">
        <ele>130.7</ele>
        <time>2010-01-01T00:00:00Z</time>
      </trkpt>
      <trkpt lat="48.47444" lon="1.49816">
        <ele>128</ele>
        <time>2010-01-01T00:00:00Z</time>
      </trkpt>
      <trkpt lat="48.47425" lon="1.49785">
        <ele>126.5</ele>
        <time>2010-01-01T00:00:00Z</time>
      </trkpt>
      <trkpt lat="48.47411" lon="1.49765">
        <ele>128.8</ele>
        <time>2010-01-01T00:00:00Z</time>
      </trkpt>
      <trkpt lat="48.47392" lon="1.49742">
        <ele>126.6</ele>
        <time>2010-01-01T00:00:00Z</time>
      </trkpt>
      <trkpt lat="48.47382" lon="1.49725">
        <ele>127.3</ele>
        <time>2010-01-01T00:00:00Z</time>
      </trkpt>
      <trkpt lat="48.47376" lon="1.49716">
        <ele>127.4</ele>
        <time>2010-01-01T00:00:00Z</time>
      </trkpt>
      <trkpt lat="48.47373" lon="1.4971">
        <ele>127.4</ele>
        <time>2010-01-01T00:00:00Z</time>
      </trkpt>
      <trkpt lat="48.47371" lon="1.49701">
        <ele>127.3</ele>
        <time>2010-01-01T00:00:00Z</time>
      </trkpt>
      <trkpt lat="48.47368" lon="1.4969">
        <ele>127.1</ele>
        <time>2010-01-01T00:00:00Z</time>
      </trkpt>
      <trkpt lat="48.47364" lon="1.49683">
        <ele>127.2</ele>
        <time>2010-01-01T00:00:00Z</time>
      </trkpt>
      <trkpt lat="48.47345" lon="1.49652">
        <ele>125.8</ele>
        <time>2010-01-01T00:00:00Z</time>
      </trkpt>
      <trkpt lat="48.47323" lon="1.49621">
        <ele>129.8</ele>
        <time>2010-01-01T00:00:00Z</time>
      </trkpt>
      <trkpt lat="48.47303" lon="1.49598">
        <ele>129.8</ele>
        <time>2010-01-01T00:00:00Z</time>
      </trkpt>
      <trkpt lat="48.47284" lon="1.49578">
        <ele>127.5</ele>
        <time>2010-01-01T00:00:00Z</time>
      </trkpt>
      <trkpt lat="48.47265" lon="1.49556">
        <ele>128</ele>
        <time>2010-01-01T00:00:00Z</time>
      </trkpt>
      <trkpt lat="48.47251" lon="1.49543">
        <ele>127.6</ele>
        <time>2010-01-01T00:00:00Z</time>
      </trkpt>
      <trkpt lat="48.47238" lon="1.49531">
        <ele>133.8</ele>
        <time>2010-01-01T00:00:00Z</time>
      </trkpt>
      <trkpt lat="48.47233" lon="1.49525">
        <ele>133.7</ele>
        <time>2010-01-01T00:00:00Z</time>
      </trkpt>
      <trkpt lat="48.4722" lon="1.49509">
        <ele>134.2</ele>
        <time>2010-01-01T00:00:00Z</time>
      </trkpt>
      <trkpt lat="48.47213" lon="1.49499">
        <ele>130.3</ele>
        <time>2010-01-01T00:00:00Z</time>
      </trkpt>
      <trkpt lat="48.47213" lon="1.49499">
        <ele>130.3</ele>
        <time>2010-01-01T00:00:00Z</time>
      </trkpt>
      <trkpt lat="48.47204" lon="1.49486">
        <ele>131</ele>
        <time>2010-01-01T00:00:00Z</time>
      </trkpt>
      <trkpt lat="48.47178" lon="1.49437">
        <ele>129.6</ele>
        <time>2010-01-01T00:00:00Z</time>
      </trkpt>
      <trkpt lat="48.47167" lon="1.4941">
        <ele>127.7</ele>
        <time>2010-01-01T00:00:00Z</time>
      </trkpt>
      <trkpt lat="48.47153" lon="1.49374">
        <ele>133.1</ele>
        <time>2010-01-01T00:00:00Z</time>
      </trkpt>
      <trkpt lat="48.47149" lon="1.49362">
        <ele>132.7</ele>
        <time>2010-01-01T00:00:00Z</time>
      </trkpt>
      <trkpt lat="48.47137" lon="1.49318">
        <ele>129.8</ele>
        <time>2010-01-01T00:00:00Z</time>
      </trkpt>
      <trkpt lat="48.4713" lon="1.49288">
        <ele>130.2</ele>
        <time>2010-01-01T00:00:00Z</time>
      </trkpt>
      <trkpt lat="48.47124" lon="1.49273">
        <ele>130.4</ele>
        <time>2010-01-01T00:00:00Z</time>
      </trkpt>
      <trkpt lat="48.47115" lon="1.49252">
        <ele>131.2</ele>
        <time>2010-01-01T00:00:00Z</time>
      </trkpt>
      <trkpt lat="48.47109" lon="1.4924">
        <ele>129.6</ele>
        <time>2010-01-01T00:00:00Z</time>
      </trkpt>
      <trkpt lat="48.47104" lon="1.49227">
        <ele>129.4</ele>
        <time>2010-01-01T00:00:00Z</time>
      </trkpt>
      <trkpt lat="48.47103" lon="1.49225">
        <ele>129.4</ele>
        <time>2010-01-01T00:00:00Z</time>
      </trkpt>
      <trkpt lat="48.47102" lon="1.49222">
        <ele>129.2</ele>
        <time>2010-01-01T00:00:00Z</time>
      </trkpt>
      <trkpt lat="48.471" lon="1.49216">
        <ele>129</ele>
        <time>2010-01-01T00:00:00Z</time>
      </trkpt>
      <trkpt lat="48.47098" lon="1.49212">
        <ele>128.9</ele>
        <time>2010-01-01T00:00:00Z</time>
      </trkpt>
      <trkpt lat="48.47097" lon="1.49208">
        <ele>128.8</ele>
        <time>2010-01-01T00:00:00Z</time>
      </trkpt>
      <trkpt lat="48.47095" lon="1.49204">
        <ele>128.7</ele>
        <time>2010-01-01T00:00:00Z</time>
      </trkpt>
      <trkpt lat="48.47094" lon="1.49201">
        <ele>128.7</ele>
        <time>2010-01-01T00:00:00Z</time>
      </trkpt>
      <trkpt lat="48.47079" lon="1.49176">
        <ele>132.9</ele>
        <time>2010-01-01T00:00:00Z</time>
      </trkpt>
      <trkpt lat="48.47077" lon="1.49172">
        <ele>132.5</ele>
        <time>2010-01-01T00:00:00Z</time>
      </trkpt>
      <trkpt lat="48.47076" lon="1.49168">
        <ele>132.3</ele>
        <time>2010-01-01T00:00:00Z</time>
      </trkpt>
      <trkpt lat="48.47071" lon="1.49158">
        <ele>131.9</ele>
        <time>2010-01-01T00:00:00Z</time>
      </trkpt>
      <trkpt lat="48.47069" lon="1.49153">
        <ele>132.2</ele>
        <time>2010-01-01T00:00:00Z</time>
      </trkpt>
      <trkpt lat="48.47066" lon="1.49144">
        <ele>132.6</ele>
        <time>2010-01-01T00:00:00Z</time>
      </trkpt>
      <trkpt lat="48.47065" lon="1.49137">
        <ele>132.7</ele>
        <time>2010-01-01T00:00:00Z</time>
      </trkpt>
      <trkpt lat="48.47065" lon="1.4913">
        <ele>132.6</ele>
        <time>2010-01-01T00:00:00Z</time>
      </trkpt>
      <trkpt lat="48.47065" lon="1.49122">
        <ele>132.4</ele>
        <time>2010-01-01T00:00:00Z</time>
      </trkpt>
      <trkpt lat="48.47064" lon="1.49114">
        <ele>132.1</ele>
        <time>2010-01-01T00:00:00Z</time>
      </trkpt>
      <trkpt lat="48.47064" lon="1.49107">
        <ele>131.7</ele>
        <time>2010-01-01T00:00:00Z</time>
      </trkpt>
      <trkpt lat="48.47062" lon="1.49092">
        <ele>130.9</ele>
        <time>2010-01-01T00:00:00Z</time>
      </trkpt>
      <trkpt lat="48.47061" lon="1.49085">
        <ele>130.8</ele>
        <time>2010-01-01T00:00:00Z</time>
      </trkpt>
      <trkpt lat="48.4706" lon="1.49079">
        <ele>128</ele>
        <time>2010-01-01T00:00:00Z</time>
      </trkpt>
      <trkpt lat="48.47059" lon="1.49073">
        <ele>128</ele>
        <time>2010-01-01T00:00:00Z</time>
      </trkpt>
      <trkpt lat="48.47058" lon="1.49067">
        <ele>128</ele>
        <time>2010-01-01T00:00:00Z</time>
      </trkpt>
      <trkpt lat="48.47057" lon="1.49059">
        <ele>128</ele>
        <time>2010-01-01T00:00:00Z</time>
      </trkpt>
      <trkpt lat="48.47056" lon="1.49044">
        <ele>127.6</ele>
        <time>2010-01-01T00:00:00Z</time>
      </trkpt>
      <trkpt lat="48.47055" lon="1.49037">
        <ele>127.3</ele>
        <time>2010-01-01T00:00:00Z</time>
      </trkpt>
      <trkpt lat="48.47054" lon="1.49029">
        <ele>127</ele>
        <time>2010-01-01T00:00:00Z</time>
      </trkpt>
      <trkpt lat="48.47053" lon="1.49022">
        <ele>126.7</ele>
        <time>2010-01-01T00:00:00Z</time>
      </trkpt>
      <trkpt lat="48.47052" lon="1.49015">
        <ele>126.5</ele>
        <time>2010-01-01T00:00:00Z</time>
      </trkpt>
      <trkpt lat="48.47051" lon="1.49009">
        <ele>126.3</ele>
        <time>2010-01-01T00:00:00Z</time>
      </trkpt>
      <trkpt lat="48.4705" lon="1.49004">
        <ele>126.3</ele>
        <time>2010-01-01T00:00:00Z</time>
      </trkpt>
      <trkpt lat="48.47049" lon="1.49">
        <ele>123.9</ele>
        <time>2010-01-01T00:00:00Z</time>
      </trkpt>
      <trkpt lat="48.47047" lon="1.48995">
        <ele>123.4</ele>
        <time>2010-01-01T00:00:00Z</time>
      </trkpt>
      <trkpt lat="48.47047" lon="1.48995">
        <ele>123.4</ele>
        <time>2010-01-01T00:00:00Z</time>
      </trkpt>
      <trkpt lat="48.47044" lon="1.48989">
        <ele>123.5</ele>
        <time>2010-01-01T00:00:00Z</time>
      </trkpt>
      <trkpt lat="48.47042" lon="1.48984">
        <ele>123.6</ele>
        <time>2010-01-01T00:00:00Z</time>
      </trkpt>
      <trkpt lat="48.4704" lon="1.48981">
        <ele>123.6</ele>
        <time>2010-01-01T00:00:00Z</time>
      </trkpt>
      <trkpt lat="48.4704" lon="1.48981">
        <ele>123.6</ele>
        <time>2010-01-01T00:00:00Z</time>
      </trkpt>
      <trkpt lat="48.4704" lon="1.48981">
        <ele>123.6</ele>
        <time>2010-01-01T00:00:00Z</time>
      </trkpt>
      <trkpt lat="48.47038" lon="1.48976">
        <ele>123.7</ele>
        <time>2010-01-01T00:00:00Z</time>
      </trkpt>
      <trkpt lat="48.47036" lon="1.48966">
        <ele>123.6</ele>
        <time>2010-01-01T00:00:00Z</time>
      </trkpt>
      <trkpt lat="48.47036" lon="1.48962">
        <ele>123.5</ele>
        <time>2010-01-01T00:00:00Z</time>
      </trkpt>
      <trkpt lat="48.47038" lon="1.48956">
        <ele>123.3</ele>
        <time>2010-01-01T00:00:00Z</time>
      </trkpt>
      <trkpt lat="48.47041" lon="1.48954">
        <ele>123.2</ele>
        <time>2010-01-01T00:00:00Z</time>
      </trkpt>
      <trkpt lat="48.47043" lon="1.48954">
        <ele>123.1</ele>
        <time>2010-01-01T00:00:00Z</time>
      </trkpt>
      <trkpt lat="48.47045" lon="1.48953">
        <ele>123.1</ele>
        <time>2010-01-01T00:00:00Z</time>
      </trkpt>
      <trkpt lat="48.47051" lon="1.48951">
        <ele>122.8</ele>
        <time>2010-01-01T00:00:00Z</time>
      </trkpt>
      <trkpt lat="48.47058" lon="1.48949">
        <ele>122.6</ele>
        <time>2010-01-01T00:00:00Z</time>
      </trkpt>
      <trkpt lat="48.47062" lon="1.48948">
        <ele>122.5</ele>
        <time>2010-01-01T00:00:00Z</time>
      </trkpt>
      <trkpt lat="48.47069" lon="1.48946">
        <ele>122.2</ele>
        <time>2010-01-01T00:00:00Z</time>
      </trkpt>
      <trkpt lat="48.47073" lon="1.48945">
        <ele>122.1</ele>
        <time>2010-01-01T00:00:00Z</time>
      </trkpt>
      <trkpt lat="48.47076" lon="1.48944">
        <ele>122</ele>
        <time>2010-01-01T00:00:00Z</time>
      </trkpt>
      <trkpt lat="48.47081" lon="1.4894">
        <ele>121.8</ele>
        <time>2010-01-01T00:00:00Z</time>
      </trkpt>
      <trkpt lat="48.47083" lon="1.48932">
        <ele>121.4</ele>
        <time>2010-01-01T00:00:00Z</time>
      </trkpt>
      <trkpt lat="48.47082" lon="1.48928">
        <ele>121.1</ele>
        <time>2010-01-01T00:00:00Z</time>
      </trkpt>
      <trkpt lat="48.4708" lon="1.48922">
        <ele>120.7</ele>
        <time>2010-01-01T00:00:00Z</time>
      </trkpt>
      <trkpt lat="48.47079" lon="1.48917">
        <ele>120.5</ele>
        <time>2010-01-01T00:00:00Z</time>
      </trkpt>
      <trkpt lat="48.47077" lon="1.48911">
        <ele>120.6</ele>
        <time>2010-01-01T00:00:00Z</time>
      </trkpt>
      <trkpt lat="48.47076" lon="1.48904">
        <ele>120.9</ele>
        <time>2010-01-01T00:00:00Z</time>
      </trkpt>
      <trkpt lat="48.47075" lon="1.48898">
        <ele>121.1</ele>
        <time>2010-01-01T00:00:00Z</time>
      </trkpt>
      <trkpt lat="48.47074" lon="1.48883">
        <ele>121.4</ele>
        <time>2010-01-01T00:00:00Z</time>
      </trkpt>
      <trkpt lat="48.47071" lon="1.48871">
        <ele>121.6</ele>
        <time>2010-01-01T00:00:00Z</time>
      </trkpt>
      <trkpt lat="48.47068" lon="1.48858">
        <ele>121.6</ele>
        <time>2010-01-01T00:00:00Z</time>
      </trkpt>
      <trkpt lat="48.47067" lon="1.4885">
        <ele>121.6</ele>
        <time>2010-01-01T00:00:00Z</time>
      </trkpt>
      <trkpt lat="48.47066" lon="1.48841">
        <ele>121.5</ele>
        <time>2010-01-01T00:00:00Z</time>
      </trkpt>
      <trkpt lat="48.47064" lon="1.48825">
        <ele>121.9</ele>
        <time>2010-01-01T00:00:00Z</time>
      </trkpt>
      <trkpt lat="48.47064" lon="1.48817">
        <ele>122</ele>
        <time>2010-01-01T00:00:00Z</time>
      </trkpt>
      <trkpt lat="48.47063" lon="1.48812">
        <ele>122.1</ele>
        <time>2010-01-01T00:00:00Z</time>
      </trkpt>
      <trkpt lat="48.47061" lon="1.48807">
        <ele>122.2</ele>
        <time>2010-01-01T00:00:00Z</time>
      </trkpt>
      <trkpt lat="48.47059" lon="1.48797">
        <ele>122.3</ele>
        <time>2010-01-01T00:00:00Z</time>
      </trkpt>
      <trkpt lat="48.47057" lon="1.48785">
        <ele>122.5</ele>
        <time>2010-01-01T00:00:00Z</time>
      </trkpt>
      <trkpt lat="48.47052" lon="1.48723">
        <ele>123</ele>
        <time>2010-01-01T00:00:00Z</time>
      </trkpt>
      <trkpt lat="48.47051" lon="1.4871">
        <ele>123</ele>
        <time>2010-01-01T00:00:00Z</time>
      </trkpt>
      <trkpt lat="48.47049" lon="1.4869">
        <ele>123</ele>
        <time>2010-01-01T00:00:00Z</time>
      </trkpt>
      <trkpt lat="48.47045" lon="1.48661">
        <ele>123.8</ele>
        <time>2010-01-01T00:00:00Z</time>
      </trkpt>
      <trkpt lat="48.47042" lon="1.48649">
        <ele>123.9</ele>
        <time>2010-01-01T00:00:00Z</time>
      </trkpt>
      <trkpt lat="48.47039" lon="1.48638">
        <ele>124.1</ele>
        <time>2010-01-01T00:00:00Z</time>
      </trkpt>
      <trkpt lat="48.4703" lon="1.48624">
        <ele>124.2</ele>
        <time>2010-01-01T00:00:00Z</time>
      </trkpt>
      <trkpt lat="48.4703" lon="1.48624">
        <ele>124.2</ele>
        <time>2010-01-01T00:00:00Z</time>
      </trkpt>
      <trkpt lat="48.4703" lon="1.48624">
        <ele>124.2</ele>
        <time>2010-01-01T00:00:00Z</time>
      </trkpt>
      <trkpt lat="48.47025" lon="1.48619">
        <ele>124.3</ele>
        <time>2010-01-01T00:00:00Z</time>
      </trkpt>
      <trkpt lat="48.47018" lon="1.48617">
        <ele>124.3</ele>
        <time>2010-01-01T00:00:00Z</time>
      </trkpt>
      <trkpt lat="48.47001" lon="1.48615">
        <ele>124.3</ele>
        <time>2010-01-01T00:00:00Z</time>
      </trkpt>
      <trkpt lat="48.46989" lon="1.48611">
        <ele>124.7</ele>
        <time>2010-01-01T00:00:00Z</time>
      </trkpt>
      <trkpt lat="48.46974" lon="1.48602">
        <ele>124.8</ele>
        <time>2010-01-01T00:00:00Z</time>
      </trkpt>
      <trkpt lat="48.46966" lon="1.48595">
        <ele>124.8</ele>
        <time>2010-01-01T00:00:00Z</time>
      </trkpt>
      <trkpt lat="48.46958" lon="1.48586">
        <ele>124.8</ele>
        <time>2010-01-01T00:00:00Z</time>
      </trkpt>
      <trkpt lat="48.46951" lon="1.48575">
        <ele>125.1</ele>
        <time>2010-01-01T00:00:00Z</time>
      </trkpt>
      <trkpt lat="48.46945" lon="1.48559">
        <ele>125.1</ele>
        <time>2010-01-01T00:00:00Z</time>
      </trkpt>
      <trkpt lat="48.46935" lon="1.48533">
        <ele>125</ele>
        <time>2010-01-01T00:00:00Z</time>
      </trkpt>
      <trkpt lat="48.46927" lon="1.48522">
        <ele>124.8</ele>
        <time>2010-01-01T00:00:00Z</time>
      </trkpt>
      <trkpt lat="48.46921" lon="1.48511">
        <ele>124.5</ele>
        <time>2010-01-01T00:00:00Z</time>
      </trkpt>
      <trkpt lat="48.46915" lon="1.48504">
        <ele>124.3</ele>
        <time>2010-01-01T00:00:00Z</time>
      </trkpt>
      <trkpt lat="48.46905" lon="1.48496">
        <ele>124.5</ele>
        <time>2010-01-01T00:00:00Z</time>
      </trkpt>
      <trkpt lat="48.46882" lon="1.48479">
        <ele>124.9</ele>
        <time>2010-01-01T00:00:00Z</time>
      </trkpt>
      <trkpt lat="48.46861" lon="1.48455">
        <ele>125</ele>
        <time>2010-01-01T00:00:00Z</time>
      </trkpt>
      <trkpt lat="48.46847" lon="1.48433">
        <ele>124.7</ele>
        <time>2010-01-01T00:00:00Z</time>
      </trkpt>
      <trkpt lat="48.46833" lon="1.48404">
        <ele>124.3</ele>
        <time>2010-01-01T00:00:00Z</time>
      </trkpt>
      <trkpt lat="48.46827" lon="1.48388">
        <ele>124.4</ele>
        <time>2010-01-01T00:00:00Z</time>
      </trkpt>
      <trkpt lat="48.46826" lon="1.48378">
        <ele>124.5</ele>
        <time>2010-01-01T00:00:00Z</time>
      </trkpt>
      <trkpt lat="48.46828" lon="1.48361">
        <ele>124.6</ele>
        <time>2010-01-01T00:00:00Z</time>
      </trkpt>
      <trkpt lat="48.46832" lon="1.48346">
        <ele>124.7</ele>
        <time>2010-01-01T00:00:00Z</time>
      </trkpt>
      <trkpt lat="48.46833" lon="1.48343">
        <ele>124.8</ele>
        <time>2010-01-01T00:00:00Z</time>
      </trkpt>
      <trkpt lat="48.46833" lon="1.48339">
        <ele>124.9</ele>
        <time>2010-01-01T00:00:00Z</time>
      </trkpt>
      <trkpt lat="48.46831" lon="1.48334">
        <ele>124.9</ele>
        <time>2010-01-01T00:00:00Z</time>
      </trkpt>
      <trkpt lat="48.46829" lon="1.48327">
        <ele>124.9</ele>
        <time>2010-01-01T00:00:00Z</time>
      </trkpt>
      <trkpt lat="48.46831" lon="1.48326">
        <ele>124.9</ele>
        <time>2010-01-01T00:00:00Z</time>
      </trkpt>
      <trkpt lat="48.46839" lon="1.48322">
        <ele>125</ele>
        <time>2010-01-01T00:00:00Z</time>
      </trkpt>
      <trkpt lat="48.46839" lon="1.48322">
        <ele>125</ele>
        <time>2010-01-01T00:00:00Z</time>
      </trkpt>
      <trkpt lat="48.46831" lon="1.48326">
        <ele>124.9</ele>
        <time>2010-01-01T00:00:00Z</time>
      </trkpt>
      <trkpt lat="48.46829" lon="1.48327">
        <ele>124.9</ele>
        <time>2010-01-01T00:00:00Z</time>
      </trkpt>
      <trkpt lat="48.46824" lon="1.48329">
        <ele>124.9</ele>
        <time>2010-01-01T00:00:00Z</time>
      </trkpt>
      <trkpt lat="48.46812" lon="1.48336">
        <ele>124.6</ele>
        <time>2010-01-01T00:00:00Z</time>
      </trkpt>
      <trkpt lat="48.46805" lon="1.48343">
        <ele>124.5</ele>
        <time>2010-01-01T00:00:00Z</time>
      </trkpt>
      <trkpt lat="48.46802" lon="1.48348">
        <ele>124.5</ele>
        <time>2010-01-01T00:00:00Z</time>
      </trkpt>
      <trkpt lat="48.46797" lon="1.48345">
        <ele>124.4</ele>
        <time>2010-01-01T00:00:00Z</time>
      </trkpt>
      <trkpt lat="48.46743" lon="1.48335">
        <ele>123.4</ele>
        <time>2010-01-01T00:00:00Z</time>
      </trkpt>
      <trkpt lat="48.46727" lon="1.48336">
        <ele>123.9</ele>
        <time>2010-01-01T00:00:00Z</time>
      </trkpt>
      <trkpt lat="48.46717" lon="1.48336">
        <ele>124.1</ele>
        <time>2010-01-01T00:00:00Z</time>
      </trkpt>
      <trkpt lat="48.46701" lon="1.48334">
        <ele>124.1</ele>
        <time>2010-01-01T00:00:00Z</time>
      </trkpt>
      <trkpt lat="48.46692" lon="1.48332">
        <ele>123</ele>
        <time>2010-01-01T00:00:00Z</time>
      </trkpt>
      <trkpt lat="48.4666" lon="1.4832">
        <ele>123.1</ele>
        <time>2010-01-01T00:00:00Z</time>
      </trkpt>
      <trkpt lat="48.46655" lon="1.48317">
        <ele>123.1</ele>
        <time>2010-01-01T00:00:00Z</time>
      </trkpt>
      <trkpt lat="48.46648" lon="1.48316">
        <ele>123.1</ele>
        <time>2010-01-01T00:00:00Z</time>
      </trkpt>
      <trkpt lat="48.4663" lon="1.48315">
        <ele>123.4</ele>
        <time>2010-01-01T00:00:00Z</time>
      </trkpt>
      <trkpt lat="48.46607" lon="1.48313">
        <ele>123.8</ele>
        <time>2010-01-01T00:00:00Z</time>
      </trkpt>
      <trkpt lat="48.46591" lon="1.48313">
        <ele>124</ele>
        <time>2010-01-01T00:00:00Z</time>
      </trkpt>
      <trkpt lat="48.46568" lon="1.48312">
        <ele>125</ele>
        <time>2010-01-01T00:00:00Z</time>
      </trkpt>
      <trkpt lat="48.4654" lon="1.4831">
        <ele>125.2</ele>
        <time>2010-01-01T00:00:00Z</time>
      </trkpt>
      <trkpt lat="48.46527" lon="1.48307">
        <ele>125.3</ele>
        <time>2010-01-01T00:00:00Z</time>
      </trkpt>
      <trkpt lat="48.46511" lon="1.48301">
        <ele>125.4</ele>
        <time>2010-01-01T00:00:00Z</time>
      </trkpt>
      <trkpt lat="48.4648" lon="1.48285">
        <ele>125.7</ele>
        <time>2010-01-01T00:00:00Z</time>
      </trkpt>
      <trkpt lat="48.46472" lon="1.48283">
        <ele>125.7</ele>
        <time>2010-01-01T00:00:00Z</time>
      </trkpt>
      <trkpt lat="48.46457" lon="1.48282">
        <ele>125.8</ele>
        <time>2010-01-01T00:00:00Z</time>
      </trkpt>
      <trkpt lat="48.46447" lon="1.48282">
        <ele>125.9</ele>
        <time>2010-01-01T00:00:00Z</time>
      </trkpt>
      <trkpt lat="48.46429" lon="1.48282">
        <ele>125.9</ele>
        <time>2010-01-01T00:00:00Z</time>
      </trkpt>
      <trkpt lat="48.46417" lon="1.48287">
        <ele>126.1</ele>
        <time>2010-01-01T00:00:00Z</time>
      </trkpt>
      <trkpt lat="48.46403" lon="1.48296">
        <ele>126.2</ele>
        <time>2010-01-01T00:00:00Z</time>
      </trkpt>
      <trkpt lat="48.46395" lon="1.48301">
        <ele>126.3</ele>
        <time>2010-01-01T00:00:00Z</time>
      </trkpt>
      <trkpt lat="48.46389" lon="1.48304">
        <ele>126.2</ele>
        <time>2010-01-01T00:00:00Z</time>
      </trkpt>
      <trkpt lat="48.46359" lon="1.48329">
        <ele>125.8</ele>
        <time>2010-01-01T00:00:00Z</time>
      </trkpt>
      <trkpt lat="48.46347" lon="1.48342">
        <ele>126.5</ele>
        <time>2010-01-01T00:00:00Z</time>
      </trkpt>
      <trkpt lat="48.46308" lon="1.48393">
        <ele>125.1</ele>
        <time>2010-01-01T00:00:00Z</time>
      </trkpt>
      <trkpt lat="48.46304" lon="1.48399">
        <ele>125.1</ele>
        <time>2010-01-01T00:00:00Z</time>
      </trkpt>
      <trkpt lat="48.46293" lon="1.48412">
        <ele>124.9</ele>
        <time>2010-01-01T00:00:00Z</time>
      </trkpt>
      <trkpt lat="48.46239" lon="1.48477">
        <ele>125.4</ele>
        <time>2010-01-01T00:00:00Z</time>
      </trkpt>
      <trkpt lat="48.46209" lon="1.48518">
        <ele>127.8</ele>
        <time>2010-01-01T00:00:00Z</time>
      </trkpt>
      <trkpt lat="48.46206" lon="1.4852">
        <ele>127.7</ele>
        <time>2010-01-01T00:00:00Z</time>
      </trkpt>
      <trkpt lat="48.46204" lon="1.48521">
        <ele>127.6</ele>
        <time>2010-01-01T00:00:00Z</time>
      </trkpt>
      <trkpt lat="48.46208" lon="1.48526">
        <ele>128.1</ele>
        <time>2010-01-01T00:00:00Z</time>
      </trkpt>
      <trkpt lat="48.46208" lon="1.48526">
        <ele>128.1</ele>
        <time>2010-01-01T00:00:00Z</time>
      </trkpt>
      <trkpt lat="48.46204" lon="1.48521">
        <ele>127.6</ele>
        <time>2010-01-01T00:00:00Z</time>
      </trkpt>
      <trkpt lat="48.46199" lon="1.48532">
        <ele>127.8</ele>
        <time>2010-01-01T00:00:00Z</time>
      </trkpt>
      <trkpt lat="48.46187" lon="1.48547">
        <ele>127.8</ele>
        <time>2010-01-01T00:00:00Z</time>
      </trkpt>
      <trkpt lat="48.46177" lon="1.48557">
        <ele>127.6</ele>
        <time>2010-01-01T00:00:00Z</time>
      </trkpt>
      <trkpt lat="48.46169" lon="1.48563">
        <ele>127.3</ele>
        <time>2010-01-01T00:00:00Z</time>
      </trkpt>
      <trkpt lat="48.46158" lon="1.48566">
        <ele>124.3</ele>
        <time>2010-01-01T00:00:00Z</time>
      </trkpt>
      <trkpt lat="48.46152" lon="1.48574">
        <ele>124.4</ele>
        <time>2010-01-01T00:00:00Z</time>
      </trkpt>
      <trkpt lat="48.46134" lon="1.48593">
        <ele>125.5</ele>
        <time>2010-01-01T00:00:00Z</time>
      </trkpt>
      <trkpt lat="48.46108" lon="1.48633">
        <ele>125.3</ele>
        <time>2010-01-01T00:00:00Z</time>
      </trkpt>
      <trkpt lat="48.46063" lon="1.48694">
        <ele>124.4</ele>
        <time>2010-01-01T00:00:00Z</time>
      </trkpt>
      <trkpt lat="48.46039" lon="1.48721">
        <ele>124.6</ele>
        <time>2010-01-01T00:00:00Z</time>
      </trkpt>
      <trkpt lat="48.46031" lon="1.48732">
        <ele>124.6</ele>
        <time>2010-01-01T00:00:00Z</time>
      </trkpt>
      <trkpt lat="48.46018" lon="1.48747">
        <ele>124.8</ele>
        <time>2010-01-01T00:00:00Z</time>
      </trkpt>
      <trkpt lat="48.46005" lon="1.4876">
        <ele>125.3</ele>
        <time>2010-01-01T00:00:00Z</time>
      </trkpt>
      <trkpt lat="48.45995" lon="1.48766">
        <ele>126.2</ele>
        <time>2010-01-01T00:00:00Z</time>
      </trkpt>
      <trkpt lat="48.45983" lon="1.48783">
        <ele>126.9</ele>
        <time>2010-01-01T00:00:00Z</time>
      </trkpt>
      <trkpt lat="48.4596" lon="1.48798">
        <ele>127.7</ele>
        <time>2010-01-01T00:00:00Z</time>
      </trkpt>
      <trkpt lat="48.45944" lon="1.48811">
        <ele>128.6</ele>
        <time>2010-01-01T00:00:00Z</time>
      </trkpt>
      <trkpt lat="48.45931" lon="1.48826">
        <ele>129.9</ele>
        <time>2010-01-01T00:00:00Z</time>
      </trkpt>
      <trkpt lat="48.45915" lon="1.48839">
        <ele>131</ele>
        <time>2010-01-01T00:00:00Z</time>
      </trkpt>
      <trkpt lat="48.45895" lon="1.4885">
        <ele>128.7</ele>
        <time>2010-01-01T00:00:00Z</time>
      </trkpt>
      <trkpt lat="48.45884" lon="1.48869">
        <ele>127.6</ele>
        <time>2010-01-01T00:00:00Z</time>
      </trkpt>
      <trkpt lat="48.45882" lon="1.48863">
        <ele>127.7</ele>
        <time>2010-01-01T00:00:00Z</time>
      </trkpt>
      <trkpt lat="48.45876" lon="1.48849">
        <ele>127.8</ele>
        <time>2010-01-01T00:00:00Z</time>
      </trkpt>
      <trkpt lat="48.45876" lon="1.48849">
        <ele>127.8</ele>
        <time>2010-01-01T00:00:00Z</time>
      </trkpt>
      <trkpt lat="48.45882" lon="1.48863">
        <ele>127.7</ele>
        <time>2010-01-01T00:00:00Z</time>
      </trkpt>
      <trkpt lat="48.45884" lon="1.48869">
        <ele>127.6</ele>
        <time>2010-01-01T00:00:00Z</time>
      </trkpt>
      <trkpt lat="48.45886" lon="1.48877">
        <ele>127.4</ele>
        <time>2010-01-01T00:00:00Z</time>
      </trkpt>
      <trkpt lat="48.45892" lon="1.48891">
        <ele>127.1</ele>
        <time>2010-01-01T00:00:00Z</time>
      </trkpt>
      <trkpt lat="48.45915" lon="1.48956">
        <ele>126</ele>
        <time>2010-01-01T00:00:00Z</time>
      </trkpt>
      <trkpt lat="48.45931" lon="1.49">
        <ele>127</ele>
        <time>2010-01-01T00:00:00Z</time>
      </trkpt>
      <trkpt lat="48.45933" lon="1.49008">
        <ele>129.3</ele>
        <time>2010-01-01T00:00:00Z</time>
      </trkpt>
      <trkpt lat="48.45939" lon="1.49023">
        <ele>130.7</ele>
        <time>2010-01-01T00:00:00Z</time>
      </trkpt>
      <trkpt lat="48.45934" lon="1.49028">
        <ele>130.8</ele>
        <time>2010-01-01T00:00:00Z</time>
      </trkpt>
      <trkpt lat="48.45934" lon="1.49028">
        <ele>130.8</ele>
        <time>2010-01-01T00:00:00Z</time>
      </trkpt>
      <trkpt lat="48.45887" lon="1.49078">
        <ele>129.3</ele>
        <time>2010-01-01T00:00:00Z</time>
      </trkpt>
      <trkpt lat="48.45884" lon="1.49081">
        <ele>129.2</ele>
        <time>2010-01-01T00:00:00Z</time>
      </trkpt>
      <trkpt lat="48.45873" lon="1.49094">
        <ele>133.5</ele>
        <time>2010-01-01T00:00:00Z</time>
      </trkpt>
      <trkpt lat="48.45861" lon="1.49104">
        <ele>133.3</ele>
        <time>2010-01-01T00:00:00Z</time>
      </trkpt>
      <trkpt lat="48.45856" lon="1.49107">
        <ele>133.2</ele>
        <time>2010-01-01T00:00:00Z</time>
      </trkpt>
      <trkpt lat="48.45832" lon="1.49115">
        <ele>129.9</ele>
        <time>2010-01-01T00:00:00Z</time>
      </trkpt>
      <trkpt lat="48.45747" lon="1.49149">
        <ele>127.9</ele>
        <time>2010-01-01T00:00:00Z</time>
      </trkpt>
      <trkpt lat="48.45731" lon="1.49155">
        <ele>127.8</ele>
        <time>2010-01-01T00:00:00Z</time>
      </trkpt>
      <trkpt lat="48.45731" lon="1.49155">
        <ele>127.8</ele>
        <time>2010-01-01T00:00:00Z</time>
      </trkpt>
      <trkpt lat="48.457" lon="1.49168">
        <ele>130.6</ele>
        <time>2010-01-01T00:00:00Z</time>
      </trkpt>
      <trkpt lat="48.45613" lon="1.49207">
        <ele>129.5</ele>
        <time>2010-01-01T00:00:00Z</time>
      </trkpt>
      <trkpt lat="48.45595" lon="1.49216">
        <ele>129.4</ele>
        <time>2010-01-01T00:00:00Z</time>
      </trkpt>
      <trkpt lat="48.45579" lon="1.49225">
        <ele>128.2</ele>
        <time>2010-01-01T00:00:00Z</time>
      </trkpt>
      <trkpt lat="48.45581" lon="1.4922">
        <ele>128.1</ele>
        <time>2010-01-01T00:00:00Z</time>
      </trkpt>
      <trkpt lat="48.45586" lon="1.49201">
        <ele>128.9</ele>
        <time>2010-01-01T00:00:00Z</time>
      </trkpt>
      <trkpt lat="48.45588" lon="1.49179">
        <ele>128</ele>
        <time>2010-01-01T00:00:00Z</time>
      </trkpt>
      <trkpt lat="48.4559" lon="1.49173">
        <ele>127.8</ele>
        <time>2010-01-01T00:00:00Z</time>
      </trkpt>
      <trkpt lat="48.45592" lon="1.49158">
        <ele>126.9</ele>
        <time>2010-01-01T00:00:00Z</time>
      </trkpt>
      <trkpt lat="48.45588" lon="1.49151">
        <ele>126.8</ele>
        <time>2010-01-01T00:00:00Z</time>
      </trkpt>
      <trkpt lat="48.45581" lon="1.49151">
        <ele>126.2</ele>
        <time>2010-01-01T00:00:00Z</time>
      </trkpt>
      <trkpt lat="48.45563" lon="1.49157">
        <ele>125.9</ele>
        <time>2010-01-01T00:00:00Z</time>
      </trkpt>
      <trkpt lat="48.45547" lon="1.49156">
        <ele>125.6</ele>
        <time>2010-01-01T00:00:00Z</time>
      </trkpt>
      <trkpt lat="48.45521" lon="1.49152">
        <ele>125.2</ele>
        <time>2010-01-01T00:00:00Z</time>
      </trkpt>
      <trkpt lat="48.45497" lon="1.49146">
        <ele>125</ele>
        <time>2010-01-01T00:00:00Z</time>
      </trkpt>
      <trkpt lat="48.45467" lon="1.49137">
        <ele>125.2</ele>
        <time>2010-01-01T00:00:00Z</time>
      </trkpt>
      <trkpt lat="48.45444" lon="1.49125">
        <ele>125.4</ele>
        <time>2010-01-01T00:00:00Z</time>
      </trkpt>
      <trkpt lat="48.45428" lon="1.49115">
        <ele>125.6</ele>
        <time>2010-01-01T00:00:00Z</time>
      </trkpt>
      <trkpt lat="48.45398" lon="1.49089">
        <ele>126.2</ele>
        <time>2010-01-01T00:00:00Z</time>
      </trkpt>
      <trkpt lat="48.45392" lon="1.49096">
        <ele>125.9</ele>
        <time>2010-01-01T00:00:00Z</time>
      </trkpt>
      <trkpt lat="48.45388" lon="1.49101">
        <ele>125.8</ele>
        <time>2010-01-01T00:00:00Z</time>
      </trkpt>
      <trkpt lat="48.45384" lon="1.49106">
        <ele>125.7</ele>
        <time>2010-01-01T00:00:00Z</time>
      </trkpt>
      <trkpt lat="48.4538" lon="1.49114">
        <ele>125.6</ele>
        <time>2010-01-01T00:00:00Z</time>
      </trkpt>
      <trkpt lat="48.45379" lon="1.49115">
        <ele>125.6</ele>
        <time>2010-01-01T00:00:00Z</time>
      </trkpt>
      <trkpt lat="48.45371" lon="1.49127">
        <ele>125.5</ele>
        <time>2010-01-01T00:00:00Z</time>
      </trkpt>
      <trkpt lat="48.45366" lon="1.49133">
        <ele>125.4</ele>
        <time>2010-01-01T00:00:00Z</time>
      </trkpt>
      <trkpt lat="48.45344" lon="1.49107">
        <ele>125.3</ele>
        <time>2010-01-01T00:00:00Z</time>
      </trkpt>
      <trkpt lat="48.45328" lon="1.49093">
        <ele>125</ele>
        <time>2010-01-01T00:00:00Z</time>
      </trkpt>
      <trkpt lat="48.45313" lon="1.49079">
        <ele>124.9</ele>
        <time>2010-01-01T00:00:00Z</time>
      </trkpt>
      <trkpt lat="48.45301" lon="1.4907">
        <ele>124.8</ele>
        <time>2010-01-01T00:00:00Z</time>
      </trkpt>
      <trkpt lat="48.45294" lon="1.49067">
        <ele>124.8</ele>
        <time>2010-01-01T00:00:00Z</time>
      </trkpt>
      <trkpt lat="48.45292" lon="1.49084">
        <ele>125</ele>
        <time>2010-01-01T00:00:00Z</time>
      </trkpt>
      <trkpt lat="48.45292" lon="1.49084">
        <ele>125</ele>
        <time>2010-01-01T00:00:00Z</time>
      </trkpt>
      <trkpt lat="48.45294" lon="1.49067">
        <ele>124.8</ele>
        <time>2010-01-01T00:00:00Z</time>
      </trkpt>
      <trkpt lat="48.45295" lon="1.49056">
        <ele>124.8</ele>
        <time>2010-01-01T00:00:00Z</time>
      </trkpt>
      <trkpt lat="48.45292" lon="1.4906">
        <ele>124.8</ele>
        <time>2010-01-01T00:00:00Z</time>
      </trkpt>
      <trkpt lat="48.4529" lon="1.49061">
        <ele>124.8</ele>
        <time>2010-01-01T00:00:00Z</time>
      </trkpt>
      <trkpt lat="48.45284" lon="1.49065">
        <ele>124.8</ele>
        <time>2010-01-01T00:00:00Z</time>
      </trkpt>
      <trkpt lat="48.45282" lon="1.49069">
        <ele>124.8</ele>
        <time>2010-01-01T00:00:00Z</time>
      </trkpt>
      <trkpt lat="48.45276" lon="1.49081">
        <ele>124.9</ele>
        <time>2010-01-01T00:00:00Z</time>
      </trkpt>
      <trkpt lat="48.45271" lon="1.49094">
        <ele>125</ele>
        <time>2010-01-01T00:00:00Z</time>
      </trkpt>
      <trkpt lat="48.45266" lon="1.49099">
        <ele>125</ele>
        <time>2010-01-01T00:00:00Z</time>
      </trkpt>
      <trkpt lat="48.45256" lon="1.491">
        <ele>125</ele>
        <time>2010-01-01T00:00:00Z</time>
      </trkpt>
      <trkpt lat="48.45243" lon="1.49097">
        <ele>125.1</ele>
        <time>2010-01-01T00:00:00Z</time>
      </trkpt>
      <trkpt lat="48.4524" lon="1.49102">
        <ele>125.1</ele>
        <time>2010-01-01T00:00:00Z</time>
      </trkpt>
      <trkpt lat="48.45238" lon="1.49112">
        <ele>125.1</ele>
        <time>2010-01-01T00:00:00Z</time>
      </trkpt>
      <trkpt lat="48.45234" lon="1.49118">
        <ele>125.2</ele>
        <time>2010-01-01T00:00:00Z</time>
      </trkpt>
      <trkpt lat="48.45214" lon="1.49094">
        <ele>125.2</ele>
        <time>2010-01-01T00:00:00Z</time>
      </trkpt>
      <trkpt lat="48.45208" lon="1.49093">
        <ele>125.2</ele>
        <time>2010-01-01T00:00:00Z</time>
      </trkpt>
      <trkpt lat="48.45203" lon="1.49088">
        <ele>125.2</ele>
        <time>2010-01-01T00:00:00Z</time>
      </trkpt>
      <trkpt lat="48.45199" lon="1.49083">
        <ele>124.8</ele>
        <time>2010-01-01T00:00:00Z</time>
      </trkpt>
      <trkpt lat="48.45197" lon="1.49074">
        <ele>124.8</ele>
        <time>2010-01-01T00:00:00Z</time>
      </trkpt>
      <trkpt lat="48.45197" lon="1.49067">
        <ele>124.8</ele>
        <time>2010-01-01T00:00:00Z</time>
      </trkpt>
      <trkpt lat="48.45196" lon="1.4906">
        <ele>124.8</ele>
        <time>2010-01-01T00:00:00Z</time>
      </trkpt>
      <trkpt lat="48.45195" lon="1.49058">
        <ele>124.8</ele>
        <time>2010-01-01T00:00:00Z</time>
      </trkpt>
      <trkpt lat="48.45195" lon="1.49058">
        <ele>124.8</ele>
        <time>2010-01-01T00:00:00Z</time>
      </trkpt>
      <trkpt lat="48.45194" lon="1.49055">
        <ele>124.8</ele>
        <time>2010-01-01T00:00:00Z</time>
      </trkpt>
      <trkpt lat="48.45192" lon="1.49054">
        <ele>124.8</ele>
        <time>2010-01-01T00:00:00Z</time>
      </trkpt>
      <trkpt lat="48.45178" lon="1.49054">
        <ele>124.8</ele>
        <time>2010-01-01T00:00:00Z</time>
      </trkpt>
      <trkpt lat="48.45155" lon="1.4905">
        <ele>125.6</ele>
        <time>2010-01-01T00:00:00Z</time>
      </trkpt>
      <trkpt lat="48.45132" lon="1.49046">
        <ele>125.9</ele>
        <time>2010-01-01T00:00:00Z</time>
      </trkpt>
      <trkpt lat="48.45116" lon="1.49041">
        <ele>126.2</ele>
        <time>2010-01-01T00:00:00Z</time>
      </trkpt>
      <trkpt lat="48.45091" lon="1.4904">
        <ele>126.5</ele>
        <time>2010-01-01T00:00:00Z</time>
      </trkpt>
      <trkpt lat="48.45062" lon="1.49041">
        <ele>127.7</ele>
        <time>2010-01-01T00:00:00Z</time>
      </trkpt>
      <trkpt lat="48.44998" lon="1.49042">
        <ele>128.3</ele>
        <time>2010-01-01T00:00:00Z</time>
      </trkpt>
      <trkpt lat="48.44998" lon="1.49042">
        <ele>128.3</ele>
        <time>2010-01-01T00:00:00Z</time>
      </trkpt>
      <trkpt lat="48.44997" lon="1.49042">
        <ele>128.3</ele>
        <time>2010-01-01T00:00:00Z</time>
      </trkpt>
      <trkpt lat="48.44996" lon="1.49035">
        <ele>128.3</ele>
        <time>2010-01-01T00:00:00Z</time>
      </trkpt>
      <trkpt lat="48.44993" lon="1.49014">
        <ele>128.3</ele>
        <time>2010-01-01T00:00:00Z</time>
      </trkpt>
      <trkpt lat="48.44987" lon="1.49008">
        <ele>128.3</ele>
        <time>2010-01-01T00:00:00Z</time>
      </trkpt>
      <trkpt lat="48.44967" lon="1.48973">
        <ele>133.8</ele>
        <time>2010-01-01T00:00:00Z</time>
      </trkpt>
      <trkpt lat="48.44958" lon="1.48972">
        <ele>134</ele>
        <time>2010-01-01T00:00:00Z</time>
      </trkpt>
      <trkpt lat="48.44958" lon="1.48972">
        <ele>134</ele>
        <time>2010-01-01T00:00:00Z</time>
      </trkpt>
      <trkpt lat="48.44967" lon="1.48973">
        <ele>133.8</ele>
        <time>2010-01-01T00:00:00Z</time>
      </trkpt>
      <trkpt lat="48.44964" lon="1.48963">
        <ele>134.6</ele>
        <time>2010-01-01T00:00:00Z</time>
      </trkpt>
      <trkpt lat="48.44961" lon="1.48958">
        <ele>135</ele>
        <time>2010-01-01T00:00:00Z</time>
      </trkpt>
      <trkpt lat="48.44958" lon="1.48951">
        <ele>135.5</ele>
        <time>2010-01-01T00:00:00Z</time>
      </trkpt>
      <trkpt lat="48.44954" lon="1.48933">
        <ele>136.8</ele>
        <time>2010-01-01T00:00:00Z</time>
      </trkpt>
      <trkpt lat="48.44951" lon="1.48916">
        <ele>145.5</ele>
        <time>2010-01-01T00:00:00Z</time>
      </trkpt>
      <trkpt lat="48.44948" lon="1.4891">
        <ele>145.8</ele>
        <time>2010-01-01T00:00:00Z</time>
      </trkpt>
      <trkpt lat="48.44946" lon="1.48903">
        <ele>146.1</ele>
        <time>2010-01-01T00:00:00Z</time>
      </trkpt>
      <trkpt lat="48.44941" lon="1.48894">
        <ele>146.8</ele>
        <time>2010-01-01T00:00:00Z</time>
      </trkpt>
      <trkpt lat="48.44941" lon="1.48894">
        <ele>146.8</ele>
        <time>2010-01-01T00:00:00Z</time>
      </trkpt>
      <trkpt lat="48.44935" lon="1.48884">
        <ele>147.8</ele>
        <time>2010-01-01T00:00:00Z</time>
      </trkpt>
      <trkpt lat="48.44925" lon="1.48891">
        <ele>147</ele>
        <time>2010-01-01T00:00:00Z</time>
      </trkpt>
      <trkpt lat="48.44901" lon="1.48905">
        <ele>148.8</ele>
        <time>2010-01-01T00:00:00Z</time>
      </trkpt>
      <trkpt lat="48.44901" lon="1.48905">
        <ele>148.8</ele>
        <time>2010-01-01T00:00:00Z</time>
      </trkpt>
      <trkpt lat="48.44899" lon="1.48899">
        <ele>149.8</ele>
        <time>2010-01-01T00:00:00Z</time>
      </trkpt>
      <trkpt lat="48.44912" lon="1.48878">
        <ele>152.2</ele>
        <time>2010-01-01T00:00:00Z</time>
      </trkpt>
      <trkpt lat="48.44912" lon="1.48878">
        <ele>152.2</ele>
        <time>2010-01-01T00:00:00Z</time>
      </trkpt>
      <trkpt lat="48.44913" lon="1.48877">
        <ele>152.3</ele>
        <time>2010-01-01T00:00:00Z</time>
      </trkpt>
      <trkpt lat="48.44912" lon="1.48873">
        <ele>152.9</ele>
        <time>2010-01-01T00:00:00Z</time>
      </trkpt>
      <trkpt lat="48.44897" lon="1.48883">
        <ele>152</ele>
        <time>2010-01-01T00:00:00Z</time>
      </trkpt>
      <trkpt lat="48.44882" lon="1.48896">
        <ele>151.6</ele>
        <time>2010-01-01T00:00:00Z</time>
      </trkpt>
      <trkpt lat="48.44882" lon="1.48896">
        <ele>151.6</ele>
        <time>2010-01-01T00:00:00Z</time>
      </trkpt>
      <trkpt lat="48.44881" lon="1.48897">
        <ele>151.6</ele>
        <time>2010-01-01T00:00:00Z</time>
      </trkpt>
      <trkpt lat="48.44875" lon="1.48899">
        <ele>151.8</ele>
        <time>2010-01-01T00:00:00Z</time>
      </trkpt>
      <trkpt lat="48.44877" lon="1.48894">
        <ele>152</ele>
        <time>2010-01-01T00:00:00Z</time>
      </trkpt>
      <trkpt lat="48.44887" lon="1.48874">
        <ele>153.2</ele>
        <time>2010-01-01T00:00:00Z</time>
      </trkpt>
      <trkpt lat="48.44882" lon="1.48867">
        <ele>154</ele>
        <time>2010-01-01T00:00:00Z</time>
      </trkpt>
      <trkpt lat="48.44882" lon="1.48867">
        <ele>154</ele>
        <time>2010-01-01T00:00:00Z</time>
      </trkpt>
      <trkpt lat="48.44852" lon="1.4885">
        <ele>156.4</ele>
        <time>2010-01-01T00:00:00Z</time>
      </trkpt>
      <trkpt lat="48.44852" lon="1.4885">
        <ele>156.4</ele>
        <time>2010-01-01T00:00:00Z</time>
      </trkpt>
      <trkpt lat="48.44852" lon="1.48826">
        <ele>160.7</ele>
        <time>2010-01-01T00:00:00Z</time>
      </trkpt>
      <trkpt lat="48.44851" lon="1.48818">
        <ele>160.7</ele>
        <time>2010-01-01T00:00:00Z</time>
      </trkpt>
      <trkpt lat="48.4485" lon="1.48812">
        <ele>160.8</ele>
        <time>2010-01-01T00:00:00Z</time>
      </trkpt>
      <trkpt lat="48.44847" lon="1.48807">
        <ele>160.8</ele>
        <time>2010-01-01T00:00:00Z</time>
      </trkpt>
      <trkpt lat="48.44841" lon="1.48797">
        <ele>160.9</ele>
        <time>2010-01-01T00:00:00Z</time>
      </trkpt>
      <trkpt lat="48.44839" lon="1.48791">
        <ele>161</ele>
        <time>2010-01-01T00:00:00Z</time>
      </trkpt>
      <trkpt lat="48.44838" lon="1.48786">
        <ele>161.1</ele>
        <time>2010-01-01T00:00:00Z</time>
      </trkpt>
      <trkpt lat="48.44838" lon="1.48779">
        <ele>161.3</ele>
        <time>2010-01-01T00:00:00Z</time>
      </trkpt>
      <trkpt lat="48.44839" lon="1.4877">
        <ele>161.6</ele>
        <time>2010-01-01T00:00:00Z</time>
      </trkpt>
      <trkpt lat="48.4482" lon="1.48744">
        <ele>162.4</ele>
        <time>2010-01-01T00:00:00Z</time>
      </trkpt>
      <trkpt lat="48.4482" lon="1.48744">
        <ele>162.4</ele>
        <time>2010-01-01T00:00:00Z</time>
      </trkpt>
      <trkpt lat="48.44788" lon="1.48713">
        <ele>161.6</ele>
        <time>2010-01-01T00:00:00Z</time>
      </trkpt>
      <trkpt lat="48.44776" lon="1.487">
        <ele>161.3</ele>
        <time>2010-01-01T00:00:00Z</time>
      </trkpt>
      <trkpt lat="48.4476" lon="1.48683">
        <ele>160.8</ele>
        <time>2010-01-01T00:00:00Z</time>
      </trkpt>
      <trkpt lat="48.44757" lon="1.48675">
        <ele>160.5</ele>
        <time>2010-01-01T00:00:00Z</time>
      </trkpt>
      <trkpt lat="48.44757" lon="1.48675">
        <ele>160.5</ele>
        <time>2010-01-01T00:00:00Z</time>
      </trkpt>
      <trkpt lat="48.44756" lon="1.48673">
        <ele>160.4</ele>
        <time>2010-01-01T00:00:00Z</time>
      </trkpt>
      <trkpt lat="48.44731" lon="1.48706">
        <ele>161.5</ele>
        <time>2010-01-01T00:00:00Z</time>
      </trkpt>
    </trkseg>
  </trk>
</gpx>